     2              OBSERVATION DATA    GPS                 RINEX VERSION / TYPE
ASHTORIN USGS 11 - MAY - 93 13:41                           PGM / RUN BY / DATE
                                                            COMMENT
for the YMP-USGS. Primary user 8.3.1.17.4.10.2.             COMMENT
for the YMP-USGS. Primary user 8.3.1.17.4.10.2.             COMMENT
for the YMP-USGS. Primary user 8.3.1.17.4.10.2.             COMMENT
for the YMP-USGS. Primary user 8.3.1.17.4.10.2.             COMMENT
Original Marker Name: clai Claim_1991_YM_Caltech            COMMENT
Campaign Name: USGS Yucca Profile                           COMMENT
4-Character Station Name: CLAI                              COMMENT
6-Character Antenna Code: ASHL12                            COMMENT
Vertical Measurement Point: BBE                             COMMENT
Vertical Offset to Rinex Ref. Point: 0.0595                 COMMENT
Radial Measurement Point: EGP                               COMMENT
Radial Offset to Rinex Ref. Point: 0.1424                   COMMENT
Antenna Height from Field Measurement: 1.3240 m             COMMENT
Additional Antenna Identification Info.:                    COMMENT
Original Ashtech L1/L2 (700228ABC)                          COMMENT
Original XYZ: -2258208.5700 -4596755.9800 3790531.7500      COMMENT
New XYZ position is based on association with SCEC monument COMMENT
E1G0K4O1+0011. Position of that monument is believed to be  COMMENT
valid to within 1 m horizontally; vertical accuracy         COMMENT
should be no worse than 3-times this value.                 COMMENT
                                                            COMMENT
Revised Rinex header created by UCSD GPS archive for        COMMENT
GSAC on 11-Aug-2000 (2000:224) 19:03:36 GMT                 COMMENT
For assistance contact dagnew@ucsd.edu                      COMMENT
or anderson@python.ucsd.edu                                 COMMENT
                                                            COMMENT
CLAIM 1991 YM                                               MARKER NAME
                                                            MARKER NUMBER
CHS US GEOLOGICAL SURVEY                                    OBSERVER / AGENCY
763 ASHTECH L-XII 6M24                                      REC # / TYPE / VERS
718 ASHTECH GEODETIC L                                      ANT # / TYPE
 -2293808.2474 -4564522.8902  3808387.9082                  APPROX POSITION XYZ
        1.2568        0.0000        0.0000                  ANTENNA: DELTA H/E/N
     1     2     0                                          WAVELENGTH FACT L1/2
     4    L1    L2    C1    D1                              # / TYPES OF OBSERV
    30                                                      INTERVAL
  1993     5     6     3     0   30.000000                  TIME OF FIRST OBS
  1993     5     6    13    30    0.000000                  TIME OF LAST OBS
    18                                                      # OF SATELLITES
           1   746   746   746   746                        PRN / # OF OBS
           3   596   596   596   596                        PRN / # OF OBS
          12   252   252   252   252                        PRN / # OF OBS
          14   331   331   331   331                        PRN / # OF OBS
          15   523   523   523   523                        PRN / # OF OBS
          16   275   275   275   275                        PRN / # OF OBS
          17   739   739   739   739                        PRN / # OF OBS
          18    48    48    48    48                        PRN / # OF OBS
          20   359   359   359   359                        PRN / # OF OBS
          21   778   778   778   778                        PRN / # OF OBS
          22   564   564   564   564                        PRN / # OF OBS
          23   777   777   777   777                        PRN / # OF OBS
          24    99    99    99    99                        PRN / # OF OBS
          25   526   526   526   526                        PRN / # OF OBS
          26   482   482   482   482                        PRN / # OF OBS
          28   539   539   539   539                        PRN / # OF OBS
          29   290   290   290   290                        PRN / # OF OBS
                                                            END OF HEADER
 93  5  6  3  0 30.0000000  0  5 16  3 20 24 17                      0.000895410
 -19252740.26017 -12325149.52219  21368999.201         613.829
  -9026967.83217  -6908831.15016  23072783.662       -1772.006
 -22040808.53418 -16382581.90119  20879952.977        1441.454
   6575542.04816    765147.02116  23464303.321        3045.647
  -4973088.14116  -3786532.31215  23385944.882       -2396.576
 93  5  6  3  1  0.0000000  0  5 16  3 20 24 17                      0.000902110
 -19234019.605 8 -12310561.994 9  21372561.704         634.381
  -9080101.628 7  -6950234.101 6  23062673.432       -1770.458
 -21997272.456 8 -16348657.712 9  20888237.524        1461.013
   6666941.656 6    836367.481 6  23481696.084        3047.844
  -5044873.524 6  -3842468.931 5  23372284.773       -2389.005
 93  5  6  3  1 30.0000000  0  5 16  3 20 24 17                      0.000908820
 -19214691.880 8 -12295501.404 9  21376239.559         653.981
  -9133196.473 7  -6991606.689 6  23052569.465       -1769.337
 -21953157.086 8 -16314282.098 9  20896632.480        1480.097
   6758401.186 6    907634.639 6  23499100.410        3049.414
  -5116438.894 6  -3898234.119 5  23358666.102       -2381.858
 93  5  6  3  2  0.0000000  0  5 16  3 20 24 17                      0.000915540
 -19194782.264 8 -12279987.413 9  21380028.223         673.177
  -9186252.785 6  -7032949.233 6  23042473.605       -1768.056
 -21908464.151 8 -16279456.458 9  20905137.353        1499.340
   6849904.710 6    978936.079 6  23516512.584        3050.764
  -5187782.117 6  -3953826.216 5  23345089.992       -2374.364
 93  5  6  3  2 30.0000000  0  5 16  3 20 24 17                      0.000922270
 -19174295.381 8 -12264023.583 9  21383926.826         692.550
  -9239270.190 6  -7074261.467 6  23032384.414       -1766.679
 -21863194.707 8 -16244181.569 9  20913751.990        1518.620
   6941448.451 6   1050268.874 6  23533932.388        3052.142
  -5258892.781 6  -4009237.063 5  23331557.769       -2366.317
 93  5  6  3  3  0.0000000  0  5 16  3 20 24 17                      0.000929010
 -19153231.418 8 -12247610.115 9  21387935.430         711.631
  -9292246.065 6  -7115541.354 6  23022304.272       -1765.378
 -21817347.374 8 -16208456.393 9  20922476.432        1537.792
   7033024.889 6   1121627.116 6  23551359.370        3052.811
  -5329767.609 6  -4064464.158 5  23318070.397       -2358.730
 93  5  6  3  3 30.0000000  0  5 16  3 20 24 17                      0.000935750
 -19131598.069 8 -12230752.940 9  21392052.049         730.382
  -9345181.719 7  -7156789.883 6  23012229.967       -1764.043
 -21770924.890 8 -16172283.057 9  20931310.287        1556.868
   7124618.120 6   1192998.447 6  23568789.140        3053.190
  -5400419.608 6  -4119517.611 5  23304625.918       -2351.495
 93  5  6  3  4  0.0000000  0  5 16  3 20 24 17                      0.000942470
 -19109395.742 8 -12213452.427 9  21396277.097         749.598
  -9398075.978 7  -7198006.166 6  23002164.554       -1762.684
 -21723927.509 8 -16135661.731 9  20940253.834        1576.011
   7216226.474 6   1264381.557 6  23586222.324        3053.827
  -5470849.582 6  -4174398.087 5  23291223.482       -2344.020
 93  5  6  3  4 30.0000000  0  5 16  3 20 24 17                      0.000949180
 -19086617.827 8 -12195703.384 9  21400611.347         768.919
  -9450931.706 7  -7239192.406 6  22992106.653       -1761.231
 -21676360.231 8 -16098596.348 9  20949305.507        1595.207
   7307855.677 6   1335780.924 6  23603658.137        3054.969
  -5541058.973 6  -4229106.645 5  23277863.156       -2336.475
 93  5  6  3  5  0.0000000  0  5 16  3 20 24 17                      0.000955910
 -19063260.484 8 -12177502.854 9  21405056.306         788.282
  -9503744.277 7  -7280345.033 6  22982056.893       -1759.799
 -21628219.865 8 -16061084.386 9  20958466.656        1614.218
   7399519.316 6   1407207.125 6  23621101.447        3056.065
  -5611043.178 6  -4283639.711 5  23264546.111       -2329.141
 93  5  6  3  5 30.0000000  0  5 16  3 20 24 17                      0.000962620
 -19039322.034 8 -12158849.495 9  21409611.504         807.574
  -9556517.291 7  -7321466.827 6  22972013.685       -1758.576
 -21579511.370 8 -16023129.737 9  20967735.459        1633.115
   7491217.408 6   1478660.161 6  23638550.201        3057.318
  -5680806.405 6  -4338000.601 5  23251270.582       -2321.716
 93  5  6  3  6  0.0000000  0  5 16  3 20 24 17                      0.000969350
 -19014802.951 8 -12139743.711 9  21414277.475         827.034
  -9609250.761 6  -7362557.815 6  22961978.785       -1757.355
 -21530236.190 8 -15984733.527 9  20977111.828        1651.859
   7582952.410 6   1550141.982 5  23656006.568        3058.310
  -5750336.949 6  -4392180.204 5  23238038.533       -2313.821
 93  5  6  3  6 30.0000000  0  5 16  3 20 24 17                      0.000976100
 -18989690.780 8 -12120175.771 9  21419056.218         847.234
  -9661944.335 7  -7403617.720 6  22951951.478       -1755.668
 -21480395.845 8 -15945896.911 9  20986596.241        1670.944
   7674720.112 6   1621649.281 5  23673469.303        3059.574
  -5819633.582 6  -4446177.485 5  23224851.729       -2305.945
 93  5  6  3  7  0.0000000  0  5 16  3 20 24 17                      0.000982830
 -18963969.134 8 -12100132.929 9  21423950.998         867.523
  -9714592.386 7  -7444642.151 6  22941933.151       -1754.369
 -21429986.522 8 -15906616.947 9  20996188.841        1689.713
   7766516.308 6   1693178.752 5  23690936.523        3060.202
  -5888701.719 6  -4499996.753 5  23211707.937       -2298.692
 93  5  6  3  7 30.0000000  0  5 16  3 20 24 17                      0.000989550
 -18937644.698 8 -12079620.364 9  21428960.339         887.492
  -9767197.501 7  -7485633.139 6  22931921.983       -1752.816
 -21379012.069 8 -15866896.614 9  21005888.615        1708.634
   7858339.412 6   1764729.210 5  23708410.277        3061.543
  -5957552.810 6  -4553646.875 5  23198606.773       -2291.276
 93  5  6  3  8  0.0000000  0  5 16  3 20 24 17                      0.000996270
 -18910723.192 8 -12058642.558 9  21434083.433         907.517
  -9819758.984 7  -7526590.113 6  22921920.313       -1751.425
 -21327473.784 8 -15826736.929 9  21015696.154        1727.342
   7950197.810 6   1836307.191 5  23725891.178        3062.428
  -6026188.549 6  -4607129.161 5  23185546.445       -2284.449
 93  5  6  3  8 30.0010000  0  5 16  3 20 24 17                      0.001002950
 -18883203.321 8 -12037198.503 9  21439320.438         926.999
  -9872279.475 7  -7567515.155 6  22911926.796       -1749.941
 -21275372.956 8 -15786138.916 9  21025610.701        1746.013
   8042089.317 6   1907910.935 5  23743377.930        3063.621
  -6094629.174 6  -4660459.437 5  23172522.504       -2277.964
 93  5  6  3  9  0.0010000  0  5 16  3 20 24 17                      0.001009620
 -18855115.856 8 -12015312.151 9  21444664.597         945.440
  -9924755.525 7  -7608405.535 6  22901940.804       -1748.636
 -21222714.455 8 -15745106.326 9  21035631.434        1764.589
   8134019.612 6   1979544.947 5  23760871.624        3065.128
  -6162868.826 6  -4713633.092 5  23159536.585       -2271.254
 93  5  6  3  9 30.0010000  0  5 16  3 20 24 17                      0.001016300
 -18826476.973 8 -11992996.130 9  21450114.415         963.965
  -9977184.828 7  -7649259.508 6  22891963.661       -1746.910
 -21169494.758 8 -15703636.457 9  21045758.824        1783.436
   8225999.906 6   2051217.880 5  23778374.316        3066.895
  -6230894.113 6  -4766639.739 5  23146591.049       -2263.688
 93  5  6  3 10  0.0010000  0  5 16  3 20 24 17                      0.001023000
 -18797279.715 8 -11970245.010 9  21455670.579         982.539
 -10029564.150 7  -7690074.548 6  22881996.503       -1745.361
 -21115712.262 8 -15661728.038 9  21055993.028        1802.047
   8318021.737 6   2122923.204 5  23795885.815        3067.822
  -6298692.243 6  -4819469.377 5  23133689.921       -2256.286
 93  5  6  3 10 30.0010000  0  5 16  3 20 24 17                      0.001029720
 -18767529.562 8 -11947063.063 9  21461331.950        1000.696
 -10081897.045 7  -7730853.384 6  22872037.445       -1743.770
 -21061372.624 8 -15619385.489 9  21066333.689        1820.603
   8410076.466 6   2194654.140 5  23813403.773        3069.184
  -6366263.764 6  -4872122.424 5  23120831.462       -2248.343
 93  5  6  3 11  0.0010000  0  5 16  3 20 24 17                      0.001036470
 -18737234.304 8 -11923456.361 9  21467097.239        1019.163
 -10134182.929 7  -7771595.599 6  22862087.684       -1742.212
 -21006477.038 8 -15576609.734 9  21076780.159        1839.142
   8502170.339 6   2266415.590 5  23830928.912        3070.257
  -6433596.822 6  -4924589.668 5  23108018.387       -2240.629
 93  5  6  3 11 30.0010000  0  5 16  3 20 24 17                      0.001043230
 -18706368.984 8 -11899405.448 9  21472970.343        1038.655
 -10186420.586 7  -7812300.254 6  22852147.259       -1740.436
 -20951026.240 8 -15533401.323 9  21087332.155        1857.719
   8594290.087 6   2338197.195 5  23848458.258        3071.117
  -6500694.172 6  -4976873.242 5  23095250.083       -2232.475
 93  5  6  3 12  0.0010000  0  5 16  3 20 24 17                      0.001049990
 -18674919.895 8 -11874899.661 9  21478954.840        1057.945
 -10238604.778 7  -7852963.223 6  22842216.175       -1738.755
 -20895016.979 8 -15489757.776 9  21097990.225        1876.170
   8686430.829 6   2409995.141 5  23865992.098        3071.403
  -6567551.248 6  -5028969.611 5  23082527.356       -2224.831
 93  5  6  3 12 30.0010000  0  5 16  3 20 24 17                      0.001056740
 -18642891.938 8 -11849942.801 9  21485049.462        1077.289
 -10290737.855 7  -7893586.340 6  22832295.940       -1737.039
 -20838454.134 8 -15445682.848 9  21108753.713        1894.654
   8778582.608 6   2481801.694 5  23883528.330        3071.967
  -6634182.532 6  -5080890.017 5  23069848.214       -2217.098
 93  5  6  3 13  0.0010000  0  5 16  3 20 24 17                      0.001063480
 -18610282.402 8 -11824532.764 9  21491255.082        1096.521
 -10342817.824 7  -7934168.103 6  22822385.072       -1735.419
 -20781337.354 8 -15401176.290 9  21119622.600        1912.905
   8870739.206 6   2553611.965 6  23901065.208        3071.568
  -6700582.068 6  -5132629.877 5  23057212.501       -2209.803
 93  5  6  3 13 30.0010000  0  5 16  3 20 24 17                      0.001070180
 -18577095.848 8 -11798673.101 9  21497570.312        1115.660
 -10394846.196 7  -7974709.651 6  22812484.195       -1733.460
 -20723670.556 8 -15356241.148 9  21130596.422        1931.448
   8962887.763 6   2625416.025 6  23918600.788        3071.564
  -6766759.680 6  -5184196.785 5  23044619.480       -2202.089
 93  5  6  3 14  0.0010000  0  5 16  3 20 24 17                      0.001076850
 -18543346.535 8 -11772374.926 9  21503992.726        1134.457
 -10446822.224 7  -8015210.419 6  22802593.820       -1731.725
 -20665454.803 8 -15310878.239 9  21141674.604        1949.705
   9055037.334 6   2697220.850 6  23936135.328        3071.921
  -6832717.686 6  -5235592.570 6  23032067.889       -2195.115
 93  5  6  3 14 30.0010000  0  5 16  3 20 24 17                      0.001083520
 -18509024.247 8 -11745630.285 9  21510523.935        1153.747
 -10498742.958 7  -8055668.080 7  22792713.245       -1729.805
 -20606689.975 8 -15265087.489 9  21152857.393        1968.031
   9147204.660 6   2769039.553 6  23953674.031        3072.731
  -6898461.013 6  -5286821.089 6  23019557.013       -2187.591
 93  5  6  3 15  0.0010000  0  5 16  3 20 24 17                      0.001090180
 -18474126.622 8 -11718437.321 9  21517164.437        1172.964
 -10550609.223 7  -8096083.316 7  22782843.405       -1728.009
 -20547378.790 8 -15218870.997 9  21164143.939        1986.194
   9239401.578 6   2840881.277 6  23971218.366        3073.965
  -6963981.331 6  -5337875.843 6  23007089.693       -2180.350
 93  5  6  3 15 30.0010000  0  5 16  3 20 24 17                      0.001096860
 -18438642.880 8 -11690787.655 9  21523916.954        1192.690
 -10602419.331 7  -8136454.801 7  22772983.751       -1726.220
 -20487521.480 8 -15172228.962 9  21175534.202        2004.316
   9331643.722 6   2912758.270 6  23988772.165        3075.592
  -7029278.531 6  -5388756.738 6  22994663.977       -2172.703
 93  5  6  3 16  0.0010000  0  5 16  3 20 24 17                      0.001103530
 -18402563.826 8 -11662674.087 9  21530782.560        1212.580
 -10654178.015 7  -8176786.190 7  22763134.541       -1724.578
 -20427125.150 8 -15125166.914 9  21187027.219        2022.189
   9423930.397 6   2984669.918 5  24006333.112        3076.796
  -7094350.923 6  -5439462.446 6  22982280.780       -2165.280
 93  5  6  3 16 30.0010000  0  5 16  3 20 24 17                      0.001110210
 -18365887.545 8 -11634095.170 9  21537761.947        1232.364
 -10705880.817 7  -8217074.048 7  22753296.278       -1722.530
 -20366187.955 8 -15077683.413 9  21198623.228        2040.296
   9516248.594 6   3056606.155 5  24023901.288        3077.836
  -7159184.058 6  -5489981.724 6  22969943.349       -2156.878
 93  5  6  3 17  0.0010000  0  5 16  3 20 24 17                      0.001116900
 -18328631.810 8 -11605064.724 9  21544851.241        1251.378
 -10757526.637 7  -8257317.510 7  22743469.041       -1720.774
 -20304710.922 8 -15029779.245 9  21210322.319        2058.107
   9608600.237 6   3128568.464 5  24041474.500        3078.780
  -7223774.179 6  -5540311.655 6  22957651.998       -2149.104
 93  5  6  3 17 30.0010000  0  5 16  3 20 24 17                      0.001123600
 -18290809.672 8 -11575592.915 9  21552048.448        1270.017
 -10809119.242 7  -8297519.523 7  22733652.230       -1718.996
 -20242700.296 8 -14981459.295 9  21222122.380        2075.871
   9700965.114 6   3200541.134 5  24059051.054        3078.716
  -7288125.091 6  -5590455.193 6  22945406.654       -2141.017
 93  5  6  3 18  0.0010000  0  5 16  3 20 24 17                      0.001130290
 -18252433.975 8 -11545689.766 9  21559351.321        1288.375
 -10860654.641 7  -8337676.943 7  22723845.151       -1716.929
 -20180154.460 8 -14932722.313 9  21234024.300        2093.903
   9793324.811 6   3272509.735 5  24076627.085        3078.628
  -7352232.910 6  -5640409.294 6  22933206.621       -2132.755
 93  5  6  3 18 30.0010000  0  5 16  3 20 24 17                      0.001136990
 -18213514.244 8 -11515362.701 9  21566757.385        1306.432
 -10912131.541 7  -8377788.779 7  22714049.081       -1715.041
 -20117074.300 8 -14883568.962 9  21246028.259        2111.514
   9885683.822 6   3344477.748 5  24094202.311        3078.832
  -7416097.230 6  -5690173.648 6  22921053.198       -2124.798
 93  5  6  3 19  0.0010000  0  5 16  3 20 24 17                      0.001143690
 -18174047.817 8 -11484609.625 9  21574267.645        1324.900
 -10963551.733 7  -8417856.438 7  22704263.594       -1713.138
 -20053464.271 8 -14834002.729 9  21258133.010        2129.241
   9978046.452 6   3416448.661 5  24111778.575        3078.555
  -7479723.155 6  -5739752.261 6  22908946.016       -2116.768
 93  5  6  3 19 30.0010000  0  5 16  3 20 24 17                      0.001150370
 -18134030.382 8 -11453427.190 9  21581882.522        1342.955
 -11014914.407 7  -8457879.273 7  22694489.712       -1711.286
 -19989325.924 8 -14784024.816 9  21270338.201        2146.668
  10070391.427 6   3488405.766 5  24129350.916        3077.922
  -7543108.551 6  -5789143.442 6  22896884.659       -2108.999
 93  5  6  3 20  0.0010000  0  5 16  3 20 24 17                      0.001157040
 -18093468.649 8 -11421820.634 9  21589600.921        1361.233
 -11066221.838 7  -8497859.061 7  22684726.323       -1709.390
 -19924664.440 8 -14733639.265 9  21282642.701        2164.130
  10162728.072 6   3560356.436 5  24146922.194        3077.915
  -7606265.850 6  -5838356.878 6  22884865.892       -2101.501
 93  5  6  3 20 30.0010000  0  5 16  3 20 24 17                      0.001163710
 -18052358.761 8 -11389786.942 9  21597424.184        1379.467
 -11117470.807 7  -8537793.312 7  22674973.843       -1707.444
 -19859478.764 8 -14682845.255 9  21295047.353        2181.580
  10255064.206 6   3632306.669 5  24164493.900        3077.762
  -7669195.677 6  -5887393.059 6  22872891.189       -2094.059
 93  5  6  3 21  0.0010000  0  5 16  3 20 24 17                      0.001170340
 -18010704.815 8 -11357329.324 9  21605350.827        1397.510
 -11168662.566 7  -8577682.969 7  22665231.965       -1705.530
 -19793772.720 8 -14631645.768 9  21307550.690        2198.839
  10347388.020 5   3704247.277 5  24182061.865        3077.174
  -7731911.052 6  -5936262.152 6  22860956.589       -2087.082
 93  5  6  3 21 30.0010000  0  5 16  3 20 24 17                      0.001176950
 -17968503.016 8 -11324444.787 9  21613381.148        1415.891
 -11219795.155 7  -8617526.512 7  22655501.760       -1703.593
 -19727547.227 8 -14580041.510 9  21320153.267        2216.115
  10439709.345 5   3776185.961 5  24199629.836        3077.504
  -7794417.993 6  -5984968.828 6  22849061.496       -2080.139
 93  5  6  3 22  0.0010000  0  5 16  3 20 24 17                      0.001183540
 -17925745.954 8 -11291127.589 9  21621517.434        1434.602
 -11270871.233 7  -8657326.034 7  22645781.926       -1701.626
 -19660807.409 8 -14528036.468 9  21332853.562        2233.279
  10532039.151 6   3848131.234 5  24217200.073        3077.786
  -7856717.148 6  -6033513.592 6  22837206.183       -2072.922
 93  5  6  3 22 30.0010000  0  5 16  3 20 24 17                      0.001190130
 -17882424.691 8 -11257370.745 9  21629761.258        1453.509
 -11321884.565 7  -8697076.664 7  22636074.193       -1699.466
 -19593550.139 8 -14475628.237 9  21345652.092        2250.572
  10624382.906 6   3920087.368 5  24234772.924        3078.539
  -7918789.607 6  -6081881.692 6  22825393.774       -2065.179
 93  5  6  3 23  0.0010000  0  5 16  3 20 24 17                      0.001196720
 -17838536.955 8 -11223172.508 9  21638113.324        1472.329
 -11372831.886 7  -8736775.865 7  22626379.941       -1697.228
 -19525774.450 8 -14422816.023 9  21358549.473        2267.805
  10716753.922 6   3992064.789 5  24252350.204        3079.485
  -7980628.128 6  -6130067.529 6  22813626.561       -2057.201
 93  5  6  3 23 30.0010000  0  5 16  3 20 24 17                      0.001203330
 -17794083.496 8 -11188533.449 9  21646572.459        1491.111
 -11423711.083 7  -8776421.987 7  22616697.756       -1694.920
 -19457481.113 8 -14369600.453 9  21371545.067        2285.087
  10809154.447 6   4064065.184 5  24269933.534        3080.372
  -8042211.541 6  -6178054.574 6  22801907.868       -2048.343
 93  5  6  3 24  0.0010000  0  5 16  3 20 24 17                      0.001209970
 -17749081.122 8 -11153466.651 9  21655136.161        1509.051
 -11474523.246 7  -8816015.882 7  22607028.134       -1692.772
 -19388673.709 8 -14315984.316 9  21384638.833        2302.092
  10901570.307 6   4136077.522 5  24287519.609        3080.652
  -8103536.117 6  -6225839.909 6  22790238.208       -2039.923
 93  5  6  3 24 30.0010000  0  5 16  3 20 24 17                      0.001216620
 -17703538.771 8 -11117979.091 9  21663802.505        1527.119
 -11525269.519 7  -8855558.399 7  22597371.619       -1690.591
 -19319356.550 8 -14261970.962 9  21397829.243        2319.045
  10993998.190 6   4208099.229 5  24305107.563        3080.948
  -8164607.359 6  -6273427.882 6  22778617.204       -2031.639
 93  5  6  3 25  0.0010000  0  5 16  3 20 24 17                      0.001223280
 -17657450.448 8 -11082066.109 9  21672572.979        1545.542
 -11575949.076 7  -8895048.958 7  22587726.827       -1688.220
 -19249531.509 8 -14207561.851 9  21411116.383        2336.018
  11086430.251 6   4280124.105 5  24322697.091        3081.018
  -8225435.147 6  -6320826.118 6  22767041.655       -2023.449
 93  5  6  3 25 30.0010000  0  5 16  3 20 24 17                      0.001229920
 -17610820.418 8 -11045731.006 9  21681446.468        1563.054
 -11626566.645 7  -8934491.226 7  22578095.270       -1686.631
 -19179205.940 8 -14152762.722 9  21424498.858        2352.269
  11178849.758 6   4352139.332 5  24340283.663        3080.149
  -8286023.387 6  -6368037.673 6  22755511.765       -2016.005
 93  5  6  3 26  0.0010000  0  5 16  3 20 24 17                      0.001236560
 -17563655.277 8 -11008978.942 9  21690421.644        1581.254
 -11677125.315 7  -8973887.568 7  22568473.979       -1684.251
 -19108386.253 8 -14097578.576 9  21437975.499        2369.063
  11271253.711 6   4424142.350 5  24357868.051        3080.128
  -8346386.233 6  -6415073.639 6  22744025.059       -2008.171
 93  5  6  3 26 30.0010000  0  5 16  3 20 24 17                      0.001243180
 -17515945.759 8 -10971802.670 9  21699500.339        1599.178
 -11727612.855 7  -9013228.488 7  22558866.148       -1681.865
 -19037062.632 8 -14042001.740 9  21451548.051        2385.808
  11363657.724 5   4496145.448 5  24375451.698        3080.005
  -8406505.738 6  -6461919.941 6  22732584.502       -2000.077
 93  5  6  3 27  0.0010000  0  5 16  3 20 24 17                      0.001249810
 -17467710.584 8 -10934216.823 9  21708679.266        1616.459
 -11778030.643 7  -9052515.079 7  22549272.862       -1679.507
 -18965239.632 7 -13986035.803 9  21465215.474        2402.429
  11456048.552 5   4568138.276 5  24393033.808        3079.490
  -8466387.588 6  -6508581.094 6  22721189.448       -1992.057
 93  5  6  3 27 30.0010000  0  5 16  3 20 24 17                      0.001256430
 -17418957.953 8 -10896227.748 9  21717956.193        1633.705
 -11828373.527 7  -9091743.279 7  22539693.198       -1676.959
 -18892915.213 8 -13929679.113 9  21478978.154        2419.144
  11548428.139 6   4640122.337 5  24410612.965        3079.165
  -8526027.113 6  -6555053.402 6  22709840.557       -1983.970
 93  5  6  3 28  0.0010000  0  5 16  3 20 24 17                      0.001263060
 -17369692.644 8 -10857839.199 9  21727331.240        1650.570
 -11878646.789 7  -9130917.229 7  22530127.024       -1674.795
 -18820097.727 8 -13872938.245 9  21492835.021        2435.376
  11640797.170 6   4712098.098 5  24428189.843        3078.751
  -8585431.843 6  -6601342.771 6  22698536.339       -1976.248
 93  5  6  3 28 30.0010000  0  5 16  3 20 24 17                      0.001269690
 -17319919.978 8 -10819055.284 9  21736802.966        1667.737
 -11928850.885 7  -9170037.302 7  22520572.511       -1672.339
 -18746790.324 8 -13815815.616 9  21506785.092        2451.802
  11733159.847 6   4784068.944 5  24445766.034        3078.700
  -8644598.716 6  -6647446.783 6  22687276.609       -1968.352
 93  5  6  3 29  0.0010000  0  5 16  3 20 24 17                      0.001276340
 -17269622.362 8 -10779862.348 9  21746373.850        1685.316
 -11978978.947 7  -9209098.105 7  22511034.418       -1669.881
 -18672989.340 7 -13758308.375 9  21520828.700        2468.089
  11825523.650 6   4856040.723 5  24463342.279        3078.748
  -8703529.890 6  -6693367.119 6  22676063.188       -1960.378
 93  5  6  3 29 30.0010000  0  5 16  3 20 24 17                      0.001282990
 -17218789.374 7 -10740252.220 9  21756047.281        1703.476
 -12029031.398 7  -9248100.007 7  22501509.757       -1667.147
 -18598698.236 7 -13700419.230 9  21534965.913        2484.585
  11917899.616 6   4928021.907 5  24480920.920        3079.615
  -8762210.114 6  -6739091.931 6  22664896.731       -1951.604
 93  5  6  3 30  0.0010000  0  5 16  3 20 24 17                      0.001289680
 -17167428.373 7 -10700230.663 9  21765821.143        1720.686
 -12079009.817 7  -9287044.209 7  22491998.088       -1664.811
 -18523921.698 8 -13642151.829 9  21549195.592        2500.612
  12010296.117 6   5000019.156 5  24498503.649        3080.136
  -8820635.419 6  -6784618.097 6  22653778.146       -1943.299
 93  5  6  3 30 30.0010000  0  5 16  3 20 24 17                      0.001296390
 -17115546.970 7 -10659803.609 9  21775693.573        1738.503
 -12128913.156 7  -9325929.924 7  22482502.137       -1662.098
 -18448661.935 7 -13583507.887 9  21563516.967        2516.912
  12102709.464 6   5072029.517 5  24516088.973        3080.825
  -8878814.566 6  -6829952.443 6  22642707.362       -1935.263
 93  5  6  3 31  0.0010000  0  5 16  3 20 24 17                      0.001303090
 -17063126.333 7 -10618956.359 9  21785669.124        1756.198
 -12178738.667 7  -9364754.973 7  22473020.718       -1659.763
 -18372919.326 7 -13524487.694 9  21577930.391        2532.707
  12195135.592 5   5144049.857 5  24533675.870        3080.944
  -8936761.977 6  -6875106.221 6  22631679.612       -1927.699
 93  5  6  3 31 30.0010000  0  5 16  3 20 24 17                      0.001309790
 -17010173.990 7 -10577694.812 9  21795745.399        1773.930
 -12228491.414 7  -9403523.326 7  22463553.416       -1657.344
 -18296702.380 7 -13465097.906 9  21592433.868        2548.393
  12287560.023 5   5216068.768 5  24551263.697        3080.626
  -8994483.090 6  -6920083.646 6  22620695.795       -1920.452
 93  5  6  3 32  0.0010000  0  6 16  3 26 20 24 17                   0.001316280
 -16956689.060 7 -10536018.255 9  21805923.662        1791.668
 -12278167.875 7  -9442232.265 7  22454099.412       -1654.794
   -459875.97615   -390183.28315  24957815.251       -2333.775
 -18220010.426 8 -13405337.968 9  21607027.833        2564.223
  12379971.920 5   5288078.033 5  24568849.427        3080.038
  -9051991.792 6  -6964895.589 6  22609751.985       -1913.508
 93  5  6  3 32 30.0010000  0  6 16  3 26 20 24 17                   0.001322900
 -16902661.446 7 -10493918.822 9  21816204.546        1810.098
 -12327766.690 7  -9480880.658 7  22444661.728       -1652.101
   -529875.588 5   -444728.402 5  24944495.157       -2332.888
 -18142845.368 7 -13345209.384 9  21621712.117        2580.041
  12472361.398 5   5360069.887 5  24586430.746        3079.098
  -9109289.112 6  -7009542.800 6  22598848.888       -1906.351
 93  5  6  3 33  0.0010000  0  6 16  3 26 20 24 17                   0.001329500
 -16848092.671 7 -10451397.710 9  21826588.606        1827.579
 -12377290.330 7  -9519470.484 7  22435238.628       -1649.726
   -599853.662 5   -499256.737 5  24931178.195       -2332.444
 -18065213.126 7 -13284716.757 9  21636485.053        2595.427
  12564710.567 5   5432030.134 5  24604005.120        3077.382
  -9166362.368 7  -7054015.418 6  22587988.608       -1898.469
 93  5  6  3 33 30.0010000  0  6 16  3 26 20 24 17                   0.001336080
 -16793000.114 7 -10408468.452 9  21837072.360        1845.001
 -12426732.853 7  -9557997.130 8  22425830.169       -1646.873
   -669812.186 5   -553769.786 5  24917865.409       -2331.717
 -17987110.803 7 -13223857.844 9  21651347.523        2611.154
  12657023.500 5   5503962.230 5  24621571.318        3076.579
  -9223188.981 6  -7098295.854 6  22577175.786       -1890.193
 93  5  6  3 34  0.0010000  0  6 16  3 26 20 24 17                   0.001342650
 -16737394.134 7 -10365139.122 9  21847653.736        1862.057
 -12476093.422 7  -9596459.874 8  22416436.802       -1644.067
   -739749.578 5   -608266.367 5  24904556.179       -2330.604
 -17908540.946 7 -13162634.603 9  21666298.612        2626.742
  12749310.854 5   5575874.442 5  24639131.068        3075.961
  -9279764.962 6  -7142380.985 6  22566409.591       -1881.586
 93  5  6  3 34 30.0010000  0  6 16  3 26 20 24 17                   0.001349240
 -16681276.794 7 -10321411.331 9  21858332.631        1879.054
 -12525371.198 7  -9634858.095 8  22407059.015       -1641.237
   -809650.908 5   -662734.797 5  24891254.539       -2329.421
 -17829506.109 7 -13101049.050 9  21681338.781        2642.297
  12841581.547 5   5647773.596 5  24656691.232        3075.454
  -9336083.191 7  -7186265.270 6  22555692.690       -1872.885
 93  5  6  3 35  0.0010000  0  6 16  3 26 20 24 17                   0.001355830
 -16624657.604 7 -10277292.489 9  21869106.993        1895.603
 -12574568.383 7  -9673193.543 8  22397696.888       -1638.721
   -879529.927 5   -717185.900 5  24877956.494       -2329.172
 -17750011.982 7 -13039105.599 9  21696466.281        2657.339
  12933836.764 5   5719660.788 5  24674247.013        3075.121
  -9392144.279 6  -7229949.187 6  22545024.180       -1864.440
 93  5  6  3 35 30.0010000  0  6 16  3 26 20 24 17                   0.001362430
 -16567537.308 7 -10232783.173 9  21879976.279        1912.450
 -12623685.251 7  -9711466.404 8  22388349.492       -1636.021
   -949393.762 5   -771625.177 5  24864661.513       -2328.504
 -17670062.264 7 -12976807.154 9  21711679.788        2672.539
  13026100.588 5   5791554.521 5  24691805.127        3075.693
  -9447953.080 7  -7273436.527 6  22534403.566       -1856.129
 93  5  6  3 36  0.0010000  0  6 16  3 26 20 24 17                   0.001369050
 -16509907.103 7 -10187876.522 9  21890942.965        1929.501
 -12672717.650 7  -9749673.432 8  22379019.003       -1633.090
  -1019232.527 5   -826044.931 5  24851372.158       -2327.492
 -17589656.054 7 -12914152.982 9  21726980.567        2687.792
  13118374.221 5   5863456.055 5  24709364.968        3075.765
  -9503508.015 7  -7316726.062 6  22523831.424       -1847.702
 93  5  6  3 36 30.0010000  0  6 16  3 26 20 24 17                   0.001375650
 -16451766.674 7 -10142572.314 9  21902006.627        1946.354
 -12721662.015 7  -9787811.855 8  22369704.885       -1630.283
  -1089046.775 5   -880445.557 5  24838087.071       -2327.050
 -17508793.369 7 -12851143.143 9  21742368.400        2702.818
  13210644.624 5   5935355.047 5  24726922.728        3075.307
  -9558816.784 7  -7359823.762 6  22513306.611       -1839.755
 93  5  6  3 37  0.0010000  0  6 16  3 26 20 24 17                   0.001382240
 -16393119.508 7 -10096873.233 9  21913166.559        1963.462
 -12770523.025 7  -9825885.343 8  22360407.293       -1627.303
  -1158854.099 5   -934840.814 5  24824802.365       -2326.513
 -17427482.288 7 -12787783.892 9  21757841.529        2717.938
  13302899.533 6   6007241.967 5  24744477.681        3074.983
  -9613892.471 6  -7402739.838 7  22502826.160       -1832.029
 93  5  6  3 37 30.0010000  0  6 16  3 26 20 24 17                   0.001388810
 -16333968.300 7 -10050781.379 9  21924422.976        1980.103
 -12819297.193 7  -9863891.158 8  22351126.089       -1624.523
  -1228638.384 5   -989218.118 5  24811523.073       -2325.825
 -17345722.963 7 -12724075.350 9  21773399.780        2732.768
  13395131.982 5   6079111.420 5  24762028.845        3073.698
  -9668746.646 6  -7445483.310 7  22492388.084       -1824.942
 93  5  6  3 38  0.0010000  0  6 16  3 26 20 24 17                   0.001395350
 -16274315.592 7 -10004298.755 8  21935774.849        1996.760
 -12867982.559 7  -9901827.782 8  22341861.567       -1621.433
  -1298397.139 5  -1043575.546 5  24798248.274       -2324.859
 -17263517.172 7 -12660018.914 9  21789043.087        2747.662
  13487323.111 5   6150948.584 5  24779572.407        3072.385
  -9723394.357 7  -7488065.900 7  22481988.996       -1818.291
 93  5  6  3 38 30.0010000  0  6 16  3 26 20 24 17                   0.001401860
 -16214163.447 7  -9957426.960 8  21947221.474        2013.348
 -12916574.292 7  -9939691.438 8  22332614.433       -1618.310
  -1368123.947 5  -1097908.019 5  24784980.505       -2323.655
 -17180863.411 7 -12595613.433 9  21804771.660        2762.531
  13579482.105 5   6222760.715 5  24797110.561        3071.588
  -9777836.552 7  -7530488.356 6  22471628.743       -1811.061
 93  5  6  3 39  0.0010000  0  6 16  3 26 20 24 17                   0.001408360
 -16153515.215 7  -9910168.607 8  21958762.365        2029.714
 -12965071.579 7  -9977481.516 8  22323385.752       -1615.006
  -1437807.917 5  -1152207.214 5  24771720.421       -2321.755
 -17097764.033 7 -12530860.702 9  21820585.015        2777.429
  13671623.451 5   6294559.089 5  24814643.930        3071.223
  -9832055.444 7  -7572736.808 7  22461311.219       -1803.370
 93  5  6  3 39 30.0010000  0  6 16  3 26 20 24 17                   0.001414860
 -16092388.096 7  -9862537.096 8  21970394.432        2045.642
 -13013477.191 7 -10015200.162 8  22314173.978       -1612.089
  -1507432.976 5  -1206460.465 5  24758470.037       -2319.986
 -17014225.775 7 -12465765.996 9  21836481.577        2791.893
  13763749.818 5   6366345.796 5  24832175.004        3070.779
  -9886039.338 7  -7614802.162 6  22451038.509       -1795.317
 93  5  6  3 40  0.0010000  0  6 16  3 26 20 24 17                   0.001421370
 -16030777.049 7  -9814528.486 8  21982118.905        2061.771
 -13061785.468 7 -10052842.946 8  22304981.811       -1608.637
  -1577004.285 5  -1260671.787 5  24745230.463       -2318.011
 -16930246.791 7 -12400327.845 9  21852462.825        2806.738
  13855880.746 5   6438136.115 5  24849706.667        3071.372
  -9939764.969 7  -7656666.235 6  22440814.480       -1786.206
 93  5  6  3 40 30.0010000  0  6 16  3 26 20 24 17                   0.001427920
 -15968686.480 7  -9766146.231 8  21993934.084        2077.663
 -13109996.779 7 -10090410.181 8  22295807.276       -1605.595
  -1646520.516 5  -1314840.253 5  24732001.647       -2316.241
 -16845830.929 7 -12334549.274 9  21868526.716        2821.021
  13948017.012 5   6509930.593 5  24867239.352        3071.039
  -9993211.286 7  -7698312.679 7  22430644.390       -1776.821
 93  5  6  3 41  0.0010000  0  6 16  3 26 20 24 17                   0.001434480
 -15906113.390 7  -9717387.974 8  22005841.412        2093.961
 -13158113.942 7 -10127904.045 8  22286651.754       -1602.363
  -1715977.849 5  -1368962.742 5  24718784.292       -2314.191
 -16760984.757 7 -12268435.414 9  21884672.108        2835.429
  14040139.943 5   6581714.624 5  24884770.128        3070.360
 -10046381.330 7  -7739743.846 7  22420525.913       -1767.797
 93  5  6  3 41 30.0010000  0  6 16  3 26 20 24 17                   0.001441040
 -15843044.473 7  -9668243.371 8  22017842.923        2110.577
 -13206131.651 7 -10165320.429 8  22277513.732       -1599.054
  -1785377.343 5  -1423040.190 5  24705578.605       -2312.551
 -16675706.528 7 -12201984.886 9  21900900.113        2849.729
  14132244.640 5   6653484.522 5  24902297.171        3069.735
 -10099281.964 7  -7780965.076 7  22410459.721       -1759.043
 93  5  6  3 42  0.0010000  0  6 16  3 26 20 24 17                   0.001447600
 -15779483.783 7  -9618715.565 8  22029938.141        2126.740
 -13254051.755 7 -10202660.759 8  22268395.154       -1595.813
  -1854731.906 5  -1477082.648 5  24692381.152       -2310.912
 -16590001.746 7 -12135201.977 9  21917208.861        2863.921
  14224322.155 5   6725233.141 5  24919819.471        3068.639
 -10151928.106 7  -7821988.012 7  22400441.559       -1750.655
 93  5  6  3 42 30.0010000  0  6 16  3 26 20 24 17                   0.001454140
 -15715432.742 7  -9568805.665 8  22042127.231        2143.187
 -13301868.898 7 -10239920.862 8  22259296.340       -1592.306
  -1924014.597 5  -1531069.112 5  24679196.945       -2308.011
 -16503869.227 7 -12068085.773 8  21933599.424        2878.157
  14316363.785 5   6796953.838 5  24937334.447        3067.423
 -10204319.178 7  -7862812.195 7  22390471.969       -1742.216
 93  5  6  3 43  0.0010000  0  6 16  3 26 20 24 17                   0.001460680
 -15650895.276 7  -9518516.729 8  22054407.892        2159.319
 -13349583.575 7 -10277101.101 8  22250216.259       -1588.835
  -1993217.389 5  -1584993.267 5  24666027.572       -2305.544
 -16417312.828 7 -12000639.265 8  21950070.712        2892.281
  14408380.212 5   6868654.956 5  24954844.271        3067.128
 -10256457.963 7  -7903439.778 7  22380550.599       -1733.559
 93  5  6  3 43 30.0010000  0  6 16  3 26 20 24 17                   0.001467240
 -15585883.854 7  -9467858.484 8  22066779.014        2174.696
 -13397193.872 7 -10314200.014 8  22241155.778       -1585.409
  -2062346.620 5  -1638860.127 5  24652873.079       -2303.014
 -16330334.811 7 -11932864.228 8  21966622.255        2906.251
  14500393.814 5   6940353.856 5  24972353.566        3067.040
 -10308333.273 7  -7943862.059 7  22370679.281       -1724.929
 93  5  6  3 44  0.0010000  0  6 16  3 26 20 24 17                   0.001473830
 -15520410.749 7  -9416840.473 8  22079238.334        2190.143
 -13444697.970 7 -10351216.170 8  22232115.595       -1581.836
  -2131383.526 5  -1692655.040 5  24639735.694       -2299.623
 -16242937.174 7 -11864762.211 8  21983253.509        2920.188
  14592403.649 5   7012049.829 5  24989862.866        3066.946
 -10359946.825 7  -7984080.371 7  22360857.898       -1716.029
 93  5  6  3 44 30.0010000  0  6 16  3 26 20 24 17                   0.001480440
 -15454468.741 7  -9365457.101 8  22091786.517        2205.925
 -13492095.120 8 -10388148.991 8  22223096.259       -1578.222
  -2200321.232 5  -1746372.683 5  24626617.143       -2296.396
 -16155122.797 7 -11796335.459 8  21999963.952        2934.085
  14684410.034 5   7083743.038 5  25007370.983        3066.864
 -10411297.352 7  -8024093.731 7  22351085.096       -1707.396
 93  5  6  3 45  0.0010000  0  6 16  3 26 20 24 17                   0.001487060
 -15388061.766 7  -9313711.413 8  22104423.354        2221.367
 -13539389.026 8 -10425001.364 8  22214096.421       -1574.753
  -2269179.179 5  -1800028.201 5  24613514.306       -2293.944
 -16066899.184 7 -11727589.837 8  22016752.340        2947.634
  14776412.789 5   7155433.531 5  25024878.077        3066.779
 -10462403.568 7  -8063916.717 7  22341359.657       -1699.603
 93  5  6  3 45 30.0010000  0  6 16  3 26 20 24 17                   0.001493680
 -15321188.214 7  -9261602.158 8  22117149.237        2236.651
 -13586572.435 8 -10461767.631 8  22205118.194       -1571.191
  -2337945.564 5  -1853612.327 5  24600428.856       -2290.661
 -15978262.874 7 -11658522.627 8  22033619.440        2961.212
  14868409.266 5   7227119.043 5  25042384.374        3066.013
 -10513281.810 7  -8103562.057 7  22331677.552       -1692.645
 93  5  6  3 46  0.0010000  0  6 16  3 26 20 24 17                   0.001500290
 -15253847.669 7  -9209129.006 8  22129963.467        2252.777
 -13633652.293 8 -10498453.194 9  22196159.985       -1567.668
  -2406621.087 5  -1907125.677 5  24587360.637       -2287.914
 -15889225.078 7 -11589142.572 8  22050562.960        2974.651
  14960379.542 5   7298784.255 5  25059885.673        3065.316
 -10563954.287 7  -8143047.077 7  22322035.215       -1685.483
 93  5  6  3 46 30.0010000  0  6 16  3 26 20 24 17                   0.001506870
 -15186017.604 7  -9156274.415 8  22142870.830        2269.180
 -13680620.968 7 -10535052.154 9  22187222.087       -1563.765
  -2475219.655 6  -1960579.072 5  24574306.511       -2285.188
 -15799782.163 7 -11519446.823 8  22067583.098        2988.255
  15052326.348 5   7370431.103 5  25077382.669        3064.538
 -10614410.805 7  -8182363.805 7  22312433.463       -1678.271
 93  5  6  3 47  0.0010000  0  6 16  3 26 20 24 17                   0.001513420
 -15117707.740 7  -9103045.957 8  22155869.602        2284.890
 -13727476.791 8 -10571563.159 9  22178305.931       -1560.071
  -2543732.443 6  -2013965.602 5  24561269.583       -2282.216
 -15709936.008 7 -11449436.862 8  22084680.013        3001.547
  15144251.356 5   7442060.941 5  25094875.204        3063.772
 -10664650.342 7  -8221511.453 7  22302873.351       -1670.879
 93  5  6  3 47 30.0010000  0  6 16  3 26 20 24 17                   0.001519940
 -15048925.355 7  -9049449.295 8  22168958.459        2300.612
 -13774218.520 8 -10607985.238 9  22169411.205       -1556.218
  -2612149.307 5  -2067277.405 5  24548249.501       -2278.989
 -15619689.529 7 -11379114.977 8  22101853.297        3014.868
  15236142.802 5   7513664.578 5  25112362.711        3062.175
 -10714660.374 7  -8260480.274 7  22293356.750       -1663.020
 93  5  6  3 48  0.0010000  0  6 16  3 26 20 24 17                   0.001526430
 -14979665.806 7  -8995480.819 8  22182138.516        2316.543
 -13820844.376 7 -10644317.058 9  22160538.729       -1552.409
  -2680472.280 5  -2120516.029 5  24535247.781       -2275.947
 -15529045.133 7 -11308483.004 8  22119102.645        3028.066
  15327983.841 5   7585229.049 5  25129839.538        3060.444
 -10764424.074 7  -8299257.151 7  22283886.949       -1654.605
 93  5  6  3 48 30.0010000  0  6 16  3 26 20 24 17                   0.001532900
 -14909944.847 7  -8941152.817 8  22195405.860        2331.272
 -13867355.245 8 -10680559.285 9  22151688.856       -1548.591
  -2748699.060 5  -2173679.641 5  24522265.105       -2272.411
 -15438007.398 7 -11237544.564 8  22136426.448        3041.053
  15419771.455 5   7656751.796 5  25147306.211        3058.933
 -10813943.388 7  -8337843.586 7  22274464.137       -1646.737
 93  5  6  3 49  0.0010000  0  6 16  3 26 20 24 17                   0.001539370
 -14839796.816 7  -8886492.026 8  22208754.587        2345.254
 -13913753.559 8 -10716713.784 9  22142859.097       -1544.901
  -2816814.660 5  -2226756.707 5  24509302.647       -2268.807
 -15346582.981 7 -11166304.782 8  22153824.348        3053.865
  15511520.648 5   7728244.746 5  25164764.778        3057.624
 -10863223.755 7  -8376243.848 7  22265086.595       -1638.685
 93  5  6  3 49 30.0010000  0  6 16  3 26 20 24 17                   0.001545840
 -14769221.962 7  -8831498.654 8  22222184.703        2359.722
 -13960038.114 8 -10752779.656 9  22134051.136       -1541.021
  -2884821.566 5  -2279749.018 5  24496361.052       -2265.064
 -15254774.714 7 -11094765.911 8  22171295.064        3066.650
  15603231.520 5   7799707.774 5  25182216.944        3056.615
 -10912265.106 7  -8414457.861 7  22255754.362       -1630.683
 93  5  6  3 50  0.0010000  0  5 16  3 26 20 17                      0.001552390
 -14698217.178 7  -8776170.249 8  22235696.445        2374.132
 -14006204.572 8 -10788753.502 9  22125265.126       -1536.801
  -2952717.104 5  -2332654.573 5  24483440.751       -2261.131
 -15162582.145 7 -11022927.565 8  22188838.318        3079.681
 -10961064.443 7  -8452483.283 7  22246467.243       -1622.392
 93  5  6  3 50 30.0010000  0  6 16  3 23 26 20 17                   0.001559200
 -14626788.296 7  -8720511.385 8  22249288.890        2387.942
 -14052249.277 8 -10824632.492 9  22116502.833       -1532.849
 -14257707.71815   -231268.94111  24797466.300       -3221.200
  -3020497.305 5  -2385470.260 5  24470543.338       -2257.264
 -15070005.981 7 -10950790.344 8  22206454.938        3092.274
 -11009613.725 7  -8490313.867 7  22237228.635       -1613.966
 93  5  6  3 51  0.0010000  0  6 16  3 23 26 20 17                   0.001565730
 -14554939.916 7  -8664525.627 8  22262961.275        2402.214
 -14098170.981 8 -10860415.614 9  22107764.124       -1528.767
 -14354307.913 5   -306540.022 2  24779082.310       -3218.719
  -3088156.841 5  -2438191.889 5  24457667.892       -2253.373
 -14977049.116 7 -10878356.454 8  22224144.194        3104.880
 -11057896.174 7  -8527936.511 7  22228040.476       -1604.877
 93  5  6  3 51 30.0010000  0  6 16  3 23 26 20 17                   0.001572250
 -14482644.887 7  -8608191.847 8  22276718.479        2417.380
 -14143963.770 8 -10896098.304 9  22099050.288       -1524.439
 -14450828.990 5   -381751.204 4  24760714.601       -3216.040
  -3155694.982 5  -2490818.883 5  24444815.691       -2249.276
 -14883709.579 7 -10805624.374 8  22241906.048        3117.640
 -11105898.634 7  -8565341.003 7  22218905.769       -1595.480
 93  5  6  3 52  0.0010000  0  6 16  3 23 26 20 17                   0.001578760
 -14409902.454 7  -8551509.431 8  22290561.163        2432.320
 -14189632.708 8 -10931684.475 9  22090359.824       -1520.204
 -14547267.913 5   -456898.360 5  24742363.738       -3212.989
  -3223120.780 5  -2543358.350 5  24431984.987       -2245.488
 -14789996.509 7 -10732601.246 8  22259738.637        3130.080
 -11153635.599 7  -8602538.589 7  22209821.960       -1586.873
 93  5  6  3 52 30.0010000  0  6 16  3 23 26 20 17                   0.001585250
 -14336712.890 7  -8494478.597 8  22304488.644        2447.026
 -14235176.162 8 -10967172.865 9  22081693.451       -1516.134
 -14643612.690 5   -531972.123 5  24724029.908       -3209.689
  -3290420.936 5  -2595799.942 5  24419178.068       -2241.102
 -14695912.480 7 -10659289.057 8  22277642.561        3142.301
 -11201120.761 7  -8639539.974 7  22200785.952       -1578.847
 93  5  6  3 53  0.0010000  0  6 16  3 23 26 20 17                   0.001591750
 -14263073.409 7  -8437097.194 8  22318501.955        2462.388
 -14280590.957 8 -11002561.008 9  22073051.654       -1511.710
 -14739845.735 5   -606958.875 5  24705717.211       -3205.647
  -3357582.147 5  -2648133.320 5  24406397.745       -2236.336
 -14601458.662 7 -10585688.712 8  22295616.668        3154.689
 -11248369.018 7  -8676356.751 7  22191794.821       -1571.159
 93  5  6  3 53 30.0010000  0  6 16  3 23 26 20 17                   0.001598250
 -14188973.036 7  -8379356.634 8  22332602.271        2477.674
 -14325878.082 8 -11037849.675 9  22064433.813       -1507.390
 -14835953.960 5   -681848.276 5  24687428.441       -3201.240
  -3424601.298 5  -2700355.941 5  24393644.379       -2231.410
 -14506640.426 7 -10511804.423 8  22313659.975        3166.785
 -11295401.342 7  -8713005.273 7  22182845.096       -1564.118
 93  5  6  3 54  0.0010000  0  6 16  3 23 26 20 17                   0.001604770
 -14114424.188 7  -8321266.637 8  22346788.740        2492.056
 -14371030.580 8 -11073033.429 9  22055841.137       -1503.064
 -14931926.382 5   -756631.892 5  24669164.821       -3196.907
  -3491460.004 5  -2752453.566 5  24380921.490       -2225.909
 -14411455.101 7 -10437634.082 8  22331773.295        3178.816
 -11342216.935 7  -8749484.888 7  22173936.147       -1556.928
 93  5  6  3 54 30.0010000  0  6 16  3 23 26 20 17                   0.001611320
 -14039448.401 7  -8262843.937 8  22361056.293        2506.405
 -14416052.465 8 -11108115.398 9  22047273.620       -1498.563
 -15027770.593 5   -831315.642 5  24650926.688       -3192.548
  -3558154.076 5  -2804422.911 5  24368230.207       -2220.414
 -14315910.960 7 -10363184.137 8  22349954.626        3190.826
 -11388804.286 7  -8785786.673 7  22165071.171       -1548.740
 93  5  6  3 55  0.0010000  0  6 16  3 23 26 20 17                   0.001617880
 -13964038.686 7  -8204083.125 8  22375406.220        2520.904
 -14460938.344 8 -11143091.393 9  22038732.061       -1494.084
 -15123483.943 5   -905897.322 5  24632713.951       -3188.371
  -3624689.833 5  -2856268.882 5  24355569.002       -2215.427
 -14220006.628 7 -10288453.528 8  22368204.423        3202.719
 -11435135.316 7  -8821888.738 7  22156254.670       -1539.931
 93  5  6  3 55 30.0010000  0  6 16  3 23 26 20 17                   0.001624450
 -13888195.872 7  -8144984.816 7  22389838.446        2535.387
 -14505688.174 8 -11177961.372 9  22030216.238       -1489.323
 -15219074.128 5   -980383.086 5  24614523.031       -3184.291
  -3691079.237 6  -2908000.788 5  24342934.967       -2210.452
 -14123746.518 7 -10213445.700 8  22386522.301        3214.736
 -11481192.840 7  -8857777.654 7  22147490.700       -1530.344
 93  5  6  3 56  0.0010000  0  7 16  3 22 23 26 20 17                0.001631100
 -13811926.820 7  -8085554.398 7  22404352.177        2549.523
 -14550298.722 8 -11212722.825 9  22021726.320       -1484.777
  -2378981.85115  -1861032.39915  25254273.030       -2409.330
 -15314550.507 5  -1054780.147 5  24596353.519       -3180.681
  -3757329.503 5  -2959624.307 5  24330328.166       -2206.129
 -14027131.633 7 -10138161.409 8  22404907.939        3226.413
 -11526963.366 7  -8893442.956 7  22138780.741       -1520.854
 93  5  6  3 56 30.0010000  0  7 16  3 22 23 26 20 17                0.001637650
 -13735220.260 7  -8025783.039 7  22418948.984        2564.476
 -14594768.816 8 -11247374.831 9  22013263.786       -1480.028
  -2451107.078 5  -1917233.910 5  25240547.292       -2398.680
 -15409917.588 5  -1129092.063 5  24578206.294       -3176.790
  -3823450.394 5  -3011147.038 5  24317745.286       -2201.812
 -13930164.980 7 -10062602.996 8  22423360.010        3238.138
 -11572446.283 7  -8928884.148 7  22130125.783       -1511.234
 93  5  6  3 57  0.0010000  0  7 16  3 22 23 26 20 17                0.001644180
 -13658065.878 7  -7965662.746 7  22433630.862        2579.143
 -14639097.238 8 -11281916.432 9  22004828.905       -1475.450
  -2522914.624 5  -1973187.792 5  25226882.403       -2388.574
 -15505163.417 5  -1203309.491 5  24560082.306       -3172.885
  -3889437.365 5  -3062565.368 5  24305188.460       -2197.348
 -13832849.796 7  -9986773.016 8  22441878.429        3249.495
 -11617652.817 7  -8964109.961 7  22121522.839       -1502.689
 93  5  6  3 57 30.0010000  0  7 16  3 22 23 26 20 17                0.001650700
 -13580469.432 7  -7905197.996 7  22448396.780        2593.758
 -14683284.332 8 -11316347.896 9  21996420.394       -1470.701
  -2594429.981 5  -2028914.049 5  25213273.540       -2379.097
 -15600289.635 5  -1277433.681 5  24541981.053       -3169.016
  -3955285.306 5  -3113875.335 5  24292657.563       -2192.520
 -13735190.789 7  -9910675.127 8  22460462.732        3260.937
 -11662608.769 7  -8999140.538 7  22112967.473       -1494.633
 93  5  6  3 58  0.0010000  0  7 16  3 22 23 26 20 17                0.001657200
 -13502435.341 7  -7844392.211 7  22463246.539        2608.282
 -14727327.091 8 -11350666.912 9  21988039.768       -1465.804
  -2665648.629 5  -2084409.087 5  25199720.979       -2368.899
 -15695292.999 5  -1351462.158 5  24523901.634       -3164.519
  -4020975.754 5  -3165062.689 5  24280157.340       -2186.807
 -13637189.305 7  -9834310.382 8  22479111.943        3272.362
 -11707332.548 7  -9033990.185 8  22104457.502       -1487.162
 93  5  6  3 58 30.0010000  0  7 16  3 22 23 26 20 17                0.001663700
 -13423975.352 7  -7783254.563 7  22478176.903        2622.207
 -14771226.800 8 -11384874.441 9  21979686.071       -1460.943
  -2736558.448 5  -2139663.453 5  25186227.471       -2358.190
 -15790163.185 5  -1425386.901 5  24505849.679       -3159.968
  -4086490.450 5  -3216112.963 5  24267690.058       -2180.675
 -13538851.061 7  -9757683.227 8  22497825.083        3283.572
 -11751838.963 7  -9068670.482 8  22095988.678       -1479.775
 93  5  6  3 59  0.0010000  0  7 16  3 22 23 26 20 17                0.001670210
 -13345115.911 7  -7721805.660 7  22493183.213        2635.060
 -14814982.663 8 -11418969.888 9  21971359.564       -1456.222
  -2807144.611 5  -2194665.595 5  25172796.046       -2347.473
 -15884894.658 5  -1499203.529 5  24487822.455       -3155.593
  -4151818.673 5  -3267017.970 5  24255258.513       -2174.426
 -13440179.919 7  -9680796.666 7  22516601.592        3294.617
 -11796128.000 7  -9103181.381 8  22087560.033       -1472.708
 93  5  6  3 59 30.0010000  0  7 16  3 22 23 26 20 17                0.001676730
 -13265872.076 7  -7660057.206 7  22508262.756        2647.607
 -14858588.258 8 -11452948.243 9  21963060.990       -1451.210
  -2877403.354 5  -2249412.627 5  25159426.627       -2336.310
 -15979497.901 5  -1572920.231 5  24469819.362       -3151.329
  -4216956.916 5  -3317774.986 5  24242863.536       -2168.180
 -13341173.633 7  -9603648.965 7  22535441.847        3305.682
 -11840190.988 7  -9137516.140 8  22079175.596       -1464.975
 93  5  6  4  0  0.0010000  0  7 16  3 22 23 26 20 17                0.001683260
 -13186259.147 7  -7598021.152 7  22523412.567        2659.838
 -14902044.279 8 -11486810.055 9  21954791.104       -1446.159
  -2947316.242 5  -2303890.137 5  25146122.184       -2324.628
 -16073962.498 5  -1646528.887 5  24451843.825       -3146.450
  -4281904.567 5  -3368383.444 5  24230504.632       -2161.902
 -13241837.238 7  -9526244.012 7  22554344.641        3316.656
 -11884017.952 7  -9171666.991 8  22070835.148       -1456.830
 93  5  6  4  0 30.0010000  0  7 16  3 22 23 26 20 17                0.001689800
 -13106279.208 7  -7535699.125 7  22538632.648        2672.012
 -14945348.355 8 -11520553.459 9  21946551.361       -1441.269
  -3016878.576 5  -2358094.496 5  25132884.777       -2313.049
 -16168286.193 5  -1720027.786 5  24433893.517       -3142.066
  -4346671.089 5  -3418850.763 5  24218179.695       -2156.322
 -13142173.124 7  -9448583.695 7  22573309.908        3327.335
 -11927593.417 7  -9205621.878 8  22062542.700       -1448.361
 93  5  6  4  1  0.0010000  0  7 16  3 22 23 26 20 17                0.001696340
 -13025922.914 7  -7473083.850 7  22553923.751        2684.985
 -14988501.020 8 -11554178.874 9  21938339.604       -1436.044
  -3086090.564 5  -2412025.846 5  25119713.984       -2301.250
 -16262472.673 5  -1793419.731 5  24415970.819       -3137.318
  -4411270.862 5  -3469188.237 5  24205886.978       -2150.538
 -13042186.050 7  -9370671.736 7  22592336.851        3338.201
 -11970909.115 7  -9239374.360 8  22054299.325       -1439.680
 93  5  6  4  1 30.0010000  0  7 16  3 22 23 26 20 17                0.001702880
 -12945172.312 7  -7410161.299 7  22569289.876        2698.351
 -15031500.841 8 -11587685.203 9  21930157.112       -1430.946
  -3154958.221 5  -2465688.874 5  25106608.754       -2289.918
 -16356516.523 5  -1866700.499 5  24398074.640       -3132.269
  -4475702.844 6  -3519394.835 5  24193625.709       -2144.936
 -12941879.208 7  -9292510.601 7  22611424.497        3348.748
 -12013964.207 7  -9272923.747 8  22046106.104       -1430.863
 93  5  6  4  2  0.0010000  0  7 16  3 22 23 26 20 17                0.001709420
 -12864021.186 7  -7346926.649 7  22584732.467        2711.969
 -15074353.353 8 -11621076.751 9  21922003.023       -1425.766
  -3223482.942 5  -2519084.729 5  25093569.667       -2278.317
 -16450409.294 5  -1939863.614 5  24380207.955       -3127.124
  -4539967.470 6  -3569471.081 5  24181396.281       -2139.143
 -12841262.865 6  -9214108.306 7  22630571.883        3359.308
 -12056761.340 7  -9306272.150 8  22037960.926       -1421.924
 93  5  6  4  2 30.0010000  0  7 16  3 22 23 26 20 17                0.001715940
 -12782461.268 7  -7283373.475 7  22600252.832        2725.495
 -15117049.254 8 -11654346.267 9  21913878.570       -1420.660
  -3291669.737 6  -2572217.219 5  25080593.843       -2267.306
 -16544154.545 5  -2012911.799 5  24362367.843       -3122.395
  -4604055.553 6  -3619409.781 5  24169201.010       -2133.204
 -12740331.875 7  -9135460.808 7  22649777.794        3369.544
 -12099287.017 7  -9339409.021 8  22029868.420       -1412.963
 93  5  6  4  3  0.0010000  0  7 16  3 22 23 26 20 17                0.001722460
 -12700493.139 7  -7219502.201 7  22615850.970        2738.933
 -15159585.506 8 -11687491.366 9  21905784.011       -1415.206
  -3359524.381 5  -2625090.859 5  25067681.632       -2256.297
 -16637743.006 5  -2085837.814 5  24344558.944       -3116.911
  -4667951.402 6  -3669198.677 5  24157041.587       -2126.321
 -12639088.058 7  -9056569.568 7  22669043.463        3380.076
 -12141542.170 7  -9372335.103 8  22021828.012       -1404.137
 93  5  6  4  3 30.0010000  0  7 16  3 22 23 26 20 17                0.001728960
 -12618132.975 7  -7155325.451 7  22631523.873        2751.496
 -15201963.035 8 -11720512.798 9  21897719.394       -1410.290
  -3427057.788 5  -2677714.267 5  25054830.458       -2246.062
 -16731176.391 5  -2158642.966 5  24326779.342       -3112.065
  -4731635.599 5  -3718822.612 5  24144922.649       -2119.450
 -12537536.752 7  -8977438.695 7  22688369.008        3389.858
 -12183543.810 7  -9405063.627 8  22013835.918       -1396.237
 93  5  6  4  4  0.0010000  0  7 16  3 22 23 26 20 17                0.001735460
 -12535398.511 7  -7090857.039 7  22647267.382        2764.027
 -15244186.659 8 -11753414.315 9  21889684.346       -1404.913
  -3494265.492 5  -2730083.883 5  25042040.802       -2234.668
 -16824465.859 5  -2231335.953 5  24309027.703       -3107.324
  -4795112.965 5  -3768285.380 5  24132843.192       -2112.445
 -12435687.247 7  -8898075.492 7  22707750.640        3399.961
 -12225312.550 7  -9437610.694 8  22005888.241       -1388.520
 93  5  6  4  4 30.0010000  0  7 16  3 22 23 26 20 17                0.001741960
 -12452289.336 7  -7026096.650 7  22663082.564        2776.757
 -15286252.152 8 -11786192.596 9  21881679.136       -1399.596
  -3561137.342 5  -2782191.804 5  25029315.616       -2223.164
 -16917613.457 5  -2303918.499 5  24291301.222       -3102.299
  -4858376.866 5  -3817581.874 5  24120805.005       -2105.092
 -12333539.868 6  -8818480.164 7  22727188.497        3409.870
 -12266861.154 7  -9469986.216 8  21997981.634       -1381.349
 93  5  6  4  5  0.0010000  0  7 16  3 22 23 26 20 17                0.001748470
 -12368784.602 7  -6961028.039 7  22678972.751        2789.852
 -15328145.927 8 -11818837.076 9  21873707.067       -1393.869
  -3627640.513 5  -2834012.390 5  25016659.529       -2210.797
 -17010593.870 5  -2376370.616 5  24273607.206       -3096.715
  -4921405.587 5  -3866695.050 5  24108810.916       -2097.302
 -12231085.755 7  -8738645.841 7  22746685.137        3420.032
 -12308190.294 7  -9502190.711 8  21990117.458       -1374.351
 93  5  6  4  5 30.0010000  0  7 16  3 22 23 26 20 17                0.001755010
 -12284892.148 7  -6895657.298 7  22694936.712        2802.818
 -15369873.220 8 -11851351.826 9  21865766.895       -1388.368
  -3693779.280 5  -2885549.074 5  25004074.122       -2198.628
 -17103412.756 5  -2448696.961 5  24255944.484       -3091.470
  -4984216.850 5  -3915638.782 5  24096858.382       -2090.521
 -12128335.072 7  -8658580.382 7  22766237.709        3429.844
 -12349312.625 7  -9534234.059 8  21982292.387       -1367.204
 93  5  6  4  6  0.0010000  0  7 16  3 22 23 26 20 17                0.001761550
 -12200609.196 7  -6829982.285 7  22710975.606        2816.053
 -15411434.288 8 -11883737.069 9  21857858.750       -1382.619
  -3759542.529 5  -2936793.174 5  24991560.062       -2185.760
 -17196074.192 5  -2520900.663 5  24238311.263       -3086.080
  -5046842.155 6  -3964437.639 5  24084940.232       -2084.408
 -12025292.617 7  -8578287.604 7  22785846.157        3439.645
 -12390209.623 7  -9566101.838 8  21974509.581       -1359.095
 93  5  6  4  6 30.0010000  0  7 16  3 22 23 26 20 17                0.001768090
 -12115934.278 7  -6764001.826 7  22727088.772        2828.978
 -15452827.229 8 -11915991.294 9  21849981.651       -1377.057
  -3824931.117 5  -2987745.293 5  24979117.026       -2173.327
 -17288573.098 5  -2592977.671 5  24220710.340       -3080.397
  -5109276.599 5  -4013087.788 5  24073059.457       -2077.982
 -11921960.716 7  -8497769.269 7  22805509.124        3449.189
 -12430857.761 7  -9597775.689 8  21966775.009       -1350.618
 93  5  6  4  7  0.0010000  0  7 16  3 22 23 26 20 17                0.001774630
 -12030881.930 7  -6697727.270 7  22743273.450        2841.041
 -15494054.420 8 -11948116.360 9  21842136.052       -1371.677
  -3889953.487 5  -3038412.062 5  24966744.536       -2161.628
 -17380905.784 5  -2664925.174 5  24203139.736       -3075.257
  -5171524.351 5  -4061592.448 5  24061214.344       -2071.973
 -11818346.434 6  -8417030.895 7  22825226.487        3458.385
 -12471249.029 7  -9629249.346 8  21959087.971       -1342.195
 93  5  6  4  7 30.0010000  0  7 16  3 22 23 26 20 17                0.001781150
 -11945463.660 7  -6631167.578 7  22759527.988        2853.322
 -15535109.500 8 -11980107.318 9  21834323.611       -1365.715
  -3954616.467 6  -3088798.824 5  24954439.878       -2149.307
 -17473079.427 5  -2736748.731 5  24185599.871       -3069.845
  -5233577.929 5  -4109945.790 5  24049406.405       -2065.092
 -11714448.277 6  -8336071.308 7  22844997.457        3467.994
 -12511373.329 7  -9660515.006 8  21951451.965       -1332.946
 93  5  6  4  8  0.0010000  0  7 16  3 22 23 26 20 17                0.001787660
 -11859680.248 7  -6564323.372 7  22775852.009        2865.493
 -15575991.538 8 -12011963.425 9  21826543.586       -1359.941
  -4018910.931 5  -3138898.330 5  24942204.478       -2137.054
 -17565095.995 5  -2808449.934 5  24168089.062       -3064.436
  -5295417.177 5  -4158132.138 5  24037638.629       -2057.373
 -11610270.025 6  -8254893.468 7  22864821.455        3477.244
 -12551226.254 7  -9691569.169 8  21943868.754       -1323.983
 93  5  6  4  8 30.0010000  0  7 16  3 22 23 26 20 17                0.001794170
 -11773540.008 7  -6497201.109 7  22792244.286        2877.086
 -15616699.549 8 -12043683.930 9  21818797.653       -1354.133
  -4082846.363 5  -3188718.163 5  24930037.234       -2125.269
 -17656942.179 5  -2880018.341 5  24150611.271       -3058.682
  -5357011.467 6  -4206127.656 5  24025917.546       -2048.829
 -11505815.530 6  -8173500.387 7  22884698.422        3486.400
 -12590819.096 7  -9722420.708 8  21936334.243       -1315.509
 93  5  6  4  9  0.0010000  0  7 16  3 22 23 26 20 17                0.001800670
 -11687058.436 7  -6429812.885 7  22808700.901        2888.418
 -15657234.346 8 -12075269.465 9  21811084.130       -1348.286
  -4146431.082 5  -3238264.734 5  24917937.386       -2113.532
 -17748622.578 5  -2951457.543 5  24133165.206       -3053.283
  -5418350.343 6  -4253924.113 5  24014245.518       -2040.285
 -11401089.886 6  -8091896.011 7  22904627.373        3495.413
 -12630158.182 7  -9753074.480 8  21928847.743       -1306.965
 93  5  6  4  9 30.0010000  0  7 16  3 22 23 26 20 17                0.001807170
 -11600231.998 7  -6362155.934 7  22825224.058        2900.080
 -15697588.839 8 -12106714.497 9  21803404.857       -1342.155
  -4209653.820 5  -3287529.132 5  24905906.729       -2101.323
 -17840132.934 5  -3022764.274 5  24115751.670       -3047.308
  -5479432.076 6  -4301520.184 5  24002621.482       -2031.887
 -11296091.295 6  -8010078.928 7  22924608.123        3504.523
 -12669232.890 7  -9783522.258 9  21921412.615       -1297.925
 93  5  6  4 10  0.0010000  0  7 16  3 22 23 26 20 17                0.001813660
 -11513055.432 7  -6294226.160 7  22841812.932        2911.558
 -15737759.481 8 -12138016.281 9  21795760.470       -1336.070
  -4272506.988 5  -3336505.618 5  24893946.559       -2088.942
 -17931462.949 5  -3093930.472 5  24098371.102       -3041.347
  -5540270.376 5  -4348926.584 5  23991044.316       -2024.014
 -11190820.645 6  -7928049.885 7  22944640.626        3513.499
 -12708036.316 7  -9813758.643 9  21914028.875       -1288.969
 93  5  6  4 10 30.0010000  0  7 16  3 22 23 26 20 17                0.001820130
 -11425542.001 7  -6226033.891 7  22858466.220        2922.636
 -15777746.625 8 -12169175.054 9  21788150.928       -1329.982
  -4334993.706 5  -3385196.577 5  24882055.431       -2076.677
 -18022617.368 5  -3164959.797 5  24081025.566       -3035.688
  -5600871.659 5  -4396148.278 5  23979511.360       -2016.082
 -11085283.056 6  -7845812.807 7  22964723.794        3522.329
 -12746577.709 7  -9843790.844 9  21906694.841       -1280.469
 93  5  6  4 11  0.0010000  0  7 16  3 22 23 26 20 17                0.001826590
 -11337689.698 7  -6157577.550 7  22875183.789        2934.222
 -15817550.908 8 -12200191.351 9  21780576.132       -1323.975
  -4397104.710 5  -3433594.751 5  24870235.479       -2064.081
 -18113604.025 6  -3235858.425 5  24063711.348       -3029.976
  -5661244.250 6  -4443191.772 5  23968023.194       -2008.913
 -10979484.256 6  -7763372.222 7  22984855.954        3530.827
 -12784869.195 7  -9873628.299 9  21899407.996       -1272.558
 93  5  6  4 11 30.0010000  0  7 16  3 22 23 26 20 17                0.001833060
 -11249476.440 7  -6088839.946 7  22891970.098        2946.597
 -15857167.951 8 -12231061.740 9  21773037.240       -1317.469
  -4458827.817 5  -3481690.638 5  24858489.628       -2050.839
 -18204406.661 6  -3306613.673 5  24046432.648       -3023.661
  -5721394.272 6  -4490061.858 5  23956577.153       -2000.991
 -10873424.200 6  -7680728.037 7  23005038.555        3539.744
 -12822928.352 7  -9903284.775 9  21892165.430       -1264.927
 93  5  6  4 12  0.0010000  0  7 16  3 22 23 26 20 17                0.001839540
 -11160895.184 7  -6019815.592 7  22908826.691        2958.669
 -15896589.145 8 -12261779.512 9  21765536.054       -1311.029
  -4520152.752 5  -3529476.292 5  24846820.536       -2037.706
 -18295022.418 6  -3377223.266 5  24029188.997       -3017.482
  -5781288.690 5  -4536732.770 5  23945179.900       -1992.032
 -10767099.228 6  -7597877.430 7  23025271.804        3548.408
 -12860766.248 7  -9932768.816 9  21884965.373       -1257.765
 93  5  6  4 12 30.0010000  0  7 16  3 22 23 26 20 17                0.001846040
 -11071959.991 7  -5950515.447 7  22925750.530        2970.392
 -15935822.956 8 -12292351.279 9  21758070.541       -1304.692
  -4581085.984 5  -3576956.709 5  24835225.493       -2024.481
 -18385449.844 5  -3447686.144 5  24011982.200       -3010.845
  -5840914.526 6  -4583194.326 5  23933833.312       -1983.041
 -10660522.454 7  -7514830.612 7  23045552.901        3556.759
 -12898395.396 7  -9962090.175 9  21877804.860       -1250.588
 93  5  6  4 13  0.0010000  0  7 16  3 22 23 26 20 17                0.001852550
 -10982678.081 7  -5880945.137 7  22942740.530        2981.669
 -15974867.054 8 -12322775.207 9  21750640.444       -1298.453
  -4641626.344 5  -3624130.952 5  24823704.409       -2011.506
 -18475672.291 5  -3517989.251 5  23994813.710       -3004.032
  -5900287.395 5  -4629458.840 5  23922535.324       -1975.154
 -10553696.267 6  -7431589.454 6  23065881.930        3564.940
 -12935797.053 7  -9991234.303 9  21870687.288       -1242.790
 93  5  6  4 13 30.0010000  0  7 16  3 22 23 26 20 17                0.001859060
 -10893068.205 7  -5811119.251 7  22959792.357        2992.192
 -16013718.569 8 -12353049.087 9  21743247.870       -1291.971
  -4701770.026 5  -3670996.119 5  24812258.734       -1998.161
 -18565687.429 6  -3588130.818 5  23977682.693       -2997.234
  -5959409.016 6  -4675527.604 5  23911284.563       -1966.506
 -10446622.877 6  -7348155.638 6  23086257.763        3573.155
 -12972951.076 7 -10020185.458 9  21863616.743       -1234.166
 93  5  6  4 14  0.0010000  0  7 16  3 22 23 26 20 17                0.001865570
 -10803148.440 7  -5741051.917 7  22976903.665        3002.470
 -16052372.093 8 -12383168.664 9  21735891.898       -1285.151
  -4761513.620 5  -3717549.557 5  24800890.309       -1984.719
 -18655497.924 6  -3658112.932 5  23960592.614       -2989.965
  -6018273.162 6  -4721395.706 5  23900082.510       -1957.927
 -10339301.475 6  -7264528.613 6  23106680.222        3581.563
 -13009833.152 7 -10048924.690 9  21856598.224       -1224.582
 93  5  6  4 14 30.0010000  0  7 16  3 22 23 26 20 17                0.001872070
 -10712923.325 7  -5670746.632 7  22994073.402        3012.480
 -16090824.583 8 -12413131.614 9  21728574.573       -1278.567
  -4820855.862 5  -3763790.244 5  24789598.320       -1971.353
 -18745092.391 6  -3727926.737 5  23943543.487       -2983.010
  -6076897.048 6  -4767076.598 5  23888927.112       -1950.280
 -10231734.041 6  -7180709.852 6  23127149.668        3589.606
 -13046431.423 7 -10077442.794 9  21849634.123       -1215.319
 93  5  6  4 15  0.0010000  0  7 16  3 22 23 26 20 17                0.001878560
 -10622389.514 7  -5600200.791 7  23011301.165        3023.212
 -16129077.073 8 -12442938.705 9  21721295.163       -1271.965
  -4879795.458 5  -3809717.146 5  24778381.945       -1957.936
 -18834482.220 6  -3797581.067 5  23926533.744       -2976.433
  -6135275.263 6  -4812566.031 5  23877817.783       -1941.486
 -10123926.676 6  -7096704.138 6  23147664.492        3597.446
 -13082759.077 7 -10105750.011 9  21842721.076       -1206.732
 93  5  6  4 15 30.0010000  0  7 16  3 22 23 26 20 17                0.001885050
 -10531523.554 7  -5529396.166 7  23028592.164        3034.456
 -16167133.050 8 -12472592.691 9  21714053.312       -1265.493
  -4938332.753 5  -3855330.604 5  24767243.364       -1944.705
 -18923685.613 6  -3867090.100 5  23909558.585       -2970.383
  -6193372.840 5  -4857836.810 5  23866762.321       -1931.955
 -10015887.407 6  -7012517.717 6  23168223.643        3605.017
 -13118841.294 7 -10133866.018 9  21835855.054       -1198.975
 93  5  6  4 16  0.0010000  0  7 16  3 22 23 26 20 17                0.001891550
 -10440306.552 7  -5458317.952 7  23045950.531        3046.469
 -16204987.489 8 -12502089.613 9  21706849.721       -1258.562
  -4996470.236 6  -3900632.514 5  24756179.685       -1931.304
 -19012699.629 6  -3936451.586 5  23892620.106       -2963.833
  -6251180.428 5  -4902881.610 5  23855761.011       -1922.089
  -9907616.388 6  -6928150.722 6  23188826.651        3612.851
 -13154690.267 7 -10161800.246 9  21829032.898       -1191.108
 93  5  6  4 16 30.0010000  0  7 16  3 22 23 26 20 17                0.001898060
 -10348731.304 7  -5386960.611 7  23063376.529        3058.529
 -16242640.599 8 -12531429.676 9  21699684.101       -1251.901
  -5054213.775 5  -3945627.454 5  24745191.891       -1918.110
 -19101521.433 5  -4005663.357 6  23875717.700       -2957.582
  -6308691.718 6  -4947695.537 5  23844816.801       -1911.987
  -9799118.466 6  -6843606.917 6  23209472.404        3620.291
 -13190313.583 7 -10189558.659 9  21822253.667       -1183.759
 93  5  6  4 17  0.0010000  0  7 16  3 22 23 26 20 17                0.001904570
 -10256793.041 7  -5315320.423 7  23080871.847        3070.544
 -16280089.112 8 -12560610.304 9  21692557.974       -1244.989
  -5111562.076 6  -3990314.443 5  24734279.143       -1905.069
 -19190151.747 6  -4074725.856 6  23858851.982       -2951.147
  -6365895.092 5  -4992269.542 5  23833931.055       -1901.917
  -9690395.204 6  -6758887.504 6  23230162.647        3627.841
 -13225710.067 7 -10217140.306 9  21815518.321       -1176.069
 93  5  6  4 17 30.0010000  0  7 16  3 22 23 26 20 17                0.001911090
 -10164508.390 7  -5243410.291 7  23098432.980        3081.421
 -16317328.355 8 -12589627.882 9  21685471.789       -1237.929
  -5168511.206 6  -4034690.340 5  24723442.647       -1891.602
 -19278582.327 5  -4143632.738 6  23842024.102       -2944.158
  -6422813.929 5  -5036621.821 5  23823099.751       -1892.981
  -9581446.971 6  -6673992.793 6  23250894.802        3635.364
 -13260874.631 7 -10244541.251 9  21808826.686       -1168.296
 93  5  6  4 18  0.0010000  0  7 16  3 22 23 26 20 17                0.001917600
 -10071916.361 7  -5171260.680 7  23116052.290        3091.241
 -16354357.856 8 -12618482.006 9  21678425.940       -1230.957
  -5225061.627 5  -4078755.631 5  24712681.430       -1878.321
 -19366798.299 6  -4212372.364 6  23825236.740       -2936.856
  -6479477.567 5  -5080775.224 5  23812317.004       -1884.471
  -9472278.211 6  -6588926.244 6  23271669.171        3642.574
 -13295802.429 7 -10271757.686 9  21802180.174       -1160.158
 93  5  6  4 18 30.0010000  0  7 16  3 22 23 26 20 17                0.001924090
  -9979030.830 7  -5098882.342 7  23133728.112        3101.116
 -16391175.536 8 -12647171.078 9  21671419.351       -1223.746
  -5281209.668 6  -4122507.352 5  24701996.305       -1864.588
 -19454790.953 6  -4280938.009 6  23808492.652       -2929.295
  -6535884.258 6  -5124728.389 5  23801583.396       -1875.921
  -9362891.807 6  -6503690.101 6  23292484.470        3649.927
 -13330486.726 7 -10298784.375 9  21795579.904       -1152.085
 93  5  6  4 19  0.0010000  0  7 16  3 22 23 26 20 17                0.001930580
  -9885860.714 7  -5026282.275 7  23151457.912        3110.195
 -16427778.010 8 -12675692.473 9  21664454.043       -1216.666
  -5336943.509 6  -4165936.272 5  24691390.159       -1850.915
 -19542559.345 6  -4349328.906 6  23791791.037       -2922.038
  -6592037.240 6  -5168483.883 5  23790898.073       -1867.669
  -9253289.036 6  -6418285.398 6  23313340.879        3656.873
 -13364931.442 7 -10325624.397 9  21789024.802       -1144.209
 93  5  6  4 19 30.0010000  0  7 16  3 22 23 26 20 17                0.001937050
  -9792418.746 7  -4953470.334 7  23169239.319        3119.420
 -16464166.878 8 -12704047.416 9  21657528.815       -1209.371
  -5392258.865 6  -4209039.146 5  24680864.824       -1836.836
 -19630111.932 6  -4417551.615 6  23775129.767       -2914.667
  -6647937.162 6  -5212042.207 5  23780261.188       -1858.676
  -9143476.487 6  -6332717.190 6  23334237.352        3664.036
 -13399136.507 7 -10352277.679 9  21782516.508       -1135.994
 93  5  6  4 20  0.0010000  0  7 16  3 22 23 26 20 17                0.001943520
  -9698694.625 7  -4880438.544 6  23187073.900        3128.999
 -16500339.392 8 -12732233.787 9  21650645.809       -1202.192
  -5447152.765 6  -4251813.617 5  24670418.632       -1822.663
 -19717447.234 6  -4485605.017 6  23758509.664       -2907.635
  -6703553.128 6  -5255379.244 5  23769677.872       -1848.855
  -9033456.535 6  -6246987.378 6  23355174.208        3670.763
 -13433087.293 7 -10378732.817 9  21776055.643       -1127.429
 93  5  6  4 20 30.0010000  0  7 16  3 22 23 26 20 17                0.001949990
  -9604677.466 6  -4807178.425 6  23204965.150        3138.773
 -16536293.815 8 -12760250.212 9  21643804.175       -1195.056
  -5501613.259 6  -4294250.338 5  24660055.569       -1808.112
 -19804576.983 6  -4553498.230 6  23741929.423       -2901.155
  -6758865.561 6  -5298479.788 6  23759152.952       -1838.757
  -8923232.223 6  -6161098.345 6  23376149.098        3677.373
 -13466786.798 7 -10404992.161 9  21769643.419       -1119.306
 93  5  6  4 21  0.0010000  0  7 16  3 22 23 26 20 17                0.001956470
  -9510365.844 7  -4733688.854 6  23222912.461        3148.776
 -16572029.067 8 -12788095.853 9  21637003.914       -1187.487
  -5555629.870 6  -4336341.177 5  24649775.798       -1792.984
 -19891508.718 6  -4621237.158 6  23725386.956       -2894.291
  -6813866.474 6  -5341337.587 6  23748686.589       -1827.920
  -8812807.578 6  -6075053.222 6  23397162.632        3684.332
 -13500235.101 7 -10431055.720 9  21763277.556       -1110.552
 93  5  6  4 21 30.0010000  0  7 16  3 22 23 26 20 17                0.001962970
  -9415755.415 7  -4659966.453 6  23240915.557        3158.669
 -16607542.195 8 -12815768.417 9  21630245.564       -1180.245
  -5609197.961 6  -4378082.547 5  24639581.543       -1778.224
 -19978234.177 6  -4688815.376 6  23708883.642       -2887.264
  -6868544.837 6  -5383944.054 6  23738281.358       -1817.258
  -8702184.432 6  -5988853.374 6  23418212.878        3690.649
 -13533431.003 8 -10456922.657 9  21756961.308       -1102.571
 93  5  6  4 22  0.0010000  0  7 16  3 22 23 26 20 17                0.001969480
  -9320842.274 6  -4586008.137 6  23258976.867        3168.781
 -16642835.209 8 -12843269.453 9  21623529.329       -1172.861
  -5662328.160 6  -4419482.658 5  24629471.235       -1763.641
 -20064744.888 6  -4756226.221 6  23692420.639       -2880.184
  -6922907.794 6  -5426304.731 6  23727935.598       -1806.914
  -8591369.771 6  -5902504.325 6  23439300.689        3696.976
 -13566386.973 7 -10482602.593 9  21750689.760       -1094.555
 93  5  6  4 22 30.0010000  0  7 16  3 22 23 26 20 17                0.001976000
  -9225621.459 6  -4511810.125 6  23277097.658        3179.402
 -16677902.869 8 -12870594.907 9  21616856.412       -1165.174
  -5715018.156 6  -4460539.793 5  24619444.652       -1749.028
 -20151038.170 6  -4823467.691 6  23675999.878       -2872.616
  -6976958.395 6  -5468422.037 6  23717650.644       -1796.505
  -8480363.702 6  -5816006.122 6  23460424.385        3703.442
 -13599104.040 7 -10508096.395 9  21744463.182       -1086.347
 93  5  6  4 23  0.0010000  0  7 16  3 22 23 26 20 17                0.001982520
  -9130082.839 7  -4437364.431 6  23295277.851        3189.898
 -16712741.634 8 -12897741.992 9  21610226.951       -1157.540
  -5767279.282 6  -4501262.706 5  24609499.617       -1735.002
 -20237093.264 6  -4890523.519 6  23659623.164       -2864.395
  -7030704.378 6  -5510301.974 6  23707422.961       -1786.443
  -8369167.304 6  -5729359.617 6  23481584.407        3709.711
 -13631568.646 7 -10533393.453 9  21738284.740       -1077.810
 93  5  6  4 23 30.0010000  0  7 16  3 22 23 26 20 17                0.001989040
  -9034227.140 6  -4362671.691 6  23313518.198        3200.498
 -16747349.666 8 -12924709.279 9  21603641.399       -1149.792
  -5819124.803 5  -4541661.749 5  24599634.359       -1721.325
 -20322899.833 6  -4957385.714 6  23643295.528       -2855.982
  -7084147.594 6  -5551946.009 5  23697252.907       -1776.340
  -8257783.702 6  -5642567.227 6  23502780.223        3715.917
 -13663771.527 7 -10558486.572 9  21732157.353       -1068.904
 93  5  6  4 24  0.0010000  0  7 16  3 22 23 26 20 17                0.001995530
  -8938061.646 6  -4287737.527 6  23331817.995        3210.537
 -16781726.556 8 -12951496.466 9  21597100.309       -1142.087
  -5870564.614 6  -4581744.694 5  24589845.763       -1707.897
 -20408455.118 6  -5024052.107 6  23627013.899       -2847.600
  -7137287.884 6  -5593353.921 5  23687140.281       -1766.226
  -8146217.695 6  -5555632.678 6  23524010.281        3721.917
 -13695702.746 7 -10583367.987 9  21726081.077       -1059.713
 93  5  6  4 24 30.0020000  0  7 16  3 22 23 26 20 17                0.002002010
  -8841601.588 6  -4212573.843 6  23350173.891        3219.835
 -16815872.140 8 -12978103.404 9  21590602.088       -1134.484
  -5921599.913 6  -4621512.387 5  24580134.577       -1694.546
 -20493757.885 6  -5090521.702 6  23610782.588       -2839.025
  -7190125.557 6  -5634526.089 5  23677085.038       -1756.334
  -8034468.918 6  -5468555.776 6  23545275.099        3727.645
 -13727361.436 8 -10608037.068 9  21720056.547       -1050.828
 93  5  6  4 25  0.0020000  0  7 16  3 22 23 26 20 17                0.002008450
  -8744872.492 6  -4137200.522 6  23368581.278        3228.556
 -16849784.739 8 -13004528.806 9  21584148.774       -1126.593
  -5972237.201 6  -4660969.966 5  24570498.150       -1681.200
 -20578800.927 5  -5156788.929 6  23594598.555       -2830.604
  -7242653.100 6  -5675456.598 5  23667089.640       -1745.386
  -7922550.776 6  -5381346.855 6  23566572.913        3733.577
 -13758753.334 8 -10632498.253 9  21714082.745       -1042.086
 93  5  6  4 25 30.0020000  0  7 16  3 22 23 26 20 17                0.002014860
  -8647889.172 6  -4061629.101 6  23387035.930        3236.935
 -16883457.157 8 -13030767.043 9  21577741.123       -1118.535
  -6022463.748 6  -4700107.502 5  24560939.458       -1667.102
 -20663597.730 6  -5222864.280 6  23578461.508       -2822.440
  -7294851.813 6  -5716130.827 5  23657156.968       -1734.426
  -7810456.817 6  -5294000.923 6  23587903.338        3739.352
 -13789891.398 8 -10656761.646 9  21708157.655       -1033.957
 93  5  6  4 26  0.0020000  0  7 16  3 22 23 26 20 17                0.002021270
  -8550661.001 6  -3985866.895 6  23405537.744        3244.990
 -16916891.062 8 -13056819.413 9  21571379.224       -1110.518
  -6072267.679 6  -4738915.716 5  24551461.626       -1652.852
 -20748154.477 6  -5288752.582 6  23562370.948       -2814.580
  -7346719.359 6  -5756547.065 5  23647286.851       -1723.296
  -7698192.946 6  -5206522.632 6  23609265.779        3744.988
 -13820802.511 8 -10680848.196 9  21702275.688       -1026.660
 93  5  6  4 26 30.0020000  0  7 16  3 22 23 26 20 17                0.002027670
  -8453188.772 7  -3909914.516 6  23424085.960        3253.254
 -16950081.491 8 -13082682.092 9  21565063.378       -1102.460
  -6121632.107 5  -4777381.468 5  24542067.825       -1638.122
 -20832474.291 6  -5354456.270 6  23546324.985       -2806.910
  -7398247.431 6  -5796698.726 5  23637480.856       -1711.750
  -7585759.497 6  -5118912.193 6  23630661.238        3750.518
 -13851490.253 8 -10704760.689 9  21696436.490       -1019.273
 93  5  6  4 27  0.0020000  0  7 16  3 22 23 26 20 17                0.002034090
  -8355457.082 6  -3833759.958 6  23442684.086        3262.168
 -16983028.439 8 -13108355.027 9  21558793.338       -1094.226
  -6170543.154 6  -4815493.923 5  24532760.532       -1622.489
 -20916564.964 6  -5419981.374 6  23530324.269       -2799.172
  -7449419.338 6  -5836572.905 5  23627743.282       -1699.742
  -7473161.349 6  -5031173.407 6  23652088.752        3756.003
 -13881964.456 8 -10728506.787 9  21690637.335       -1012.395
 93  5  6  4 27 30.0020000  0  7 16  3 22 23 26 20 17                0.002040550
  -8257454.088 6  -3757393.995 6  23461333.000        3271.404
 -17015727.705 8 -13133834.945 9  21552570.535       -1086.000
  -6218974.821 6  -4853232.835 5  24523544.772       -1606.444
 -21000415.402 6  -5485319.291 6  23514367.745       -2790.809
  -7500238.524 6  -5876172.204 5  23618072.629       -1688.262
  -7360399.113 6  -4943306.735 6  23673546.825        3761.353
 -13912226.716 8 -10752087.737 9  21684878.602       -1005.125
 93  5  6  4 28  0.0020000  0  7 16  3 22 23 26 20 17                0.002047030
  -8159167.281 6  -3680806.891 6  23480036.658        3280.980
 -17048178.956 8 -13159121.627 9  21546395.341       -1077.648
  -6266928.549 6  -4890599.375 5  24514418.920       -1590.536
 -21084012.199 6  -5550459.591 6  23498459.311       -2782.341
  -7550708.034 6  -5915499.066 5  23608468.727       -1676.394
  -7247477.492 6  -4855315.942 6  23695035.308        3766.734
 -13942266.456 8 -10775495.284 9  21679162.099        -997.338
 93  5  6  4 28 30.0020000  0  7 16  3 22 23 26 20 17                0.002053540
  -8060584.588 6  -3603989.221 6  23498796.452        3291.051
 -17080375.181 8 -13184209.575 9  21540268.772       -1069.070
  -6314407.712 6  -4927596.103 5  24505384.632       -1574.913
 -21167351.861 6  -5615399.515 6  23482600.253       -2773.692
  -7600822.776 6  -5954549.442 6  23598932.068       -1664.634
  -7134394.794 6  -4767199.588 6  23716553.398        3772.140
 -13972060.524 8 -10798711.404 9  21673492.874        -989.183
 93  5  6  4 29  0.0020000  0  7 16  3 22 23 26 20 17                0.002060060
  -7961710.107 6  -3526944.177 6  23517611.768        3300.480
 -17112318.486 8 -13209100.432 9  21534189.790       -1060.601
  -6361430.077 6  -4964236.879 5  24496437.037       -1559.783
 -21250431.530 6  -5680136.857 6  23466790.690       -2764.854
  -7650589.897 6  -5993328.910 6  23589462.054       -1653.253
  -7021157.846 6  -4678963.037 6  23738101.664        3777.146
 -14001620.337 8 -10821745.005 9  21667867.550        -981.218
 93  5  6  4 29 30.0020000  0  7 16  3 22 23 26 20 17                0.002066580
  -7862564.184 7  -3449687.632 6  23536478.521        3309.206
 -17144004.407 8 -13233790.745 9  21528160.184       -1052.098
  -6408001.555 6  -5000526.346 5  24487574.637       -1545.282
 -21333247.370 6  -5744668.609 6  23451031.007       -2756.360
  -7700020.173 6  -6031845.946 6  23580055.618       -1642.046
  -6907767.741 6  -4590607.128 6  23759678.770        3782.109
 -14030925.761 8 -10844580.343 9  21662290.349        -972.543
 93  5  6  4 30  0.0020000  0  7 16  3 22 23 26 20 17                0.002073080
  -7763152.741 6  -3372224.197 6  23555395.720        3318.045
 -17175432.102 8 -13258279.830 9  21522180.076       -1043.391
  -6454139.075 6  -5036477.638 5  24478794.775       -1530.699
 -21415811.736 6  -5809004.409 6  23435319.650       -2748.121
  -7749105.844 6  -6070094.474 6  23570714.452       -1630.366
  -6794228.124 6  -4502134.728 6  23781284.777        3787.155
 -14059971.515 8 -10867213.391 9  21656763.093        -963.943
 93  5  6  4 30 30.0020000  0  7 16  3 22 23 26 20 17                0.002079570
  -7663488.529 6  -3294563.752 6  23574361.541        3326.130
 -17206604.594 8 -13282570.048 9  21516247.834       -1034.926
  -6499849.452 6  -5072096.099 5  24470096.344       -1516.581
 -21498140.642 6  -5873156.741 6  23419653.052       -2740.356
  -7797842.421 6  -6108070.938 6  23561440.011       -1618.694
  -6680547.609 6  -4413552.562 6  23802917.608        3791.700
 -14088769.706 8 -10889653.493 9  21651282.860        -955.945
 93  5  6  4 31  0.0020000  0  7 16  3 22 23 26 20 17                0.002086030
  -7563597.747 6  -3216726.786 6  23593369.877        3333.337
 -17237519.183 8 -13306659.300 9  21510364.924       -1026.293
  -6545120.896 6  -5107372.543 5  24461480.916       -1501.389
 -21580235.205 6  -5937126.480 6  23404031.087       -2732.644
  -7846228.116 6  -6145773.988 6  23552232.459       -1606.879
  -6566728.729 6  -4324862.538 6  23824576.504        3796.278
 -14117319.435 8 -10911900.018 9  21645850.199        -947.154
 93  5  6  4 31 30.0020000  0  7 16  3 22 23 26 20 17                0.002092480
  -7463486.380 6  -3138717.935 6  23612421.063        3340.705
 -17268172.947 8 -13330545.318 9  21504531.911       -1017.631
  -6589933.516 5  -5142291.452 5  24452954.085       -1486.258
 -21662100.707 6  -6000917.681 6  23388452.802       -2725.041
  -7894256.436 6  -6183198.581 6  23543093.428       -1594.923
  -6452772.700 6  -4236065.687 6  23846261.764        3800.669
 -14145604.265 8 -10933940.091 9  21640467.606        -938.735
 93  5  6  4 32  0.0020000  0  7 16  3 22 23 26 20 17                0.002098920
  -7363151.349 6  -3060534.818 6  23631513.757        3348.061
 -17298564.916 8 -13354227.349 9  21498748.358       -1008.834
  -6634285.120 6  -5176851.130 5  24444513.969       -1470.470
 -21743730.144 6  -6064524.993 6  23372919.423       -2716.966
  -7941915.923 6  -6220335.812 6  23534023.766       -1582.544
  -6338684.276 6  -4147165.638 6  23867972.287        3805.106
 -14173645.171 7 -10955790.141 9  21635131.491        -930.776
 93  5  6  4 32 30.0020000  0  7 16  3 22 23 26 20 17                0.002105370
  -7262605.219 6  -2982187.188 6  23650646.609        3354.868
 -17328689.982 8 -13377701.391 9  21493015.815        -999.834
  -6678157.892 5  -5211037.725 5  24436164.750       -1454.305
 -21825111.562 6  -6127939.018 6  23357432.940       -2708.422
  -7989205.101 6  -6257184.474 5  23525025.155       -1570.382
  -6224463.314 6  -4058162.345 6  23889707.771        3809.522
 -14201445.807 7 -10977452.939 9  21629840.735        -922.687
 93  5  6  4 33  0.0020000  0  7 16  3 22 23 26 20 17                0.002111810
  -7161858.876 6  -2903683.547 6  23669818.334        3361.940
 -17358548.674 8 -13400967.890 9  21487333.879        -990.857
  -6721543.966 6  -5244845.006 5  24427908.567       -1437.984
 -21906226.185 6  -6191145.160 6  23341997.099       -2699.011
  -8036138.678 6  -6293756.060 5  23516094.115       -1558.290
  -6110115.309 6  -3969060.037 6  23911467.855        3813.704
 -14229006.247 8 -10998928.602 9  21624596.663        -914.704
 93  5  6  4 33 30.0020000  0  7 16  3 22 23 26 20 17                0.002118260
  -7060884.796 6  -2825002.442 6  23689033.013        3369.551
 -17388137.055 8 -13424023.737 9  21481703.485        -981.962
  -6764451.879 6  -5278279.742 5  24419743.218       -1422.606
 -21987049.915 6  -6254124.621 6  23326616.910       -2689.237
  -8082700.294 6  -6330037.792 5  23507233.761       -1545.809
  -5995641.598 6  -3879859.745 5  23933251.543        3817.747
 -14256343.466 8 -11020230.295 9  21619394.485        -907.870
 93  5  6  4 34  0.0020000  0  7 16  3 22 23 26 20 17                0.002124730
  -6959678.804 6  -2746140.650 6  23708292.507        3377.486
 -17417452.141 8 -13446866.636 9  21476125.310        -972.634
  -6806891.714 6  -5311349.719 5  24411667.145       -1406.629
 -22067575.824 6  -6316872.014 6  23311293.476       -2679.226
  -8128876.391 6  -6366019.127 5  23498446.881       -1532.812
  -5881043.952 6  -3790562.941 5  23955058.796        3822.079
 -14283463.278 7 -11041362.584 9  21614233.918        -900.068
 93  5  6  4 34 30.0020000  0  7 16  3 22 23 26 20 17                0.002131200
  -6858231.365 6  -2667090.724 6  23727596.536        3385.600
 -17446488.561 8 -13469492.406 9  21470599.602        -963.473
  -6848853.340 6  -5344047.066 5  24403682.231       -1391.117
 -22147802.464 6  -6379386.222 6  23296026.158       -2669.357
  -8174673.683 6  -6401705.279 5  23489731.357       -1520.470
  -5766322.071 6  -3701169.280 5  23976889.363        3825.947
 -14310342.121 7 -11062307.111 9  21609118.701        -891.936
 93  5  6  4 35  0.0020000  0  7 16  3 22 23 26 20 17                0.002137670
  -6756528.585 6  -2587841.804 6  23746950.217        3394.536
 -17475245.663 8 -13491900.513 9  21465127.641        -954.054
  -6890353.973 6  -5376385.189 5  24395785.563       -1375.709
 -22227729.852 6  -6441667.275 6  23280816.768       -2659.556
  -8220089.710 6  -6437094.346 5  23481089.200       -1507.326
  -5651480.434 6  -3611682.310 5  23998743.417        3830.000
 -14336967.125 8 -11083053.845 9  21604051.965        -883.219
 93  5  6  4 35 30.0020000  0  7 16  3 22 23 26 20 17                0.002144140
  -6654565.896 6  -2508390.375 6  23766353.117        3402.827
 -17503720.394 8 -13514088.589 9  21459708.517        -944.427
  -6931394.432 6  -5408364.768 5  24387975.888       -1360.062
 -22307387.104 6  -6503737.777 6  23265658.048       -2650.997
  -8265109.529 6  -6472174.667 5  23472522.639       -1494.117
  -5536521.096 6  -3522103.685 5  24020618.920        3834.028
 -14363328.826 8 -11103595.400 9  21599036.030        -874.093
 93  5  6  4 36  0.0020000  0  7 16  3 22 23 26 20 17                0.002150600
  -6552365.224 6  -2428753.501 6  23785801.241        3410.691
 -17531912.876 8 -13536056.731 9  21454343.437        -935.160
  -6971961.981 6  -5439975.811 5  24380255.598       -1344.261
 -22386797.828 6  -6565616.222 6  23250547.258       -2642.827
  -8309758.054 6  -6506965.697 6  23464025.863       -1482.328
  -5421449.818 6  -3432437.768 5  24042516.540        3837.518
 -14389412.036 8 -11123919.948 9  21594072.086        -864.803
 93  5  6  4 36 30.0020000  0  7 16  3 22 23 26 20 17                0.002157060
  -6449924.316 6  -2348929.398 6  23805295.099        3418.720
 -17559825.041 8 -13557806.437 9  21449031.706        -925.760
  -7012055.788 6  -5471217.695 5  24372626.170       -1328.726
 -22465958.378 6  -6627299.732 6  23235483.335       -2634.474
  -8354043.823 6  -6541474.002 6  23455597.986       -1469.850
  -5306272.504 6  -3342689.243 5  24064434.645        3840.986
 -14415221.791 8 -11144031.417 9  21589161.024        -855.877
 93  5  6  4 37  0.0020000  0  7 16  3 22 23 26 20 17                0.002163510
  -6347246.868 6  -2268921.061 6  23824833.388        3426.574
 -17587454.530 8 -13579335.887 9  21443774.244        -916.206
  -7051677.037 6  -5502091.376 5  24365086.311       -1312.287
 -22544873.821 6  -6688792.216 6  23220465.647       -2626.303
  -8397940.629 6  -6575679.290 6  23447244.910       -1456.331
  -5190993.090 6  -3252861.172 5  24086371.954        3844.514
 -14440770.999 8 -11163939.853 9  21584299.412        -847.335
 93  5  6  4 37 30.0020000  0  7 16  3 22 23 26 20 17                0.002169970
  -6244343.612 6  -2188736.693 6  23844415.705        3433.735
 -17614798.565 8 -13600642.906 9  21438571.005        -906.867
  -7090806.177 6  -5532581.555 5  24357639.994       -1296.190
 -22623537.514 6  -6750088.550 6  23205496.732       -2617.492
  -8441435.613 6  -6609571.434 6  23438968.637       -1443.446
  -5075613.179 6  -3162954.777 5  24108327.632        3847.587
 -14466077.519 8 -11183659.194 9  21579483.445        -839.776
 93  5  6  4 38  0.0020000  0  7 16  3 22 23 26 20 17                0.002176440
  -6141214.416 6  -2108376.303 6  23864040.538        3441.396
 -17641854.970 8 -13621725.806 9  21433422.611        -897.231
  -7129446.905 6  -5562691.199 5  24350286.191       -1279.988
 -22701910.313 6  -6811158.212 6  23190583.034       -2607.510
  -8484539.407 6  -6643158.753 6  23430766.539       -1430.064
  -4960135.906 5  -3072972.520 5  24130302.301        3850.837
 -14491156.123 8 -11203200.941 9  21574711.419        -832.229
 93  5  6  4 38 30.0020000  0  7 16  3 22 23 26 20 17                0.002182930
  -6037865.139 6  -2027844.387 6  23883707.143        3448.358
 -17668619.680 8 -13642581.406 9  21428329.486        -887.363
  -7167607.878 6  -5592426.956 5  24343024.152       -1264.085
 -22779983.698 6  -6871994.553 6  23175726.017       -2597.543
  -8527229.754 6  -6676423.921 6  23422641.771       -1415.976
  -4844562.416 6  -2982915.303 5  24152295.063        3854.057
 -14516009.291 8 -11222567.017 9  21569981.602        -824.711
 93  5  6  4 39  0.0020000  0  7 16  3 22 23 26 20 17                0.002189410
  -5934329.595 6  -1947167.356 6  23903409.525        3453.878
 -17695097.318 8 -13663213.317 9  21423290.634        -878.188
  -7205298.750 6  -5621796.441 5  24335851.457       -1248.634
 -22857767.892 6  -6932605.553 6  23160924.197       -2588.022
  -8569516.254 6  -6709374.401 6  23414595.882       -1403.406
  -4728901.962 6  -2892790.281 5  24174305.146        3856.530
 -14540650.826 8 -11241768.183 9  21565292.198        -818.224
 93  5  6  4 39 30.0020000  0  7 16  3 22 23 26 20 17                0.002195870
  -5830623.315 6  -1866357.277 6  23923144.070        3459.741
 -17721291.231 8 -13683624.122 9  21418305.904        -868.479
  -7242524.849 6  -5650803.720 5  24328767.396       -1233.180
 -22935247.525 6  -6992979.238 6  23146179.981       -2577.418
  -8611430.751 6  -6742035.005 6  23406619.425       -1391.097
  -4613163.298 5  -2802604.358 5  24196328.410        3859.216
 -14565087.270 8 -11260809.517 9  21560642.179        -811.072
 93  5  6  4 40  0.0020000  0  7 16  3 22 23 26 20 17                0.002202330
  -5726743.168 6  -1785411.755 6  23942911.816        3465.502
 -17747196.078 8 -13703809.704 9  21413376.428        -858.740
  -7279284.390 6  -5679447.481 5  24321773.618       -1217.399
 -23012419.023 6  -7053112.822 6  23131494.708       -2567.578
  -8652974.605 6  -6774406.832 6  23398714.350       -1378.313
  -4497345.815 6  -2712357.032 5  24218368.344        3861.806
 -14589309.654 8 -11279684.068 9  21556032.691        -803.636
 93  5  6  4 40 30.0020000  0  7 16  3 22 23 26 20 17                0.002208770
  -5622687.271 6  -1704329.231 6  23962713.200        3471.615
 -17772802.519 8 -13723762.757 9  21408503.783        -848.672
  -7315557.412 6  -5707712.103 5  24314871.164       -1200.865
 -23089293.946 6  -7113015.299 7  23116865.727       -2557.365
  -8694122.177 6  -6806469.827 6  23390884.008       -1364.911
  -4381445.892 6  -2622045.428 5  24240424.042        3864.667
 -14613301.802 8 -11298379.216 9  21551466.943        -795.972
 93  5  6  4 41  0.0020000  0  7 16  3 22 23 26 20 17                0.002215220
  -5518439.763 6  -1623097.410 6  23982551.132        3477.971
 -17798108.241 8 -13743481.480 9  21403688.196        -838.899
  -7351331.701 6  -5735588.106 5  24308063.402       -1184.302
 -23165857.475 6  -7172675.140 7  23102296.052       -2547.152
  -8734873.797 6  -6838224.279 6  23383128.782       -1352.056
  -4265465.780 6  -2531671.357 5  24262495.062        3866.998
 -14637064.628 8 -11316895.666 9  21546944.800        -788.441
 93  5  6  4 41 30.0020000  0  7 16  3 22 23 26 20 17                0.002221660
  -5413990.355 6  -1541708.292 6  24002426.745        3485.097
 -17823118.994 8 -13762970.361 9  21398929.010        -828.760
  -7386603.062 6  -5763072.207 5  24301351.925       -1167.212
 -23242122.016 6  -7232102.004 7  23087783.707       -2537.204
  -8775231.648 6  -6869671.904 6  23375448.313       -1338.388
  -4149416.468 6  -2441243.363 5  24284577.386        3869.517
 -14660587.001 8 -11335224.773 9  21542468.471        -779.856
 93  5  6  4 42  0.0020000  0  7 16  3 22 23 26 20 17                0.002228120
  -5309333.946 6  -1460157.849 6  24022342.597        3491.905
 -17847827.918 8 -13782224.054 9  21394226.843        -818.751
  -7421365.035 6  -5790159.393 5  24294736.608       -1150.412
 -23318097.190 6  -7291303.381 7  23073326.449       -2527.916
  -8815171.826 6  -6900794.093 6  23367848.075       -1324.320
  -4033296.131 6  -2350759.990 5  24306674.351        3871.784
 -14683853.091 8 -11353354.163 9  21538041.596        -771.114
 93  5  6  4 42 30.0020000  0  7 16  3 22 23 26 20 17                0.002234590
  -5204471.618 6  -1378446.971 6  24042297.046        3498.896
 -17872232.975 8 -13801240.963 9  21389582.768        -808.465
  -7455622.675 6  -5816853.620 5  24288217.440       -1133.593
 -23393795.135 6  -7350288.742 7  23058921.319       -2518.550
  -8854686.616 6  -6931584.798 6  23360329.180       -1310.044
  -3917107.388 6  -2260223.331 5  24328784.437        3874.108
 -14706853.679 8 -11371276.683 9  21533665.184        -762.341
 93  5  6  4 43  0.0020000  0  7 16  3 22 23 26 20 17                0.002241060
  -5099400.685 6  -1296573.553 6  24062291.766        3505.920
 -17896326.074 8 -13820014.784 9  21384998.124        -797.857
  -7489376.741 6  -5843155.434 5  24281794.432       -1116.587
 -23469211.940 6  -7409055.022 7  23044569.925       -2509.194
  -8893777.828 6  -6962045.398 6  23352890.490       -1295.753
  -3800847.452 6  -2169631.254 5  24350907.855        3876.671
 -14729589.633 8 -11388992.981 9  21529338.807        -753.345
 93  5  6  4 43 30.0020000  0  7 16  3 22 23 26 20 17                0.002247530
  -4994126.405 6  -1214541.647 6  24082325.345        3512.371
 -17920103.976 8 -13838543.014 9  21380473.507        -787.491
  -7522632.091 6  -5869068.615 5  24275466.544       -1100.477
 -23544355.087 6  -7467608.080 7  23030270.857       -2500.030
  -8932436.341 6  -6992168.873 6  23345533.852       -1281.463
  -3684518.286 6  -2078985.183 5  24373043.541        3878.705
 -14752063.007 8 -11406504.678 9  21525061.910        -744.996
 93  5  6  4 44  0.0020000  0  7 16  3 22 23 26 20 17                0.002253990
  -4888660.543 6  -1132360.458 6  24102393.665        3518.827
 -17943569.087 8 -13856827.496 9  21376008.108        -776.933
  -7555414.389 6  -5894613.208 5  24269228.165       -1084.846
 -23619216.287 6  -7525941.415 7  23016025.378       -2490.603
  -8970667.591 6  -7021959.431 6  23338258.874       -1267.248
  -3568127.495 6  -1988291.076 5  24395192.380        3880.790
 -14774297.975 8 -11423830.597 9  21520830.310        -737.079
 93  5  6  4 44 30.0020000  0  7 16  3 22 23 26 20 17                0.002260450
  -4783004.944 6  -1050031.444 6  24122499.191        3524.860
 -17966715.307 8 -13874863.496 9  21371603.307        -766.324
  -7587723.930 6  -5919789.420 5  24263078.589       -1069.043
 -23693785.940 6  -7584047.591 7  23001835.511       -2480.601
  -9008478.054 6  -7051422.081 6  23331063.861       -1253.471
  -3451674.017 6  -1897548.159 5  24417352.405        3882.810
 -14796293.457 8 -11440969.916 9  21516645.185        -729.262
 93  5  6  4 45  0.0020000  0  7 16  3 22 23 26 20 17                0.002266890
  -4677171.264 6   -967563.620 6  24142638.820        3530.581
 -17989539.245 8 -13892648.368 9  21367260.053        -755.623
  -7619557.064 6  -5944594.422 5  24257021.540       -1053.224
 -23768043.348 6  -7641910.451 7  22987704.575       -2469.953
  -9045871.309 6  -7080559.644 6  23323947.564       -1239.568
  -3335159.419 6  -1806757.590 5  24439524.644        3884.669
 -14818045.302 8 -11457919.375 9  21512506.574        -720.942
 93  5  6  4 45 30.0020000  0  7 16  3 22 23 26 20 17                0.002273320
  -4571168.162 6   -884963.798 5  24162810.811        3536.210
 -18012039.505 8 -13910181.020 9  21362978.559        -744.685
  -7650915.554 6  -5969029.553 5  24251053.807       -1037.371
 -23841977.586 6  -7699521.475 7  22973635.383       -2459.051
  -9082842.643 6  -7109368.429 6  23316911.559       -1225.437
  -3218587.450 5  -1715922.361 5  24461708.211        3886.702
 -14839541.021 8 -11474669.273 9  21508415.395        -712.127
 93  5  6  4 46  0.0020000  0  7 16  3 22 23 26 20 17                0.002279740
  -4465005.942 6   -802240.045 5  24183012.422        3541.170
 -18034214.137 8 -13927459.946 9  21358759.298        -733.925
  -7681789.961 6  -5993087.501 5  24245179.394       -1020.847
 -23915593.216 6  -7756884.288 7  22959626.065       -2448.846
  -9119399.159 6  -7137853.994 6  23309955.971       -1211.535
  -3101960.708 6  -1625044.364 5  24483901.275        3888.316
 -14860775.111 8 -11491215.316 9  21504374.312        -703.430
 93  5  6  4 46 30.0020000  0  7 16  3 22 23 26 20 17                0.002286130
  -4358702.968 6   -719406.546 5  24203240.775        3545.674
 -18056065.823 8 -13944487.208 9  21354600.306        -723.226
  -7712160.768 6  -6016753.027 5  24239400.322       -1003.896
 -23988902.815 6  -7814008.581 7  22945675.702       -2438.588
  -9155529.759 6  -7166007.676 6  23303080.896       -1197.147
  -2985287.850 5  -1534130.479 5  24506103.758        3889.715
 -14881750.525 8 -11507559.753 9  21500383.673        -695.175
 93  5  6  4 47  0.0020000  0  7 16  3 22 23 26 20 17                0.002292520
  -4252257.020 6   -636461.628 5  24223497.875        3550.637
 -18077596.534 8 -13961264.376 9  21350503.424        -712.503
  -7742018.283 6  -6040018.611 5  24233718.510        -986.681
 -24061905.683 6  -7870893.889 7  22931783.066       -2428.289
  -9191217.455 6  -7193816.247 6  23296289.462       -1182.281
  -2868574.928 5  -1443185.398 5  24528313.000        3890.992
 -14902484.384 8 -11523715.991 9  21496437.794        -687.256
 93  5  6  4 47 30.0020000  0  7 16  3 22 23 26 20 17                0.002298920
  -4145653.482 6   -553393.961 5  24243783.344        3556.084
 -18098799.893 8 -13977786.460 9  21346468.208        -701.365
  -7771347.491 6  -6062872.527 5  24228137.648        -968.480
 -24134594.938 6  -7927534.830 7  22917951.372       -2417.735
  -9226455.639 6  -7221274.522 6  23289584.508       -1167.205
  -2751821.052 5  -1352208.408 5  24550531.400        3892.529
 -14922980.504 8 -11539686.969 9  21492537.595        -679.277
 93  5  6  4 48  0.0020000  0  7 16  3 22 23 26 20 17                0.002305340
  -4038886.058 6   -470198.612 5  24264100.056        3561.736
 -18119673.285 8 -13994051.434 9  21342496.515        -690.386
  -7800128.971 6  -6085299.626 5  24222660.094        -950.343
 -24206968.648 6  -7983929.892 7  22904178.826       -2407.053
  -9261244.553 6  -7248382.749 6  23282964.781       -1151.880
  -2635028.567 6  -1261201.287 5  24572756.534        3893.615
 -14943246.127 8 -11555478.360 9  21488680.596        -671.838
 93  5  6  4 48 30.0020000  0  7 16  3 22 23 26 20 17                0.002311770
  -3931951.937 6   -386873.281 5  24284449.280        3567.637
 -18140216.624 8 -14010059.208 9  21338587.363        -679.154
  -7828369.224 6  -6107305.020 5  24217285.436        -932.250
 -24279013.898 6  -8040068.992 7  22890469.280       -2395.661
  -9295576.957 6  -7275135.230 6  23276431.261       -1136.861
  -2518202.364 5  -1170167.964 5  24594987.635        3894.993
 -14963288.221 8 -11571095.532 9  21484866.795        -664.082
 93  5  6  4 49  0.0020000  0  7 16  3 22 23 26 20 17                0.002318220
  -3824843.258 6   -303412.018 5  24304831.404        3573.110
 -18160427.319 8 -14025807.773 9  21334740.636        -668.323
  -7856074.801 6  -6128893.773 5  24212012.171        -914.762
 -24350720.831 6  -8095944.469 7  22876823.691       -2384.715
  -9329471.533 6  -7301546.532 6  23269980.387       -1122.713
  -2401344.649 5  -1079110.046 5  24617224.638        3895.606
 -14983101.636 8 -11586534.542 9  21481096.605        -656.650
 93  5  6  4 49 30.0020000  0  7 16  3 22 23 26 20 17                0.002324690
  -3717565.350 6   -219818.853 5  24325244.872        3578.644
 -18180302.344 8 -14041294.807 9  21330958.666        -656.980
  -7883255.773 6  -6150073.732 5  24206841.778        -897.340
 -24422095.442 6  -8151561.015 7  22863241.858       -2373.819
  -9362937.870 6  -7327624.158 6  23263610.607       -1108.338
  -2284457.936 6   -988029.542 5  24639467.010        3896.713
 -15002682.829 8 -11601792.582 9  21477370.317        -649.035
 93  5  6  4 50  0.0020000  0  7 16  3 22 23 26 20 17                0.002331150
  -3610118.259 6   -136093.882 5  24345691.956        3584.385
 -18199834.760 8 -14056514.853 9  21327242.258        -645.455
  -7909928.932 6  -6170858.043 5  24201765.896        -881.095
 -24493148.878 6  -8206927.271 7  22849720.438       -2363.161
  -9395966.930 6  -7353361.041 6  23257325.709       -1093.488
  -2167539.936 5   -896924.648 5  24661715.552        3897.833
 -15022043.914 8 -11616879.107 9  21473685.349        -641.777
 93  5  6  4 50 30.0020000  0  7 16  3 22 23 26 20 17                0.002337620
  -3502511.216 6    -52244.236 5  24366169.011        3589.375
 -18219024.088 8 -14071467.560 9  21323590.904        -634.112
  -7936123.885 6  -6191269.683 5  24196782.324        -865.292
 -24563890.157 6  -8262050.312 7  22836259.027       -2352.982
  -9428555.434 6  -7378754.629 6  23251123.891       -1079.074
  -2050595.220 5   -805798.983 5  24683969.374        3898.464
 -15041190.266 8 -11631798.339 9  21470041.450        -634.602
 93  5  6  4 51  0.0020000  0  7 16  3 22 23 26 20 17                0.002344070
  -3394749.755 6     31725.711 5  24386675.822        3594.557
 -18237871.315 8 -14086153.701 9  21320004.647        -622.713
  -7961843.421 6  -6211310.860 5  24191890.221        -849.460
 -24634331.841 6  -8316939.868 7  22822854.180       -2343.197
  -9460697.524 6  -7403800.379 6  23245008.113       -1063.714
  -1933629.635 5   -714656.956 5  24706227.920        3899.164
 -15060123.037 8 -11646551.129 9  21466438.944        -627.631
 93  5  6  4 51 30.0020000  0  7 16  3 22 23 26 20 17                0.002350520
  -3286820.362 6    115826.520 5  24407214.268        3600.337
 -18256369.765 8 -14100568.063 9  21316484.655        -610.962
  -7987084.281 6  -6230979.096 5  24187086.033        -833.430
 -24704475.778 7  -8371597.451 7  22809506.437       -2333.219
  -9492368.648 6  -7428479.116 6  23238981.994       -1047.792
  -1816641.857 5   -623497.706 5  24728490.472        3899.783
 -15078829.625 8 -11661127.675 9  21462879.105        -619.738
 93  5  6  4 52  0.0020000  0  7 16  3 22 23 26 20 17                0.002356970
  -3178720.962 6    200059.802 5  24427784.668        3606.469
 -18274513.863 8 -14114706.306 9  21313031.935        -598.625
  -8011836.465 6  -6250266.506 5  24182374.990        -816.410
 -24774308.071 6  -8426012.189 7  22796217.548       -2321.892
  -9523547.952 6  -7452774.641 6  23233048.585       -1030.607
  -1699630.775 5   -532320.298 5  24750756.455        3901.004
 -15097289.970 8 -11675512.330 9  21459366.769        -610.444
 93  5  6  4 52 30.0020000  0  7 16  3 22 23 26 20 17                0.002363420
  -3070456.905 6    284421.400 5  24448386.679        3611.327
 -18292297.887 8 -14128563.971 9  21309647.210        -587.033
  -8036081.427 6  -6269158.707 5  24177761.283        -799.719
 -24843801.178 7  -8480162.614 7  22782993.579       -2310.782
  -9554223.320 6  -7476677.491 6  23227211.173       -1014.304
  -1582595.995 5   -441124.424 5  24773026.484        3901.395
 -15115468.770 8 -11689677.612 9  21455908.095        -601.351
 93  5  6  4 53  0.0020000  0  7 16  3 22 23 26 20 17                0.002369870
  -2962031.152 6    368908.998 5  24469018.841        3616.729
 -18309722.953 8 -14142141.952 9  21306331.093        -575.061
  -8059806.917 6  -6287646.106 5  24173246.289        -782.190
 -24912950.856 6  -8534045.443 7  22769834.930       -2299.149
  -9584398.789 6  -7500190.802 6  23221468.952        -997.688
  -1465543.803 5   -349914.914 5  24795301.456        3901.971
 -15133361.147 8 -11703619.695 9  21452503.164        -591.670
 93  5  6  4 53 30.0020000  0  7 16  3 22 23 26 20 17                0.002376320
  -2853458.558 6    453511.004 5  24489679.250        3621.148
 -18326792.314 8 -14155442.733 9  21303083.241        -563.170
  -8083011.779 6  -6305727.814 5  24168830.673        -764.685
 -24981746.913 7  -8587652.716 7  22756743.202       -2287.156
  -9614096.190 6  -7523331.594 6  23215817.761        -982.077
  -1348482.217 5   -258698.166 5  24817576.787        3902.199
 -15150966.673 8 -11717338.280 9  21449151.982        -582.152
 93  5  6  4 54  0.0020000  0  7 16  3 22 23 26 20 17                0.002382760
  -2744772.705 6    538201.285 5  24510361.701        3624.535
 -18343505.760 8 -14168466.193 9  21299902.495        -551.435
  -8105687.333 6  -6323397.076 5  24164515.411        -747.136
 -25050176.760 7  -8640974.644 7  22743721.710       -2275.063
  -9643326.584 6  -7546108.471 6  23210254.400        -966.953
  -1231415.941 5   -167477.738 5  24839853.873        3902.108
 -15168298.794 8 -11730843.801 9  21445854.355        -573.523
 93  5  6  4 54 30.0020000  0  7 16  3 22 23 26 20 17                0.002389190
  -2635979.633 5    622975.086 5  24531064.154        3628.289
 -18359866.122 8 -14181214.522 9  21296789.678        -539.638
  -8127834.197 6  -6340654.395 5  24160302.143        -729.471
 -25118253.091 7  -8694021.080 7  22730767.117       -2263.720
  -9672112.210 6  -7568538.800 6  23204776.962        -952.300
  -1114352.874 5    -76259.806 5  24862130.719        3901.913
 -15185382.053 8 -11744155.414 9  21442602.914        -565.719
 93  5  6  4 55  0.0020000  0  7 16  3 22 23 26 20 17                0.002395610
  -2527066.657 6    707842.315 5  24551789.168        3632.493
 -18375868.823 8 -14193684.145 9  21293743.975        -527.513
  -8149444.032 6  -6357493.193 5  24156189.521        -711.277
 -25185992.587 7  -8746805.065 7  22717876.979       -2252.343
  -9700454.844 6  -7590623.915 6  23199383.443        -937.256
   -997292.998 5     14955.633 5  24884406.944        3901.932
 -15202233.888 8 -11757286.703 9  21439396.846        -557.871
 93  5  6  4 55 30.0020000  0  7 16  3 22 23 26 20 17                0.002402050
  -2418028.398 6    792807.177 5  24572538.507        3636.570
 -18391506.666 8 -14205869.464 9  21290768.248        -515.337
  -8170513.090 6  -6373910.632 5  24152179.711        -693.415
 -25253394.256 7  -8799325.815 7  22705050.642       -2241.360
  -9728340.170 6  -7612352.709 6  23194077.294        -921.697
   -880234.500 5    106170.010 5  24906682.025        3901.797
 -15218857.324 8 -11770240.015 9  21436233.154        -550.451
 93  5  6  4 56  0.0020000  0  7 16  3 22 23 26 20 17                0.002408490
  -2308863.565 6    877870.674 5  24593313.258        3640.922
 -18406781.821 8 -14217772.181 9  21287861.449        -503.628
  -8191055.349 6  -6389917.582 5  24148270.867        -676.486
 -25320479.170 7  -8851599.725 7  22692284.777       -2231.531
  -9755753.044 6  -7633713.337 6  23188861.087        -906.334
   -763184.270 5    197377.913 5  24928955.992        3901.050
 -15235266.712 8 -11783026.530 9  21433110.738        -543.934
 93  5  6  4 56 30.0020000  0  7 16  3 22 23 26 20 17                0.002414940
  -2199546.242 6    963053.019 5  24614114.251        3646.462
 -18421695.703 8 -14229393.377 9  21285023.154        -491.154
  -8211087.628 6  -6405527.166 5  24144458.976        -659.308
 -25387266.492 6  -8903641.748 7  22679575.728       -2221.191
  -9782690.993 6  -7654703.929 6  23183734.823        -889.769
   -646148.550 5    288574.555 5  24951226.807        3900.979
 -15251462.009 8 -11795646.223 9  21430028.882        -536.092
 93  5  6  4 57  0.0020000  0  7 16  3 22 23 26 20 17                0.002421400
  -2090084.810 5   1048347.613 5  24634944.725        3651.102
 -18436243.942 8 -14240729.658 9  21282254.691        -478.893
  -8230619.460 6  -6420746.723 5  24140742.203        -642.759
 -25453746.424 7  -8955444.255 7  22666925.012       -2210.674
  -9809136.956 6  -7675311.149 6  23178701.470        -873.327
   -529127.894 5    379759.449 5  24973496.109        3900.457
 -15267426.144 8 -11808085.791 9  21426991.164        -528.142
 93  5  6  4 57 30.0020000  0  7 16  3 22 23 26 20 17                0.002427850
  -1980491.874 5   1133744.683 5  24655799.305        3655.173
 -18450423.893 8 -14251778.958 9  21279556.311        -466.594
  -8249657.800 6  -6435581.771 5  24137118.770        -626.343
 -25519908.924 7  -9006999.409 7  22654334.049       -2199.958
  -9835096.857 6  -7695539.585 6  23173761.671        -857.302
   -412124.703 5    470930.718 5  24995760.566        3899.821
 -15283155.117 8 -11820342.109 9  21423997.827        -520.427
 93  5  6  4 58  0.0020000  0  7 16  3 22 23 26 20 17                0.002434290
  -1870775.235 5   1219238.184 5  24676678.184        3659.112
 -18464232.642 8 -14262539.014 9  21276928.589        -454.300
  -8268198.323 6  -6450028.933 5  24133590.021        -609.694
 -25585744.184 7  -9058299.573 7  22641806.320       -2188.951
  -9860583.336 6  -7715399.151 6  23168911.986        -841.952
   -295140.719 5    562087.030 5  25018020.863        3898.979
 -15298654.316 8 -11832419.391 9  21421048.386        -512.876
 93  5  6  4 58 30.0020000  0  7 16  3 22 23 26 20 17                0.002440730
  -1760945.272 5   1304819.916 5  24697578.804        3662.571
 -18477667.606 8 -14273007.822 9  21274372.246        -441.623
  -8286228.695 6  -6464078.579 5  24130159.324        -592.297
 -25651233.920 7  -9109330.498 7  22629344.307       -2176.964
  -9885604.700 6  -7734896.279 6  23164150.389        -826.125
   -178178.525 5    653226.400 5  25040278.870        3898.421
 -15313917.617 8 -11844312.848 9  21418143.458        -504.807
 93  5  6  4 59  0.0020000  0  7 16  3 22 23 26 20 17                0.002447170
  -1651026.842 5   1390470.633 5  24718494.999        3665.656
 -18490729.762 8 -14283186.122 9  21271886.869        -429.263
  -8303731.605 6  -6477717.177 5  24126829.378        -574.339
 -25716366.428 7  -9160083.066 7  22616949.592       -2165.072
  -9910162.865 6  -7754032.487 6  23159477.258        -810.933
    -61243.932 5    744344.168 5  25062532.100        3897.355
 -15328954.609 8 -11856029.977 9  21415282.367        -497.526
 93  5  6  4 59 30.0020000  0  7 16  3 22 23 26 20 17                0.002453610
  -1541007.785 6   1476199.793 5  24739431.076        3668.693
 -18503413.672 8 -14293069.688 9  21269472.911        -416.729
  -8320680.184 6  -6490923.828 5  24123605.022        -555.768
 -25781130.271 7  -9210548.355 7  22604625.686       -2152.728
  -9934253.343 6  -7772804.242 6  23154893.589        -795.132
     55663.728 5    835441.016 5  25084778.929        3896.316
 -15343768.914 8 -11867573.573 9  21412463.651        -490.273
 93  5  6  5  0  0.0020000  0  7 16  3 22 23 26 20 17                0.002460050
  -1430892.667 6   1562003.755 5  24760387.539        3672.168
 -18515718.072 8 -14302657.524 9  21267131.922        -403.974
  -8337066.525 6  -6503692.401 5  24120485.799        -536.906
 -25845518.933 7  -9260721.288 8  22592372.537       -2140.113
  -9957855.733 6  -7791195.657 6  23150402.914        -778.460
    172540.655 5    926513.911 5  25107019.599        3895.390
 -15358354.867 8 -11878939.243 9  21409687.710        -482.080
 93  5  6  5  0 30.0020000  0  7 16  3 22 23 26 20 17                0.002466490
  -1320679.353 6   1647884.210 5  24781359.963        3675.651
 -18527642.680 8 -14311949.432 9  21264862.601        -391.069
  -8352895.115 6  -6516026.349 5  24117472.272        -518.309
 -25909539.422 7  -9310607.361 8  22580189.631       -2127.925
  -9980954.514 6  -7809194.696 6  23146007.002        -761.310
    289382.818 5   1017559.686 5  25129253.840        3894.320
 -15372689.682 8 -11890109.217 9  21406960.522        -473.336
 93  5  6  5  1  0.0020000  0  7 16  3 22 23 26 20 17                0.002472930
  -1210357.578 6   1733849.284 5  24802353.183        3679.330
 -18539182.472 8 -14320941.471 9  21262666.642        -378.285
  -8368169.747 6  -6527928.629 5  24114565.895        -500.121
 -25973208.029 7  -9360219.206 8  22568073.767       -2116.551
 -10003542.622 6  -7826795.776 6  23141707.749        -744.375
    406190.224 5   1108578.380 5  25151481.429        3892.970
 -15386758.639 8 -11901072.026 9  21404283.522        -464.378
 93  5  6  5  1 30.0020000  0  7 16  3 22 23 26 20 17                0.002479390
  -1099926.144 6   1819899.735 5  24823368.218        3682.671
 -18550332.152 8 -14329629.535 9  21260544.892        -365.297
  -8382905.207 6  -6539410.767 5  24111763.348        -482.538
 -26036533.787 7  -9409563.907 8  22556023.519       -2105.266
 -10025611.715 6  -7843992.445 6  23137508.587        -727.009
    522963.439 5   1199570.486 5  25173703.540        3891.793
 -15400548.636 8 -11911817.484 9  21401659.151        -455.160
 93  5  6  5  2  0.0020000  0  7 16  3 22 23 26 20 17                0.002485840
   -989393.248 6   1906029.265 5  24844401.606        3686.211
 -18561089.674 8 -14338012.025 9  21258497.408        -352.053
  -8397122.546 6  -6550489.200 5  24109057.409        -465.390
 -26099527.122 7  -9458649.569 8  22544036.300       -2094.334
 -10047166.952 6  -7860788.723 6  23133405.748        -710.020
    639700.010 5   1290534.000 5  25195918.071        3890.640
 -15414064.209 8 -11922349.080 9  21399086.661        -445.916
 93  5  6  5  2 30.0020000  0  7 16  3 22 23 26 20 17                0.002492280
   -878753.083 6   1992242.295 5  24865456.143        3689.665
 -18571450.032 8 -14346085.024 9  21256526.040        -338.874
  -8410827.219 6  -6561168.148 5  24106450.163        -448.256
 -26162199.749 7  -9507485.351 8  22532109.854       -2083.784
 -10068220.441 6  -7877194.000 6  23129399.713        -693.657
    756399.806 5   1381468.869 5  25218124.765        3889.249
 -15427320.743 8 -11932678.825 9  21396564.056        -437.975
 93  5  6  5  3  0.0020000  0  7 16  3 22 23 26 20 17                0.002498720
   -768014.264 6   2078532.277 5  24886527.677        3692.898
 -18581417.209 8 -14353851.663 9  21254629.392        -325.729
  -8424017.052 6  -6571445.956 5  24103938.730        -430.926
 -26224552.948 7  -9556072.228 8  22520244.023       -2072.673
 -10088784.706 6  -7893218.101 6  23125485.854        -677.104
    873053.885 5   1472368.054 5  25240322.288        3887.676
 -15440352.573 8 -11942833.484 9  21394084.282        -430.909
 93  5  6  5  3 30.0020000  0  7 16  3 22 23 26 20 17                0.002505160
   -657182.221 6   2164894.928 5  24907617.312        3695.913
 -18590985.754 8 -14361307.656 9  21252808.357        -312.476
  -8436682.718 6  -6581315.255 5  24101527.975        -413.318
 -26286556.510 7  -9604386.637 8  22508445.200       -2060.852
 -10108849.780 6  -7908853.179 6  23121667.861        -660.683
    989662.973 5   1563232.338 5  25262512.857        3886.137
 -15453176.149 8 -11952825.853 9  21391644.382        -424.081
 93  5  6  5  4  0.0020000  0  7 16  3 22 23 26 20 17                0.002511610
   -546258.092 6   2251329.266 5  24928725.079        3698.871
 -18600154.639 8 -14368452.246 9  21251063.634        -299.129
  -8448811.914 6  -6590766.550 5  24099220.341        -395.416
 -26348203.455 7  -9652423.196 8  22496714.678       -2049.087
 -10128421.212 6  -7924103.638 6  23117944.039        -644.181
   1106223.054 5   1654058.273 5  25284694.301        3884.517
 -15465787.553 8 -11962652.923 9  21389244.635        -416.691
 93  5  6  5  4 30.0020000  0  7 16  3 22 23 26 20 17                0.002518070
   -435237.809 6   2337838.575 5  24949853.923        3702.519
 -18608921.017 8 -14375283.179 9  21249395.690        -285.365
  -8460397.048 6  -6599793.907 5  24097015.282        -376.760
 -26409493.124 7  -9700181.328 8  22485051.501       -2036.674
 -10147488.966 6  -7938961.594 6  23114315.616        -626.857
   1222732.626 5   1744844.883 5  25306865.035        3882.934
 -15478168.871 8 -11972300.684 9  21386887.934        -408.510
 93  5  6  5  5  0.0020000  0  7 16  3 22 23 26 20 17                0.002524530
   -324124.934 5   2424420.050 5  24970997.870        3705.160
 -18617283.093 8 -14381799.081 9  21247804.521        -272.160
  -8471436.615 6  -6608396.123 5  24094915.230        -359.100
 -26470411.154 7  -9747649.899 8  22473459.318       -2024.336
 -10166045.367 6  -7953421.122 6  23110784.304        -609.931
   1339188.899 5   1835590.006 5  25329026.180        3880.966
 -15490302.740 8 -11981755.647 9  21384578.774        -400.335
 93  5  6  5  5 30.0020000  0  7 16  3 22 23 26 20 17                0.002530990
   -212931.455 5   2511064.317 5  24992156.819        3707.827
 -18625246.150 8 -14388004.053 9  21246289.011        -258.858
  -8481950.487 6  -6616588.708 5  24092913.345        -341.726
 -26530963.378 7  -9794833.408 8  22461936.526       -2012.526
 -10184094.812 6  -7967485.600 6  23107350.140        -593.202
   1455581.954 5   1926285.922 5  25351174.409        3878.736
 -15502192.732 8 -11991020.564 9  21382316.391        -392.178
 93  5  6  5  6  0.0020000  0  6 16  3 22 23 26 17                   0.002537360
   -101644.196 5   2597781.657 5  25013334.163        3711.002
 -18632802.065 8 -14393891.773 9  21244851.215        -245.277
  -8491944.378 6  -6624376.169 5  24091009.826        -324.825
 -26591154.497 7  -9841735.538 8  22450482.555       -2000.350
 -10201628.068 6  -7981147.866 6  23104013.894        -575.843
 -15513831.189 8 -12000089.475 9  21380101.892        -384.076
 93  5  6  5  6 30.0020000  0  6 16  3 22 23 26 17                   0.002543810
      9741.981 5   2684576.106 5  25034529.164        3714.569
 -18639952.260 8 -14399463.338 9  21243490.476        -231.644
  -8501432.285 6  -6631769.300 5  24089204.111        -307.641
 -26650975.475 7  -9888349.260 8  22439099.304       -1987.738
 -10218644.136 6  -7994407.101 6  23100775.726        -558.655
 -15525244.020 8 -12008982.575 9  21377930.017        -376.885
 93  5  6  5  7  0.0020000  0  6 16  3 22 23 26 17                   0.002550270
    121215.000 6   2771438.166 5  25055741.819        3717.290
 -18646699.062 8 -14404720.578 9  21242206.706        -218.135
  -8510413.493 6  -6638767.643 5  24087497.056        -290.819
 -26710421.462 7  -9934670.774 8  22427786.688       -1975.161
 -10235150.921 6  -8007269.521 6  23097634.917        -541.488
 -15536452.679 8 -12017716.576 9  21375797.465        -370.106
 93  5  6  5  7 30.0020000  0  6 16  3 22 23 26 17                   0.002556750
    232784.580 6   2858375.435 5  25076971.902        3720.590
 -18653034.714 8 -14409657.438 9  21241000.662        -204.550
  -8518876.895 6  -6645362.457 5  24085884.168        -273.313
 -26769483.165 7  -9980692.850 8  22416547.545       -1962.398
 -10251138.124 6  -8019727.070 6  23094591.872        -524.352
 -15547445.420 8 -12026282.345 9  21373705.753        -362.532
 93  5  6  5  8  0.0020000  0  6 16  3 22 23 26 17                   0.002563240
    344447.046 5   2945385.194 5  25098218.482        3723.597
 -18658963.103 8 -14414276.962 9  21239872.532        -190.743
  -8526814.333 6  -6651547.457 5  24084376.485        -255.501
 -26828165.202 7 -10026419.076 8  22405380.706       -1949.516
 -10266610.467 6  -8031783.438 6  23091647.931        -507.129
 -15558200.129 8 -12034662.624 9  21371658.769        -354.331
 93  5  6  5  8 30.0020000  0  6 16  3 22 23 26 17                   0.002569740
    456188.576 5   3032456.533 5  25119482.858        3725.733
 -18664475.427 8 -14418572.264 9  21238823.660        -176.902
  -8534200.734 6  -6657303.064 5  24082970.383        -236.859
 -26886463.107 7 -10071845.982 8  22394287.188       -1937.090
 -10281570.095 6  -8043440.274 6  23088801.090        -490.094
 -15568697.295 8 -12042842.221 9  21369660.923        -345.267
 93  5  6  5  9  0.0020000  0  6 16  3 22 23 26 17                   0.002576230
    567991.887 5   3119575.947 5  25140758.788        3728.107
 -18669571.611 8 -14422543.310 9  21237853.892        -162.866
  -8541034.685 6  -6662628.204 5  24081669.338        -218.437
 -26944391.940 7 -10116985.303 8  22383264.011       -1924.583
 -10296011.617 6  -8054693.365 6  23086053.229        -472.451
 -15578906.390 8 -12050797.351 9  21367718.557        -335.128
 93  5  6  5  9 30.0020000  0  6 16  3 22 23 26 17                   0.002582710
    679862.345 5   3206747.742 5  25162047.326        3729.861
 -18674247.237 8 -14426186.633 9  21236964.044        -148.956
  -8547318.240 6  -6667524.469 5  24080474.635        -200.306
 -27001951.396 7 -10161836.789 8  22372310.772       -1912.584
 -10309928.240 6  -8065537.489 6  23083404.697        -455.188
 -15588817.516 8 -12058520.294 9  21365832.353        -325.587
 93  5  6  5 10  0.0020000  0  6 16  3 22 23 26 17                   0.002589170
    791770.312 5   3293948.765 5  25183342.263        3730.706
 -18678503.451 8 -14429503.162 9  21236153.866        -135.005
  -8553063.324 6  -6672001.142 5  24079382.522        -182.617
 -27059154.835 7 -10206410.871 8  22361425.079       -1900.972
 -10323323.536 6  -8075975.384 6  23080854.338        -437.822
 -15598455.068 8 -12066030.067 9  21363998.360        -317.140
 93  5  6  5 10 30.0020000  0  6 16  3 22 23 26 17                   0.002595590
    903703.739 5   3381169.509 5  25204641.855        3731.755
 -18682341.580 8 -14432493.907 9  21235423.592        -120.979
  -8558282.378 6  -6676067.933 5  24078387.657        -165.327
 -27116013.690 7 -10250716.431 8  22350604.529       -1889.537
 -10336199.349 6  -8086008.452 6  23078404.123        -420.386
 -15607848.258 8 -12073349.419 9  21362210.709        -309.107
 93  5  6  5 11  0.0020000  0  6 16  3 22 23 26 17                   0.002601990
   1015675.263 5   3468420.092 5  25225950.885        3732.915
 -18685763.917 8 -14435160.635 9  21234772.294        -107.408
  -8562997.912 6  -6679742.337 5  24077489.369        -149.005
 -27172531.651 7 -10294756.369 8  22339849.746       -1878.225
 -10348555.364 6  -8095636.469 6  23076052.793        -403.396
 -15617022.328 8 -12080498.037 9  21360464.819        -302.672
 93  5  6  5 11 30.0020000  0  6 16  3 22 23 26 17                   0.002608380
   1127684.363 5   3555699.868 5  25247266.534        3734.279
 -18688768.931 8 -14437502.204 9  21234200.510         -93.247
  -8567210.556 6  -6683024.914 5  24076685.529        -131.942
 -27228697.915 7 -10338522.245 8  22329161.562       -1866.267
 -10360392.888 6  -8104860.504 6  23073800.956        -385.826
 -15626004.816 8 -12087497.362 9  21358755.231        -296.261
 93  5  6  5 12  0.0020000  0  6 16  3 22 23 26 17                   0.002614770
   1239733.034 5   3643010.503 5  25268588.563        3735.894
 -18691354.326 8 -14439516.784 9  21233708.619         -79.319
  -8570914.035 6  -6685910.715 5  24075982.846        -114.929
 -27284511.150 7 -10382013.052 8  22318540.758       -1854.615
 -10371710.924 6  -8113679.749 6  23071647.058        -368.685
 -15634795.043 8 -12094346.876 9  21357082.620        -289.701
 93  5  6  5 12 30.0020000  0  6 16  3 22 23 26 17                   0.002621160
   1351842.503 5   3730368.516 5  25289923.376        3738.229
 -18693518.299 8 -14441202.991 9  21233296.995         -65.139
  -8574100.478 6  -6688393.633 5  24075376.564         -97.528
 -27339966.863 7 -10425225.259 8  22307987.810       -1842.317
 -10382511.666 6  -8122095.905 6  23069590.997        -351.331
 -15643375.586 8 -12101032.987 9  21355449.942        -282.286
 93  5  6  5 13  0.0020000  0  6 16  3 22 23 26 17                   0.002627570
   1464023.330 5   3817782.168 5  25311270.831        3740.420
 -18695253.861 8 -14442555.367 9  21232966.762         -50.791
  -8576761.682 6  -6690467.304 5  24074873.446         -79.725
 -27395043.540 7 -10468142.116 8  22297506.994       -1829.484
 -10392789.179 6  -8130104.319 6  23067636.288        -333.821
 -15651730.308 8 -12107543.159 9  21353860.500        -274.582
 93  5  6  5 13 30.0020000  0  6 16  3 22 23 26 17                   0.002633980
   1576263.158 5   3905241.748 5  25332629.868        3742.259
 -18696562.386 8 -14443575.004 9  21232717.616         -36.651
  -8578882.924 6  -6692120.212 5  24074470.283         -61.700
 -27449744.920 7 -10510766.543 8  22287097.583       -1817.413
 -10402544.548 6  -8137705.882 6  23065779.836        -316.588
 -15659848.353 8 -12113868.904 9  21352315.620        -266.526
 93  5  6  5 14  0.0020000  0  6 16  3 22 23 26 17                   0.002640380
   1688562.285 5   3992747.576 5  25353999.886        3744.231
 -18697441.953 8 -14444260.374 9  21232550.391         -22.264
  -8580461.942 6  -6693350.605 5  24074167.205         -43.636
 -27504082.889 7 -10553107.786 8  22276757.350       -1805.252
 -10411785.458 6  -8144906.587 6  23064022.244        -299.502
 -15667715.660 8 -12119999.267 9  21350818.506        -258.019
 93  5  6  5 14 30.0020000  0  6 16  3 22 23 26 17                   0.002646780
   1800917.598 5   4080297.178 5  25375380.271        3746.012
 -18697888.435 8 -14444608.284 9  21232465.218          -7.779
  -8581504.252 6  -6694162.764 5  24073971.239         -25.879
 -27558055.513 7 -10595164.333 8  22266486.761       -1792.926
 -10420505.432 6  -8151701.329 6  23062362.351        -281.914
 -15675327.418 8 -12125930.499 9  21349370.388        -249.650
 93  5  6  5 15  0.0020000  0  6 16  3 22 23 26 17                   0.002653170
   1913322.316 5   4167885.228 5  25396768.264        3747.537
 -18697898.746 8 -14444616.321 9  21232463.451           6.904
  -8582011.018 6  -6694557.658 5  24073875.381          -7.782
 -27611660.627 7 -10636934.504 9  22256286.027       -1780.697
 -10428695.316 6  -8158083.036 6  23060804.021        -263.966
 -15682694.241 8 -12131670.868 9  21347967.979        -241.364
 93  5  6  5 15 30.0020000  0  6 16  3 22 23 26 17                   0.002659550
   2025772.359 5   4255508.629 5  25418166.043        3749.153
 -18697466.501 8 -14444279.511 9  21232545.736          21.715
  -8581978.250 6  -6694532.104 5  24073879.706           9.938
 -27664903.284 7 -10678422.281 9  22246154.439       -1768.664
 -10436342.628 6  -8164041.965 6  23059348.245        -245.866
 -15689808.570 8 -12137214.494 9  21346614.247        -232.886
 93  5  6  5 16  0.0020000  0  6 16  3 22 23 26 17                   0.002665930
   2138262.587 5   4343163.380 5  25439571.626        3750.162
 -18696595.329 8 -14443600.668 9  21232711.522          36.211
  -8581424.870 6  -6694100.905 6  24073984.982          27.005
 -27717783.108 7 -10719627.299 9  22236091.574       -1756.582
 -10443453.625 6  -8169582.976 6  23057996.266        -228.140
 -15696679.273 8 -12142568.292 9  21345306.461        -225.139
 93  5  6  5 16 30.0020000  0  6 16  3 22 23 26 17                   0.002672300
   2250789.632 5   4430846.803 5  25460985.261        3751.586
 -18695278.749 8 -14442574.776 9  21232961.876          51.266
  -8580349.183 6  -6693262.684 5  24074190.900          44.594
 -27770289.128 7 -10760541.056 8  22226099.842       -1743.789
 -10450022.168 6  -8174701.329 6  23056747.111        -209.882
 -15703312.989 8 -12147737.405 9  21344043.726        -217.248
 93  5  6  5 17  0.0020000  0  6 16  3 22 23 26 17                   0.002678670
   2363348.825 5   4518555.236 5  25482405.918        3752.380
 -18693513.933 8 -14441199.587 9  21233297.604          66.155
  -8578751.564 6  -6692017.772 6  24074494.425          61.821
 -27822412.933 7 -10801156.958 9  22216181.238       -1731.204
 -10456051.995 6  -8179399.838 6  23055599.172        -192.113
 -15709716.170 8 -12152726.879 9  21342825.752        -209.566
 93  5  6  5 17 30.0020000  0  6 16  3 22 23 26 17                   0.002685020
   2475935.883 5   4606285.359 5  25503828.676        3753.422
 -18691302.436 8 -14439476.354 9  21233718.403          81.016
  -8576641.603 6  -6690373.663 6  24074895.155          78.934
 -27874161.505 7 -10841480.489 9  22206333.708       -1718.637
 -10461550.734 6  -8183684.556 6  23054552.099        -174.599
 -15715888.709 8 -12157536.638 9  21341651.421        -202.075
 93  5  6  5 18  0.0020000  0  5  3 22 23 26 17                      0.002691420
 -18688643.765 8 -14437404.676 9  21234224.350          96.098
  -8574010.684 6  -6688323.612 6  24075394.504          96.609
 -27925522.762 7 -10881502.224 9  22196559.689       -1705.353
 -10466524.727 6  -8187560.386 6  23053605.414        -156.783
 -15721836.107 8 -12162170.970 9  21340519.377        -194.325
 93  5  6  5 18 30.0020000  0  5  3 22 23 26 17                      0.002697770
 -18685534.918 8 -14434982.201 9  21234815.872         111.122
  -8570849.944 6  -6685860.684 6  24075996.771         114.463
 -27976486.437 7 -10921214.149 9  22186861.586       -1692.048
 -10470958.434 6  -8191015.192 6  23052761.497        -138.634
 -15727555.037 8 -12166627.269 9  21339431.109        -186.647
 93  5  6  5 19  0.0020000  0  5  3 22 23 26 17                      0.002704130
 -18681973.209 8 -14432206.845 9  21235493.504         126.067
  -8567142.899 6  -6682972.056 6  24076702.039         132.703
 -28027047.881 7 -10960612.627 9  22177240.004       -1678.839
 -10474845.036 6  -8194043.680 6  23052020.843        -120.517
 -15733041.248 8 -12170902.218 9  21338387.225        -179.046
 93  5  6  5 19 30.0020000  0  5  3 22 23 26 17                      0.002710520
 -18677956.866 8 -14429077.235 9  21236257.705         141.365
  -8562878.171 6  -6679648.895 6  24077513.404         151.545
 -28077206.195 7 -10999696.993 9  22167695.474       -1665.065
 -10478187.025 6  -8196647.814 6  23051385.762        -102.327
 -15738287.639 8 -12174990.307 9  21337389.073        -170.828
 93  5  6  5 20  0.0020000  0  5  3 22 23 26 17                      0.002716910
 -18673482.283 8 -14425590.554 9  21237109.127         156.910
  -8558056.273 6  -6675891.595 6  24078429.202         169.866
 -28126951.671 7 -11038459.652 9  22158229.067       -1651.302
 -10480984.357 6  -8198827.520 6  23050853.915         -83.965
 -15743287.815 8 -12178886.538 9  21336437.303        -162.374
 93  5  6  5 20 30.0020000  0  5  3 22 23 26 17                      0.002723320
 -18668544.473 8 -14421742.909 9  21238049.024         172.028
  -8552692.865 6  -6671712.303 6  24079450.944         187.555
 -28176297.645 7 -11076911.038 9  22148839.077       -1638.581
 -10483236.542 6  -8200582.460 6  23050425.835         -66.298
 -15748039.363 8 -12182589.026 9  21335532.759        -154.372
 93  5  6  5 21  0.0020000  0  6  3 22 23 26 21 17                   0.002729590
 -18663144.144 8 -14417534.872 9  21239076.565         187.720
  -8546803.388 6  -6667123.093 6  24080568.865         204.939
 -28225262.244 7 -11115065.236 9  22139521.367       -1625.806
 -10484956.811 6  -8201922.924 6  23050097.241         -48.261
 -12767962.87915   -151716.99011  25029065.637       -2921.833
 -15752539.355 8 -12186095.505 9  21334676.641        -145.690
 93  5  6  5 21 30.0020000  0  6  3 22 23 26 21 17                   0.002735940
 -18657275.144 8 -14412961.632 9  21240193.452         203.369
  -8540403.957 6  -6662136.546 6  24081789.226         221.731
 -28273850.521 7 -11152926.174 9  22130275.170       -1613.404
 -10486128.754 7  -8202836.090 6  23049874.299         -29.808
 -12855536.127 5   -219955.736 3  25012400.896       -2916.474
 -15756780.535 8 -12189400.312 9  21333869.219        -137.047
 93  5  6  5 22  0.0020000  0  6  3 22 23 26 21 17                   0.002742280
 -18650940.242 8 -14408025.344 9  21241399.285         218.770
  -8533504.546 6  -6656760.373 6  24083101.345         238.374
 -28322078.183 7 -11190506.141 9  22121097.525       -1601.666
 -10486749.374 6  -8203319.662 6  23049755.898         -11.454
 -12942960.984 5   -288078.919 5  24995764.938       -2911.723
 -15760772.379 8 -12192510.841 9  21333109.914        -128.947
 93  5  6  5 22 30.0020000  0  6  3 22 23 26 21 17                   0.002748630
 -18644136.781 8 -14402723.950 9  21242694.010         234.482
  -8526087.148 6  -6650980.629 6  24084513.230         255.967
 -28369946.117 7 -11227805.797 9  22111988.750       -1589.529
 -10486812.591 6  -8203368.906 6  23049742.443           7.240
 -13030225.479 5   -356077.163 5  24979159.597       -2905.905
 -15764515.305 8 -12195427.389 9  21332397.598        -120.709
 93  5  6  5 23  0.0020000  0  6  3 22 23 26 21 17                   0.002755010
 -18636866.034 8 -14397058.432 9  21244077.950         250.125
  -8518142.730 6  -6644790.157 6  24086026.023         273.844
 -28417445.990 7 -11264818.664 9  22102949.549       -1576.978
 -10486311.489 6  -8202978.432 6  23049837.867          26.283
 -13117316.528 5   -423940.306 5  24962586.348       -2900.045
 -15768020.125 8 -12198158.408 9  21331730.101        -112.838
 93  5  6  5 23 30.0020000  0  6  3 22 23 26 21 17                   0.002761420
 -18629124.097 8 -14391025.749 9  21245551.050         265.836
  -8509657.075 6  -6638177.965 5  24087643.311         292.132
 -28464562.435 7 -11301532.745 9  22093983.702       -1563.854
 -10485242.004 6  -8202145.032 6  23050040.864          44.954
 -13204233.444 5   -491667.663 5  24946045.845       -2894.621
 -15771287.253 8 -12200704.200 9  21331108.799        -104.922
 93  5  6  5 24  0.0020000  0  6  3 22 23 26 21 17                   0.002767830
 -18620910.293 8 -14384625.391 9  21247114.228         281.550
  -8500622.504 6  -6631138.052 5  24089362.062         310.372
 -28511278.193 7 -11337934.615 9  22085093.878       -1550.458
 -10483621.011 6  -8200881.905 6  23050349.889          63.279
 -13290993.226 5   -559272.638 5  24929536.399       -2889.342
 -15774317.023 8 -12203065.055 9  21330532.260         -96.940
 93  5  6  5 24 30.0020000  0  6  3 22 23 26 21 17                   0.002774240
 -18612223.559 8 -14377856.502 9  21248767.105         297.282
  -8491037.858 6  -6623669.481 6  24091184.491         328.326
 -28557589.102 7 -11374021.019 9  22076281.579       -1537.080
 -10481440.255 6  -8199182.592 6  23050766.472          82.095
 -13377598.415 5   -626757.122 5  24913055.762       -2884.479
 -15777106.341 8 -12205238.544 9  21330001.506         -89.162
 93  5  6  5 25  0.0020000  0  6  3 22 23 26 21 17                   0.002780650
 -18603059.202 8 -14370715.456 9  21250511.008         313.449
  -8480920.013 6  -6615785.467 6  24093109.837         346.254
 -28603493.005 7 -11409790.259 9  22067546.404       -1523.282
 -10478690.312 6  -8197039.762 6  23051289.447         101.187
 -13464061.532 5   -694130.897 5  24896602.161       -2879.888
 -15779654.983 8 -12207224.487 9  21329517.034         -80.677
 93  5  6  5 25 30.0020000  0  6  3 22 23 26 21 17                   0.002787050
 -18593421.062 8 -14363205.211 9  21252344.706         328.876
  -8470278.769 6  -6607493.596 6  24095133.360         363.165
 -28649003.238 7 -11445252.753 9  22058885.779       -1510.628
 -10475381.515 6  -8194461.476 6  23051919.291         119.470
 -13550401.891 5   -761409.043 5  24880171.510       -2876.157
 -15781954.177 8 -12209016.068 9  21329079.567         -72.640
 93  5  6  5 26  0.0020000  0  6  3 22 23 26 21 17                   0.002793440
 -18583309.979 8 -14355326.449 9  21254268.776         344.871
  -8459123.796 6  -6598801.418 6  24097257.280         380.337
 -28694133.830 7 -11480419.430 9  22050297.635       -1498.264
 -10471509.155 6  -8191444.029 6  23052656.163         138.679
 -13636617.829 5   -828590.228 5  24863765.625       -2871.595
 -15784008.861 8 -12210617.104 9  21328688.527         -64.427
 93  5  6  5 26 30.0020000  0  6  3 22 23 26 21 17                   0.002799840
 -18572721.828 8 -14347075.943 9  21256283.673         361.059
  -8447464.059 6  -6589715.943 5  24099475.239         397.190
 -28738894.826 7 -11515298.091 9  22041779.995       -1485.410
 -10467058.179 6  -8187975.717 6  23053503.459         158.077
 -13722695.466 5   -895663.610 5  24847385.681       -2866.477
 -15785822.346 8 -12212030.195 9  21328342.957         -56.276
 93  5  6  5 27  0.0020000  0  6  3 22 23 26 21 17                   0.002806240
 -18561648.158 8 -14338447.121 9  21258391.059         376.955
  -8435291.732 6  -6580230.992 5  24101793.112         414.308
 -28783265.462 7 -11549872.583 9  22033336.579       -1472.724
 -10462039.526 6  -8184065.057 6  23054457.807         176.453
 -13808607.870 5   -962608.248 5  24831037.018       -2860.939
 -15787390.899 8 -12213252.445 9  21328044.592         -48.284
 93  5  6  5 27 30.0020000  0  6  3 22 23 26 21 17                   0.002812640
 -18550089.126 8 -14329440.086 9  21260590.509         393.358
  -8422598.145 6  -6570339.902 5  24104208.681         431.901
 -28827243.530 7 -11584141.196 9  22024967.493       -1459.167
 -10456463.942 6  -8179720.450 6  23055518.427         195.120
 -13894338.137 5  -1029410.995 5  24814722.875       -2854.242
 -15788718.332 8 -12214286.807 9  21327791.988         -40.348
 93  5  6  5 28  0.0020000  0  6  3 22 23 26 21 17                   0.002819060
 -18538040.926 8 -14320051.867 9  21262883.253         409.706
  -8409374.453 6  -6560035.694 5  24106726.664         449.732
 -28870815.499 7 -11618093.352 9  22016675.942       -1445.483
 -10450337.184 6  -8174946.327 6  23056685.451         213.314
 -13979870.852 5  -1096059.790 5  24798446.611       -2847.693
 -15789813.205 8 -12215139.939 9  21327583.354         -32.536
 93  5  6  5 28 30.0020000  0  6  3 22 23 26 21 17                   0.002825470
 -18525502.756 8 -14310281.875 9  21265269.280         425.979
  -8395617.341 6  -6549315.867 5  24109342.673         467.579
 -28913970.681 7 -11651720.728 9  22008463.950       -1431.431
 -10443674.543 7  -8169754.625 6  23057953.599         230.830
 -14065201.609 5  -1162551.174 5  24782208.962       -2840.822
 -15790669.836 8 -12215807.439 9  21327420.034         -24.427
 93  5  6  5 29  0.0020000  0  6  3 22 23 26 21 17                   0.002831870
 -18512473.095 8 -14300128.883 9  21267748.586         442.390
  -8381315.058 6  -6538171.257 5  24112065.508         485.747
 -28956707.883 7 -11685022.433 9  22000331.186       -1417.868
 -10436484.484 6  -8164151.988 6  23059321.938         248.609
 -14150320.856 5  -1228877.775 5  24766012.201       -2834.013
 -15791277.698 8 -12216281.095 9  21327304.383         -16.042
 93  5  6  5 29 30.0020000  0  6  3 22 23 26 21 17                   0.002838260
 -18498949.869 8 -14289591.311 9  21270321.972         458.978
  -8366475.905 6  -6526608.264 5  24114889.352         503.496
 -28999040.515 7 -11718008.871 9  21992275.694       -1404.219
 -10428755.682 6  -8158129.530 6  23060791.756         266.744
 -14235243.281 5  -1295051.013 5  24749851.154       -2827.629
 -15791632.963 8 -12216557.921 9  21327237.159          -7.509
 93  5  6  5 30  0.0020000  0  6  3 22 23 26 21 17                   0.002844650
 -18484938.155 8 -14278673.091 9  21272988.417         475.347
  -8351115.436 6  -6514639.075 5  24117812.069         520.748
 -29040977.165 7 -11750686.769 9  21984295.088       -1391.105
 -10420484.441 6  -8151684.372 6  23062366.369         285.112
 -14319987.199 5  -1361085.163 5  24733724.358       -2821.747
 -15791729.154 8 -12216632.850 9  21327219.063           1.434
 93  5  6  5 30 30.0020000  0  6  3 22 23 26 21 17                   0.002851020
 -18470432.592 8 -14267370.063 9  21275748.916         491.456
  -8335244.360 6  -6502271.986 5  24120830.448         537.390
 -29082517.839 7 -11783056.087 9  21976390.201       -1378.267
 -10411654.461 6  -8144803.859 7  23064045.764         303.665
 -14404554.343 5  -1426981.589 5  24717631.146       -2816.147
 -15791565.499 8 -12216505.341 9  21327249.883           9.500
 93  5  6  5 31  0.0020000  0  6  3 22 23 26 21 17                   0.002857400
 -18455433.789 8 -14255682.677 9  21278603.100         508.061
  -8318863.605 6  -6489507.757 5  24123948.090         554.421
 -29123665.484 7 -11815119.160 9  21968560.022       -1365.145
 -10402250.169 6  -8137475.815 6  23065835.487         323.133
 -14488956.675 5  -1492749.577 5  24701570.266       -2810.980
 -15791157.069 8 -12216187.065 9  21327328.149          17.508
 93  5  6  5 31 30.0020000  0  6  3 22 23 26 21 17                   0.002863780
 -18439940.734 8 -14243610.166 9  21281551.052         524.600
  -8301982.986 6  -6476354.047 5  24127159.184         571.060
 -29164420.183 7 -11846876.055 9  21960804.552       -1351.774
 -10392270.370 6  -8129699.345 6  23067734.744         342.277
 -14573216.443 5  -1558406.465 5  24685536.238       -2806.084
 -15790513.659 8 -12215685.702 9  21327450.266          25.365
 93  5  6  5 32  0.0020000  0  6  3 22 23 26 21 17                   0.002870140
 -18423954.024 8 -14231152.995 9  21284593.182         541.003
  -8284605.940 6  -6462813.471 5  24130465.268         587.551
 -29204782.021 7 -11878326.802 9  21953124.257       -1338.954
 -10381720.031 6  -8121478.276 6  23069742.798         361.111
 -14657324.486 5  -1623945.128 5  24669531.397       -2800.980
 -15789640.612 8 -12215005.398 9  21327616.480          32.783
 93  5  6  5 32 30.0020000  0  6  3 22 23 26 21 17                   0.002876520
 -18407469.432 8 -14218307.866 9  21287730.151         557.579
  -8266717.031 6  -6448874.074 5  24133870.672         604.907
 -29244751.907 7 -11909472.150 9  21945518.025       -1325.979
 -10370599.913 6  -8112813.211 6  23071858.828         379.995
 -14741270.564 5  -1689357.583 5  24653556.411       -2795.485
 -15788544.028 8 -12214150.900 9  21327825.055          40.286
 93  5  6  5 33  0.0020000  0  6  3 22 23 26 21 17                   0.002882890
 -18390486.176 8 -14205074.154 9  21290962.111         574.311
  -8248305.194 6  -6434527.205 5  24137374.381         622.437
 -29284334.326 7 -11940315.570 9  21937985.510       -1312.920
 -10358920.414 6  -8103712.287 6  23074080.680         398.565
 -14825054.204 5  -1754643.494 5  24637612.903       -2789.962
 -15787214.580 8 -12213114.957 9  21328077.619          48.385
 93  5  6  5 33 30.0020000  0  6  3 22 23 26 21 17                   0.002889270
 -18373000.144 8 -14191448.692 9  21294289.750         591.320
  -8229369.945 6  -6419772.445 5  24140977.572         640.144
 -29323525.145 7 -11970853.836 9  21930527.932       -1299.671
 -10346683.035 6  -8094176.671 6  23076409.529         417.394
 -14908660.728 5  -1819791.373 5  24621703.520       -2783.394
 -15785635.175 8 -12211884.247 9  21328378.370          56.966
 93  5  6  5 34  0.0020000  0  6  3 22 23 26 21 17                   0.002895660
 -18355009.932 8 -14177430.338 9  21297713.031         608.053
  -8209903.321 6  -6404603.640 6  24144681.104         657.947
 -29362324.354 7 -12001086.960 9  21923144.520       -1286.734
 -10333885.933 6  -8084204.874 7  23078845.878         435.889
 -14992069.092 5  -1884784.861 5  24605831.926       -2777.158
 -15783802.853 8 -12210456.455 9  21328727.301          65.312
 93  5  6  5 34 30.0020000  0  6  3 22 23 26 21 17                   0.002902070
 -18336512.855 8 -14163017.036 9  21301232.914         624.952
  -8189896.798 6  -6389014.135 6  24148489.297         675.848
 -29400724.229 7 -12031008.920 9  21915837.481       -1273.292
 -10320524.953 6  -8073793.722 7  23081387.703         454.772
 -15075287.111 5  -1949629.990 5  24589995.849       -2770.839
 -15781719.551 8 -12208833.092 9  21329123.610          73.640
 93  5  6  5 35  0.0020000  0  6  3 22 23 26 21 17                   0.002908470
 -18317506.332 8 -14148206.760 9  21304849.659         641.904
  -8169360.575 6  -6373011.894 6  24152397.810         693.179
 -29438721.796 7 -12060617.386 9  21908607.158       -1259.889
 -10306600.061 6  -8062943.135 7  23084035.601         473.685
 -15158318.519 5  -2014329.737 5  24574195.320       -2764.621
 -15779386.705 8 -12207015.290 9  21329567.377          81.819
 93  5  6  5 35 30.0020000  0  6  3 22 23 26 21 17                   0.002914900
 -18297988.286 8 -14132997.894 9  21308563.998         659.191
  -8148310.363 6  -6356609.137 6  24156403.423         710.251
 -29476321.646 7 -12089915.941 9  21901452.112       -1246.674
 -10292099.285 6  -8051643.804 7  23086795.865         492.977
 -15241156.534 5  -2078878.771 5  24558431.413       -2757.881
 -15776811.218 8 -12205008.391 9  21330057.718          89.876
 93  5  6  5 36  0.0020000  0  6  3 22 23 26 21 17                   0.002921330
 -18277954.990 8 -14117387.526 9  21312376.101         676.323
  -8126748.801 6  -6339807.919 6  24160506.844         727.281
 -29513518.365 7 -12118900.388 9  21894373.710       -1232.948
 -10277024.240 6  -8039897.003 7  23089664.071         512.233
 -15323801.017 5  -2143277.021 5  24542704.844       -2751.668
 -15773997.255 8 -12202815.691 9  21330593.195          97.925
 93  5  6  5 36 30.0020000  0  6  3 22 23 26 21 17                   0.002927770
 -18257407.260 8 -14101376.318 9  21316286.332         693.428
  -8104679.827 6  -6322611.326 6  24164706.966         744.013
 -29550305.891 7 -12147565.963 9  21887373.418       -1219.418
 -10261370.591 6  -8027699.342 7  23092643.048         531.494
 -15406261.250 5  -2207531.709 5  24527012.586       -2745.510
 -15770940.357 8 -12200433.674 1  21331174.805         106.127
 93  5  6  5 37  0.0020000  0  6  3 22 23 26 21 17                   0.002934220
 -18236348.045 8 -14084966.548 9  21320293.601         710.464
  -8082109.757 6  -6305024.241 6  24169001.280         760.658
 -29586685.915 7 -12175914.012 9  21880450.197       -1205.689
 -10245139.400 6  -8015051.624 7  23095731.616         550.841
 -15488525.749 5  -2271633.840 5  24511358.576       -2738.652
 -15767631.099 8 -12197855.025 1  21331804.989         114.769
 93  5  6  5 37 30.0020000  0  6  3 22 23 26 21 17                   0.002940670
 -18214779.519 8 -14068159.893 9  21324398.106         727.256
  -8059046.668 6  -6287053.019 6  24173389.656         777.122
 -29622647.400 7 -12203935.911 9  21873607.028       -1191.633
 -10228329.533 6  -8001953.026 7  23098931.661         569.771
 -15570587.525 5  -2335578.031 5  24495742.754       -2732.122
 -15764055.893 8 -12195069.145 1  21332484.968         123.642
 93  5  6  5 38  0.0020000  0  6  3 22 23 26 21 17                   0.002947100
 -18192700.637 8 -14050955.586 9  21328599.148         744.267
  -8035473.766 6  -6268684.536 6  24177876.526         794.226
 -29658174.389 7 -12231619.265 9  21866846.286       -1177.113
 -10210947.261 6  -7988408.378 7  23102239.651         588.959
 -15652455.511 5  -2399371.181 5  24480163.024       -2725.915
 -15760204.297 8 -12192067.887 1  21333217.820         133.008
 93  5  6  5 38 30.0020000  0  6  3 22 23 26 21 17                   0.002953510
 -18170111.508 8 -14033353.664 9  21332897.562         761.591
  -8011390.732 6  -6249918.561 6  24182458.312         811.450
 -29693276.176 7 -12258971.271 9  21860166.543       -1162.923
 -10192990.466 6  -7974416.070 7  23105655.965         608.312
 -15734131.436 5  -2463014.704 5  24464620.486       -2718.951
 -15756071.810 8 -12188847.766 1  21334004.296         142.476
 93  5  6  5 39  0.0020000  0  6  3 22 23 26 21 17                   0.002959940
 -18147001.652 8 -14015345.995 9  21337295.308         778.939
  -7986804.986 6  -6230760.843 6  24187137.945         827.684
 -29727956.190 7 -12285994.643 9  21853567.330       -1149.073
 -10174458.372 6  -7959975.458 7  23109183.229         627.235
 -15815598.880 5  -2526495.751 5  24449117.489       -2712.249
 -15751664.074 8 -12185413.153 1  21334842.679         151.459
 93  5  6  5 39 30.0020000  0  6  3 22 23 26 21 17                   0.002966340
 -18123373.788 8 -13996934.672 9  21341791.734         796.051
  -7961732.071 6  -6211223.500 6  24191908.134         844.060
 -29762232.248 7 -12312703.230 9  21847044.788       -1136.093
 -10155364.348 6  -7945096.976 7  23112816.970         645.560
 -15896874.207 5  -2589827.127 5  24433651.661       -2706.049
 -15746997.527 8 -12181776.864 1  21335730.341         159.447
 93  5  6  5 40  0.0020000  0  6  3 22 23 26 21 17                   0.002972730
 -18099231.647 8 -13978122.617 9  21346386.253         813.408
  -7936170.526 6  -6191305.420 6  24196772.065         860.258
 -29796128.614 7 -12339115.959 9  21840594.720       -1123.402
 -10135727.521 6  -7929795.514 7  23116551.859         663.812
 -15977956.453 5  -2653008.033 5  24418222.066       -2699.195
 -15742102.671 8 -12177962.673 2  21336661.687         167.203
 93  5  6  5 40 30.0020000  0  6  3 22 23 26 21 17                   0.002979140
 -18074565.021 8 -13958901.884 9  21351079.946         830.747
  -7910127.233 6  -6171011.973 6  24201728.116         876.019
 -29829645.852 8 -12365233.260 9  21834216.535       -1111.094
 -10115542.571 6  -7914066.996 7  23120393.521         681.769
 -16058824.087 5  -2716021.711 5  24402833.473       -2691.994
 -15736971.641 8 -12173964.467 1  21337638.290         174.771
 93  5  6  5 41  0.0020000  0  6  3 22 23 26 21 17                   0.002985550
 -18049376.751 8 -13939274.666 9  21355872.998         848.384
  -7883603.401 6  -6150344.072 6  24206776.295         892.390
 -29862790.532 7 -12391060.260 9  21827909.235       -1098.337
 -10094818.464 6  -7897918.312 7  23124337.912         699.952
 -16139475.294 5  -2778866.777 5  24387485.967       -2684.712
 -15731611.406 8 -12169787.644 2  21338658.832         182.779
 93  5  6  5 41 30.0020000  0  6  3 22 23 26 21 17                   0.002991950
 -18023667.496 8 -13919241.480 9  21360765.470         865.566
  -7856586.154 6  -6129291.679 6  24211917.322         909.106
 -29895550.053 7 -12416587.141 9  21821675.068       -1085.359
 -10073555.635 6  -7881349.869 7  23128384.294         717.825
 -16219914.650 5  -2841546.746 5  24372178.874       -2677.789
 -15726016.100 8 -12165427.668 1  21339723.507         190.521
 93  5  6  5 42  0.0020000  0  6  3 22 23 26 21 17                   0.002998350
 -17997433.630 8 -13898799.504 9  21365757.793         883.041
  -7829059.709 6  -6107842.525 6  24217154.573         925.954
 -29927909.131 7 -12441801.984 9  21815517.444       -1071.905
 -10051739.331 6  -7864350.134 7  23132534.628         736.700
 -16300146.398 5  -2904064.921 5  24356911.645       -2671.368
 -15720172.836 8 -12160874.467 2  21340835.627         199.090
 93  5  6  5 42 30.0030000  0  6  3 22 23 26 21 17                   0.003004760
 -17970678.916 8 -13877951.687 9  21370849.060         900.522
  -7801022.171 6  -6085995.106 6  24222490.029         943.426
 -29959866.310 7 -12466703.651 9  21809436.442       -1058.333
 -10029347.532 6  -7846901.947 7  23136795.950         756.214
 -16380199.163 6  -2966443.628 5  24341678.151       -2665.190
 -15714076.101 8 -12156123.761 2  21341995.661         207.434
 93  5  6  5 43  0.0030000  0  6  3 22 23 26 21 17                   0.003011190
 -17943400.900 8 -13856696.100 9  21376039.645         917.722
  -7772462.170 6  -6063740.589 6  24227924.693         960.446
 -29991413.027 7 -12491285.476 9  21803433.067       -1044.706
 -10006373.315 6  -7828999.944 7  23141166.975         775.344
 -16460070.468 5  -3028680.953 5  24326479.407       -2659.713
 -15707738.352 8 -12151185.262 2  21343201.709         215.094
 93  5  6  5 43 30.0030000  0  6  3 22 23 26 21 17                   0.003017630
 -17915598.027 7 -13835031.530 9  21381330.315         935.338
  -7743372.899 6  -6041073.647 5  24233459.006         978.386
 -30022537.461 7 -12515538.261 9  21797510.107       -1030.460
  -9982810.255 6  -7810639.116 7  23145651.500         795.189
 -16539769.913 5  -3090784.345 5  24311312.310       -2653.939
 -15701157.308 8 -12146057.162 3  21344454.151         223.391
 93  5  6  5 44  0.0030000  0  7  3 22 23 26 28 21 17                0.003024200
 -17887269.815 8 -13812957.591 9  21386720.691         953.108
  -7713762.628 6  -6018000.725 5  24239094.162         995.696
 -30053243.229 7 -12539464.815 9  21791667.106       -1016.460
  -9958657.614 6  -7791818.833 7  23150247.326         815.045
  -3688757.58415   -890324.65115  25587545.984       -3282.865
 -16619292.112 5  -3152749.624 5  24296179.533       -2647.408
 -15694332.546 8 -12140739.159 2  21345752.771         231.597
 93  5  6  5 44 30.0030000  0  7  3 22 23 26 28 21 17                0.003030620
 -17858414.725 8 -13790473.111 9  21392211.751         970.556
  -7683644.526 6  -5994532.088 5  24244825.476        1012.156
 -30083534.642 7 -12563068.476 9  21785902.852       -1002.714
  -9933925.986 6  -7772547.425 7  23154952.699         833.846
  -3787207.681 5   -967038.942 5  25568811.473       -3280.140
 -16698607.057 6  -3214553.408 5  24281086.181       -2639.964
 -15687270.771 8 -12135236.468 3  21347097.012         239.441
 93  5  6  5 45  0.0030000  0  7  3 22 23 26 28 21 17                0.003037050
 -17829034.067 8 -13767579.104 9  21397802.818         987.825
  -7653048.610 6  -5970691.180 5  24250648.320        1027.427
 -30113415.633 7 -12586352.340 9  21780216.700        -989.387
  -9908635.843 6  -7752840.800 7  23159765.542         852.058
  -3885572.113 6  -1043686.481 5  25550093.868       -3277.483
 -16777697.720 5  -3276182.472 5  24266036.347       -2632.814
 -15679960.554 8 -12129540.208 3  21348488.182         247.891
 93  5  6  5 45 30.0030000  0  7  3 22 23 26 28 21 17                0.003043480
 -17799128.368 8 -13744275.967 9  21403493.890        1005.527
  -7621989.728 5  -5946489.430 5  24256558.630        1042.927
 -30142892.856 7 -12609321.568 9  21774607.492        -975.950
  -9882790.033 6  -7732701.194 7  23164683.648         870.812
  -3983842.684 5  -1120260.834 5  25531393.728       -3274.072
 -16856567.109 5  -3337639.093 5  24251028.338       -2625.197
 -15672382.158 8 -12123634.953 4  21349929.543         257.093
 93  5  6  5 46  0.0030000  0  7  3 22 23 26 28 21 17                0.003049920
 -17768689.399 8 -13720557.302 9  21409286.198        1023.341
  -7590480.776 6  -5921937.064 5  24262554.980        1057.757
 -30171975.637 7 -12631983.451 9  21769073.224        -963.103
  -9856384.078 6  -7712125.124 7  23169708.705         889.579
  -4082013.024 5  -1196757.140 5  25512712.333       -3270.769
 -16935207.598 6  -3398917.335 5  24236063.142       -2617.588
 -15664529.347 8 -12117515.876 3  21351423.647         266.272
 93  5  6  5 46 30.0030000  0  7  3 22 23 26 28 21 17                0.003056350
 -17737718.242 8 -13696423.945 9  21415180.249        1041.172
  -7558518.379 6  -5897031.328 5  24268637.372        1073.008
 -30200672.178 8 -12654344.360 9  21763612.111        -949.953
  -9829415.601 6  -7691110.716 7  23174839.985         908.272
  -4180085.717 5  -1273177.326 5  25494050.130       -3267.422
 -17013631.494 6  -3460026.825 5  24221139.432       -2610.706
 -15656401.034 8 -12111182.123 3  21352970.288         275.492
 93  5  6  5 47  0.0030000  0  7  3 22 23 26 28 21 17                0.003062780
 -17706213.230 8 -13671874.588 9  21421175.110        1058.972
  -7526093.290 6  -5871765.048 5  24274808.092        1088.818
 -30228971.240 7 -12676395.549 9  21758226.922        -936.747
  -9801890.886 6  -7669662.873 7  23180078.736         926.607
  -4278055.425 5  -1349517.264 5  25475407.057       -3264.032
 -17091857.506 6  -3520982.107 5  24206253.596       -2604.285
 -15648003.596 8 -12104638.651 4  21354568.192         284.130
 93  5  6  5 47 30.0030000  0  7  3 22 23 26 28 21 17                0.003069210
 -17674173.801 8 -13646908.814 9  21427272.188        1076.776
  -7493189.362 6  -5846125.642 5  24281069.683        1104.769
 -30256872.310 7 -12698136.626 9  21752917.642        -923.251
  -9773820.011 6  -7647789.487 7  23185421.623         944.857
  -4375924.870 5  -1425779.053 5  25456783.050       -3260.691
 -17169880.511 6  -3581779.211 5  24191406.548       -2597.236
 -15639361.082 8 -12097904.227 5  21356213.141         291.938
 93  5  6  5 48  0.0030000  0  7  3 22 23 26 28 21 17                0.003075620
 -17641598.072 8 -13621525.134 9  21433471.178        1094.709
  -7459801.278 6  -5820109.007 5  24287423.137        1121.136
 -30284359.997 7 -12719555.566 9  21747686.828        -909.267
  -9745202.804 6  -7625490.312 7  23190867.278         962.996
  -4473692.766 5  -1501961.705 5  25438177.387       -3257.289
 -17247685.973 5  -3642406.824 5  24176600.527       -2589.765
 -15630483.739 8 -12090986.794 5  21357903.290         299.856
 93  5  6  5 48 30.0030000  0  7  3 22 23 26 28 21 17                0.003082050
 -17608487.641 8 -13595724.786 9  21439772.193        1112.694
  -7425923.673 6  -5793710.876 5  24293869.842        1137.497
 -30311422.981 7 -12740643.573 9  21742536.765        -894.748
  -9716048.441 6  -7602772.614 7  23196415.187         980.878
  -4571362.440 5  -1578067.812 5  25419591.715       -3253.809
 -17325266.464 6  -3702859.088 5  24161837.887       -2582.015
 -15621378.310 8 -12083891.646 5  21359635.771         307.465
 93  5  6  5 49  0.0030000  0  7  3 22 23 26 28 21 17                0.003088460
 -17574840.738 8 -13569506.441 9  21446174.822        1130.403
  -7391567.354 6  -5766939.753 5  24300407.395        1153.146
 -30338067.297 7 -12761405.354 9  21737466.536        -881.501
  -9686358.553 6  -7579637.638 7  23202064.487         998.686
  -4668941.962 5  -1654103.732 5  25401022.520       -3251.341
 -17402610.036 6  -3763126.750 5  24147119.006       -2574.140
 -15612040.046 8 -12076615.083 5  21361413.273         315.340
 93  5  6  5 49 30.0030000  0  7  3 22 23 26 28 21 17                0.003094880
 -17540659.639 8 -13542871.825 9  21452678.858        1147.977
  -7356736.707 6  -5739799.008 5  24307035.412        1168.825
 -30364311.010 7 -12781854.993 9  21732472.683        -868.177
  -9656115.216 6  -7556071.403 7  23207819.360        1017.450
  -4766443.997 5  -1730079.232 5  25382468.972       -3248.817
 -17479719.659 6  -3823212.150 5  24132445.634       -2566.791
 -15602453.578 8 -12069145.109 5  21363237.427         323.702
 93  5  6  5 50  0.0030000  0  7  3 22 23 26 28 21 17                0.003101290
 -17505946.633 7 -13515822.720 9  21459284.507        1165.922
  -7321429.486 6  -5712286.880 5  24313753.739        1184.862
 -30390155.676 8 -12801993.652 9  21727554.657        -855.082
  -9625303.602 7  -7532062.331 7  23213682.801        1036.601
  -4863871.337 5  -1805996.556 5  25363927.802       -3246.443
 -17556616.565 6  -3883131.779 5  24117812.937       -2559.702
 -15592609.286 8 -12061474.211 5  21365110.621         332.506
 93  5  6  5 50 30.0030000  0  7  3 22 23 26 28 21 17                0.003107710
 -17470701.333 7 -13488358.882 9  21465991.485        1183.776
  -7285648.926 6  -5684405.974 5  24320562.009        1200.712
 -30415621.798 8 -12821837.378 9  21722708.601        -842.446
  -9593920.423 6  -7507607.895 7  23219656.060        1055.785
  -4961228.202 5  -1881858.949 5  25345401.814       -3243.659
 -17633308.104 6  -3942891.363 5  24103218.717       -2552.925
 -15582509.203 8 -12053604.026 5  21367032.172         341.051
 93  5  6  5 51  0.0030000  0  7  3 22 23 26 28 21 17                0.003114140
 -17434918.659 7 -13460476.269 9  21472800.648        1201.699
  -7249384.225 6  -5656147.782 5  24327462.500        1217.144
 -30440706.128 7 -12841383.571 9  21717935.437        -829.580
  -9561960.269 7  -7482703.870 7  23225737.239        1075.017
  -5058490.332 5  -1957647.555 5  25326893.296       -3240.250
 -17709795.722 6  -4002492.054 5  24088663.705       -2546.203
 -15572151.934 8 -12045533.414 5  21369003.236         349.463
 93  5  6  5 51 30.0030000  0  7  3 22 23 26 28 21 17                0.003120580
 -17398599.617 7 -13432175.737 9  21479712.114        1219.480
  -7212627.582 6  -5627506.270 5  24334457.498        1233.274
 -30465393.055 7 -12860620.114 9  21713237.850        -816.156
  -9529427.916 7  -7457353.984 7  23231928.086        1093.799
  -5155642.993 5  -2033350.910 5  25308406.593       -3236.634
 -17786087.067 6  -4061939.828 5  24074145.662       -2539.800
 -15561554.884 8 -12037275.969 5  21371019.320         357.091
 93  5  6  5 52  0.0030000  0  7  3 22 23 26 28 21 17                0.003127020
 -17361744.191 7 -13403457.227 9  21486725.431        1237.433
  -7175394.924 6  -5598493.802 5  24341543.221        1248.853
 -30489683.826 7 -12879547.947 9  21708615.388        -803.241
  -9496342.159 6  -7431572.837 7  23238224.114        1112.019
  -5252687.667 5  -2108970.084 5  25289938.553       -3232.945
 -17862178.043 6  -4121231.475 5  24059666.271       -2532.811
 -15550726.647 8 -12028838.366 5  21373079.875         364.900
 93  5  6  5 52 30.0030000  0  7  3 22 23 26 28 21 17                0.003133470
 -17324346.470 7 -13374316.147 9  21493841.885        1255.521
  -7137692.823 6  -5569115.556 5  24348716.484        1264.570
 -30513576.307 8 -12898165.472 9  21704068.535        -789.502
  -9462705.754 6  -7405362.641 7  23244624.255        1130.278
  -5349603.208 5  -2184488.614 5  25271496.093       -3228.168
 -17938053.206 5  -4180354.912 5  24045227.037       -2525.536
 -15539656.198 8 -12020212.030 5  21375187.076         373.076
 93  5  6  5 53  0.0030000  0  7  3 22 23 26 28 21 17                0.003139910
 -17286410.100 8 -13344755.370 9  21501060.745        1273.342
  -7099534.926 5  -5539382.163 5  24355977.596        1279.121
 -30537056.854 7 -12916461.979 9  21699600.152        -775.917
  -9428526.228 7  -7378729.233 7  23251128.206        1148.385
  -5446392.030 5  -2259908.438 5  25253077.616       -3224.472
 -18013714.550 6  -4239311.759 5  24030828.998       -2518.465
 -15528342.135 8 -12011395.867 5  21377340.234         381.291
 93  5  6  5 53 30.0030000  0  7  3 22 23 26 28 21 17                0.003146330
 -17247938.953 8 -13314777.848 9  21508381.689        1291.221
  -7060954.588 6  -5509319.541 5  24363319.387        1292.844
 -30560130.734 8 -12934441.593 9  21695209.299        -762.432
  -9393803.907 6  -7351672.882 7  23257735.697        1166.339
  -5543076.202 5  -2335246.791 5  25234679.393       -3221.088
 -18089161.261 6  -4298101.327 5  24016471.452       -2511.272
 -15516774.459 8 -12002382.069 5  21379541.402         390.095
 93  5  6  5 54  0.0030000  0  7  3 22 23 26 28 21 17                0.003152740
 -17208929.904 8 -13284381.203 9  21515804.988        1309.221
  -7021959.383 6  -5478933.669 5  24370740.296        1306.879
 -30582801.019 8 -12952106.746 9  21690894.966        -748.790
  -9358539.806 7  -7324194.354 7  23264445.940        1184.691
  -5639645.393 5  -2410495.428 5  25216302.905       -3216.738
 -18164382.837 5  -4356715.537 5  24002157.212       -2503.440
 -15504932.788 8 -11993154.805 5  21381794.752         399.250
 93  5  6  5 54 30.0030000  0  7  3 22 23 26 28 21 17                0.003159120
 -17169380.714 8 -13253563.671 9  21523331.227        1326.967
  -6982542.917 6  -5448219.569 5  24378241.271        1320.752
 -30605050.832 7 -12969444.240 9  21686661.057        -734.736
  -9322726.426 6  -7296287.793 7  23271260.368        1202.676
  -5736076.224 5  -2485636.319 5  25197951.314       -3212.282
 -18239373.223 5  -4415149.538 5  23987886.622       -2495.982
 -15492822.920 8 -11983718.528 5  21384098.895         407.776
 93  5  6  5 55  0.0030000  0  7  3 22 23 26 28 21 17                0.003165500
 -17129295.305 7 -13222328.302 9  21530959.427        1345.049
  -6942707.636 6  -5417179.064 5  24385821.590        1334.915
 -30626882.255 8 -12986455.707 9  21682506.893        -720.910
  -9286373.776 6  -7267961.037 7  23278178.832        1220.798
  -5832382.008 5  -2560679.749 5  25179625.322       -3208.105
 -18314133.286 6  -4473404.068 5  23973661.236       -2488.100
 -15480459.777 8 -11974084.904 5  21386451.677         416.338
 93  5  6  5 55 30.0030000  0  7  3 22 23 26 28 21 17                0.003171870
 -17088672.360 8 -13190674.055 9  21538689.775        1363.011
  -6902434.144 6  -5385797.121 5  24393484.460        1350.309
 -30648308.997 8 -13003151.847 9  21678429.556        -707.483
  -9249480.176 6  -7239212.764 7  23285200.134        1238.907
  -5928558.087 5  -2635622.088 5  25161323.141       -3203.416
 -18388659.418 6  -4531476.329 5  23959478.818       -2480.285
 -15467845.704 8 -11964255.747 5  21388851.807         424.661
 93  5  6  5 56  0.0030000  0  7  3 22 23 26 28 21 17                0.003178250
 -17047506.907 8 -13158597.101 9  21546522.993        1381.284
  -6861686.347 5  -5354045.628 5  24401239.924        1366.400
 -30669334.514 8 -13019535.353 9  21674428.764        -694.017
  -9212034.182 6  -7210034.060 7  23292327.177        1257.604
  -6024582.764 5  -2710446.464 5  25143050.741       -3198.319
 -18462949.811 6  -4589364.924 6  23945342.259       -2472.285
 -15454988.007 8 -11954236.769 5  21391298.203         432.662
 93  5  6  5 56 30.0030000  0  7  3 22 23 26 28 21 17                0.003184650
 -17005796.012 7 -13126095.130 9  21554460.107        1399.331
  -6820462.161 6  -5321922.899 5  24409084.907        1382.094
 -30689964.752 8 -13035610.846 9  21670502.734        -681.308
  -9174034.855 6  -7180424.193 7  23299556.843        1275.718
  -6120470.572 6  -2785164.182 5  25124805.177       -3194.301
 -18537008.060 6  -4647072.609 6  23931248.870       -2464.845
 -15441890.152 8 -11944030.631 5  21393790.837         440.748
 93  5  6  5 57  0.0030000  0  7  3 22 23 26 28 21 17                0.003191060
 -16963543.374 7 -13093171.005 9  21562500.751        1417.259
  -6778762.767 6  -5289429.861 5  24417020.128        1397.811
 -30710217.409 8 -13051392.124 9  21666648.682        -668.914
  -9135489.602 6  -7150388.904 6  23306892.014        1294.013
  -6216244.654 6  -2859793.254 5  25106579.574       -3190.531
 -18610839.600 6  -4704603.609 6  23917199.027       -2457.348
 -15428542.736 8 -11933630.052 4  21396330.985         449.131
 93  5  6  5 57 30.0030000  0  7  3 22 23 26 28 21 17                0.003197490
 -16920739.464 7 -13059817.317 9  21570646.402        1435.787
  -6736583.218 6  -5256562.666 5  24425046.951        1413.668
 -30730086.698 8 -13066874.651 9  21662867.530        -655.888
  -9096378.475 6  -7119912.715 6  23314334.991        1313.020
  -6311882.651 5  -2934316.265 5  25088380.512       -3185.645
 -18684436.643 6  -4761951.913 6  23903194.660       -2449.498
 -15414924.544 8 -11923018.464 3  21398922.833         458.332
 93  5  6  5 58  0.0030000  0  7  3 22 23 26 28 21 17                0.003203920
 -16877387.582 7 -13026036.661 8  21578895.472        1454.218
  -6693947.976 5  -5223340.415 5  24433158.773        1428.478
 -30749560.896 8 -13082049.356 9  21659161.763        -642.263
  -9056710.474 6  -7089002.576 6  23321883.165        1331.567
  -6407386.632 5  -3008734.913 5  25070206.111       -3181.252
 -18757800.032 6  -4819118.158 6  23889234.360       -2441.359
 -15401039.684 8 -11912199.088 3  21401565.114         467.454
 93  5  6  5 58 30.0030000  0  7  3 22 23 26 28 21 17                0.003210340
 -16833483.089 7 -12991825.379 8  21587250.048        1472.370
  -6650874.107 6  -5189776.362 5  24441355.693        1443.104
 -30768623.122 8 -13096903.004 9  21655534.724        -628.600
  -9016488.610 6  -7057660.837 6  23329536.369        1349.872
  -6502755.132 5  -3083047.913 5  25052057.741       -3176.738
 -18830920.408 6  -4876094.974 6  23875319.292       -2433.446
 -15386874.955 8 -11901161.625 3  21404260.518         476.713
 93  5  6  5 59  0.0030000  0  7  3 22 23 26 28 21 17                0.003216770
 -16789032.372 7 -12957188.470 8  21595708.872        1490.796
  -6607354.691 6  -5155865.144 5  24449636.596        1458.031
 -30787263.677 8 -13111428.099 9  21651987.550        -614.186
  -8975712.616 6  -7025887.345 6  23337296.049        1368.650
  -6597973.797 5  -3157244.226 5  25033938.262       -3171.150
 -18903797.876 6  -4932882.590 6  23861451.988       -2425.248
 -15372436.818 8 -11889911.118 3  21407008.057         485.833
 93  5  6  5 59 30.0030000  0  7  3 22 23 26 28 21 17                0.003223180
 -16744035.553 7 -12922126.021 8  21604271.762        1508.962
  -6563401.954 6  -5121616.253 5  24458001.181        1472.337
 -30805479.961 8 -13125622.580 9  21648521.001        -599.963
  -8934378.638 6  -6993679.031 6  23345161.429        1387.140
  -6693027.588 6  -3231311.991 5  25015850.075       -3165.661
 -18976439.367 6  -4989486.292 6  23847628.545       -2417.373
 -15357727.855 8 -11878449.585 2  21409806.848         494.904
 93  5  6  6  0  0.0030000  0  7  3 22 23 26 28 21 17                0.003229580
 -16698489.229 7 -12886635.406 8  21612938.974        1527.138
  -6519023.829 6  -5087035.927 5  24466446.521        1486.224
 -30823267.768 8 -13139483.191 9  21645135.825        -586.122
  -8892496.840 6  -6961043.854 6  23353131.683        1404.993
  -6787922.291 6  -3305255.827 5  24997791.950       -3160.598
 -19048849.870 6  -5045909.984 6  23833849.298       -2410.039
 -15342753.031 8 -11866780.887 3  21412656.926         503.409
 93  5  6  6  0 30.0030000  0  7  3 22 23 26 28 21 17                0.003235960
 -16652398.377 7 -12850720.474 8  21621709.520        1545.413
  -6474223.444 6  -5052126.501 5  24474971.538        1500.601
 -30840655.876 7 -13153032.361 9  21641826.887        -573.090
  -8850080.062 6  -6927991.833 6  23361203.194        1422.914
  -6882656.262 5  -3379074.431 5  24979763.782       -3154.882
 -19121042.756 6  -5102164.176 6  23820110.619       -2402.733
 -15327518.946 8 -11854910.192 3  21415555.650         512.173
 93  5  6  6  1  0.0030000  0  7  3 22 23 26 28 21 17                0.003242340
 -16605758.764 7 -12814377.926 8  21630584.400        1563.830
  -6428994.359 6  -5016883.095 5  24483579.037        1514.498
 -30857655.761 8 -13166279.003 9  21638591.845        -560.322
  -8807130.761 6  -6894524.837 6  23369376.337        1440.516
  -6977222.837 5  -3452762.586 5  24961768.165       -3149.439
 -19193017.956 6  -5158248.672 6  23806414.429       -2395.508
 -15312033.753 8 -11842843.793 3  21418502.361         520.345
 93  5  6  6  1 30.0030000  0  7  3 22 23 26 28 21 17                0.003248720
 -16558568.458 7 -12777606.304 8  21639564.282        1582.063
  -6383360.230 6  -4981324.035 5  24492262.854        1527.950
 -30874282.690 8 -13179235.060 9  21635427.716        -547.916
  -8763654.860 6  -6860647.534 6  23377649.452        1457.879
  -7071631.925 5  -3526328.040 5  24943803.122       -3144.417
 -19264776.413 6  -5214164.337 6  23792759.267       -2388.160
 -15296302.597 8 -11830585.761 2  21421495.608         528.412
 93  5  6  6  2  0.0030000  0  7  3 22 23 26 28 21 17                0.003255100
 -16510827.000 7 -12740405.167 8  21648649.573        1600.455
  -6337308.362 6  -4945439.445 5  24501026.304        1542.279
 -30890537.077 8 -13191900.769 9  21632334.705        -535.702
  -8719658.722 6  -6826364.800 6  23386022.050        1475.462
  -7165887.845 5  -3599774.118 5  24925867.167       -3139.176
 -19336302.166 6  -5269898.635 6  23779148.815       -2379.966
 -15280332.955 8 -11818141.866 2  21424534.365         536.451
 93  5  6  6  2 30.0030000  0  7  3 22 23 26 28 21 17                0.003261500
 -16462537.685 7 -12702777.149 8  21657838.542        1618.631
  -6290821.997 6  -4909216.338 5  24509872.240        1556.864
 -30906424.951 8 -13204280.927 9  21629311.408        -523.321
  -8675129.405 6  -6791666.637 6  23394495.692        1493.209
  -7259986.177 5  -3673097.431 5  24907960.960       -3134.049
 -19407579.481 6  -5325439.334 6  23765585.241       -2371.752
 -15264113.880 8 -11805503.621 1  21427620.747         544.780
 93  5  6  6  3  0.0030000  0  7  3 22 23 26 28 21 17                0.003267910
 -16413706.618 7 -12664726.984 8  21667131.035        1636.577
  -6243902.055 6  -4872655.321 5  24518800.731        1571.021
 -30921934.793 8 -13216366.499 9  21626359.850        -510.618
  -8630065.121 6  -6756551.635 6  23403071.263        1511.024
  -7353943.247 6  -3746310.666 5  24890081.416       -3129.702
 -19478611.990 6  -5380789.313 6  23752067.586       -2363.640
 -15247646.189 8 -11792671.655 9  21430754.388         553.205
 93  5  6  6  3 30.0030000  0  7  3 22 23 26 28 21 17                0.003274330
 -16364330.627 7 -12626252.238 8  21676526.914        1654.670
  -6196551.056 6  -4835758.475 5  24527810.827        1585.710
 -30937064.687 7 -13228156.006 9  21623480.637        -498.168
  -8584461.349 6  -6721016.237 6  23411749.591        1528.997
  -7447758.945 6  -3819413.738 5  24872228.735       -3124.747
 -19549391.819 6  -5435942.377 6  23738598.361       -2355.196
 -15230908.598 8 -11779629.377 9  21433939.331         562.471
 93  5  6  6  4  0.0030000  0  7  3 22 23 26 28 21 17                0.003280770
 -16314406.268 7 -12587350.162 8  21686027.296        1673.230
  -6148748.501 6  -4798509.733 5  24536907.980        1601.011
 -30951818.324 7 -13239652.316 9  21620673.209        -485.461
  -8538318.758 6  -6685060.960 6  23420530.043        1547.025
  -7541417.321 6  -3892394.215 5  24854406.061       -3119.209
 -19619916.337 6  -5490896.525 6  23725178.227       -2346.647
 -15213885.508 8 -11766364.639 9  21437178.670         572.264
 93  5  6  6  4 30.0030000  0  7  3 22 23 26 28 21 17                0.003287190
 -16263936.852 7 -12548023.357 8  21695631.447        1691.335
  -6100511.293 6  -4760922.338 5  24546086.720        1614.984
 -30966198.472 7 -13250857.620 9  21617936.925        -473.066
  -8491657.573 6  -6648701.601 6  23429409.694        1563.862
  -7634912.785 6  -3965247.788 5  24836614.780       -3113.628
 -19690207.159 6  -5545668.529 6  23711802.074       -2339.230
 -15196581.483 8 -11752880.977 9  21440471.951         581.366
 93  5  6  6  5  0.0030000  0  7  3 22 23 26 28 21 17                0.003293610
 -16212916.701 7 -12508267.427 8  21705340.054        1709.797
  -6051854.129 6  -4723007.665 5  24555345.584        1628.833
 -30980201.863 7 -13261769.335 9  21615271.899        -460.570
  -8444483.490 6  -6611942.587 6  23438386.054        1581.132
  -7728233.200 6  -4037964.972 5  24818856.980       -3107.430
 -19760268.135 6  -5600261.467 6  23698470.072       -2331.446
 -15179004.950 8 -11739184.972 9  21443816.606         590.434
 93  5  6  6  5 30.0030000  0  7  3 22 23 26 28 21 17                0.003300030
 -16161347.172 7 -12468083.377 8  21715153.393        1727.952
  -6002792.387 6  -4684777.766 5  24564681.955        1642.145
 -30993836.623 7 -13272393.808 9  21612677.465        -448.262
  -8396792.918 6  -6574781.080 6  23447460.970        1598.390
  -7821359.258 6  -4110530.661 5  24801134.683       -3100.867
 -19830100.633 6  -5654676.346 6  23685181.609       -2323.964
 -15161170.721 8 -11725288.166 9  21447209.968         598.395
 93  5  6  6  6  0.0030000  0  7  3 22 23 26 28 21 17                0.003306470
 -16109227.370 7 -12427470.587 8  21725071.187        1746.301
  -5953324.357 6  -4646231.259 5  24574095.631        1655.367
 -31007085.093 7 -13282717.275 9  21610156.481        -435.004
  -8348577.544 6  -6537210.672 6  23456636.758        1615.918
  -7914285.405 6  -4182940.611 5  24783450.952       -3094.288
 -19899701.966 6  -5708911.125 6  23671937.021       -2316.294
 -15143100.079 8 -11711207.149 9  21450649.117         606.082
 93  5  6  6  6 30.0030000  0  7  3 22 23 26 28 21 17                0.003312910
 -16056562.691 7 -12386433.227 8  21735093.090        1764.524
  -5903473.969 6  -4607386.816 5  24583581.185        1668.114
 -31019930.865 7 -13292726.956 9  21607711.952        -421.312
  -8299823.195 6  -6499220.273 6  23465914.438        1634.640
  -8007011.128 5  -4255194.357 5  24765806.342       -3087.439
 -19969076.983 6  -5762969.533 6  23658735.949       -2308.529
 -15124801.608 8 -11696948.604 9  21454131.263         613.980
 93  5  6  6  7  0.0030000  0  7  3 22 23 26 28 21 17                0.003319360
 -16003347.913 7 -12344967.169 8  21745219.638        1782.813
  -5853243.264 5  -4568246.052 5  24593141.142        1680.708
 -31032358.861 7 -13302411.096 9  21605346.939        -407.246
  -8250494.474 6  -6460782.322 6  23475300.468        1653.565
  -8099538.442 6  -4327293.512 5  24748199.205       -3081.168
 -20038214.527 6  -5816842.933 6  23645579.199       -2300.686
 -15106264.439 8 -11682504.057 9  21457659.002         621.776
 93  5  6  6  7 30.0030000  0  7  3 22 23 26 28 21 17                0.003325820
 -15949584.781 7 -12303073.837 8  21755450.357        1801.190
  -5802629.695 6  -4528806.928 5  24602772.535        1693.535
 -31044357.912 7 -13311760.984 9  21603063.610        -392.764
  -8200610.848 6  -6421911.959 6  23484793.255        1671.957
  -8191876.007 6  -4399244.814 5  24730627.615       -3074.832
 -20107110.457 6  -5870528.042 6  23632468.130       -2292.504
 -15087489.423 8 -11667874.176 9  21461231.719         630.063
 93  5  6  6  8  0.0030000  0  7  3 22 23 26 28 21 17                0.003332260
 -15895270.866 7 -12260751.331 8  21765785.941        1819.441
  -5751622.841 5  -4489061.351 5  24612478.716        1706.666
 -31055923.672 7 -13320773.250 9  21600862.754        -378.495
  -8150186.240 6  -6382620.051 6  23494388.104        1689.502
  -8284029.593 6  -4471052.729 5  24713091.504       -3068.638
 -20175763.047 6  -5924023.526 6  23619404.271       -2284.556
 -15068449.720 8 -11653038.046 9  21464854.829         639.150
 93  5  6  6  8 30.0030000  0  7  3 22 23 26 28 21 17                0.003338670
 -15840409.868 7 -12218002.512 8  21776225.682        1837.729
  -5700220.747 5  -4449007.809 5  24622260.044        1720.163
 -31067066.710 7 -13329456.114 9  21598742.268        -364.526
  -8099238.380 6  -6342920.441 6  23504083.032        1706.837
  -8375997.462 6  -4542715.945 5  24695590.736       -3062.698
 -20244175.644 6  -5977332.014 6  23606386.179       -2276.307
 -15049143.974 8 -11637994.609 9  21468528.777         647.939
 93  5  6  6  9  0.0030000  0  7  3 22 23 26 28 21 17                0.003345060
 -15785004.106 7 -12174829.210 8  21786769.162        1855.778
  -5648417.897 5  -4408641.985 5  24632116.983        1733.453
 -31077806.453 7 -13337824.743 9  21596698.497        -351.514
  -8047798.588 6  -6302837.499 6  23513871.874        1722.398
  -8467797.836 6  -4614248.697 5  24678121.359       -3057.153
 -20312339.607 6  -6030446.795 6  23593414.591       -2267.983
 -15029581.160 8 -11622750.859 9  21472251.239         656.253
 93  5  6  6  9 30.0030000  0  7  3 22 23 26 28 21 17                0.003351440
 -15729052.307 7 -12131230.410 8  21797416.503        1874.009
  -5596210.524 5  -4367960.960 5  24642051.484        1747.014
 -31088159.825 7 -13345892.287 9  21594728.149        -338.894
  -7995885.190 6  -6262385.512 6  23523752.006        1738.743
  -8559412.175 6  -4685636.408 5  24660688.321       -3050.493
 -20380244.183 6  -6083359.428 6  23580492.484       -2259.050
 -15009756.545 8 -11607303.106 9  21476024.017         665.337
 93  5  6  6 10  0.0030000  0  7  3 22 23 26 28 21 17                0.003357810
 -15672552.583 7 -12087204.682 8  21808168.042        1892.404
  -5543597.738 5  -4326964.022 5  24652063.691        1760.458
 -31098137.832 7 -13353667.330 9  21592829.346        -326.269
  -7943468.389 6  -6221541.236 6  23533726.335        1755.718
  -8650823.529 6  -4756865.976 5  24643293.772       -3043.471
 -20447882.523 6  -6136064.600 6  23567622.181       -2249.967
 -14989668.323 8 -11591649.947 9  21479846.499         673.707
 93  5  6  6 10 30.0030000  0  7  3 22 23 26 28 21 17                0.003364210
 -15615504.239 7 -12042751.456 8  21819024.073        1910.567
  -5490599.843 5  -4285666.971 5  24662149.488        1772.724
 -31107744.902 7 -13361153.345 9  21591001.229        -314.215
  -7890536.440 6  -6180295.593 6  23543799.438        1773.062
  -8742022.804 6  -4827930.295 5  24625938.218       -3036.451
 -20515246.676 6  -6188556.126 6  23554802.915       -2240.985
 -14969341.501 8 -11575810.870 9  21483714.573         681.666
 93  5  6  6 11  0.0030000  0  7  3 22 23 26 28 21 17                0.003370620
 -15557907.491 7 -11997870.898 8  21829984.496        1928.956
  -5437242.104 5  -4244089.582 5  24672303.496        1784.434
 -31116985.541 7 -13368353.815 9  21589242.529        -301.756
  -7837087.083 6  -6138646.741 6  23553970.087        1790.406
  -8833000.472 6  -4898821.953 5  24608625.982       -3028.592
 -20582342.784 6  -6240838.785 6  23542034.408       -2232.245
 -14948761.906 8 -11559774.835 9  21487630.852         690.338
 93  5  6  6 11 30.0030000  0  7  3 22 23 26 28 21 17                0.003377030
 -15499760.500 7 -11952561.563 8  21841049.205        1947.460
  -5383528.119 5  -4202234.570 5  24682524.647        1796.674
 -31125845.516 7 -13375257.674 9  21587556.725        -288.723
  -7783105.095 6  -6096582.853 6  23564241.802        1808.628
  -8923737.136 6  -4969525.786 5  24591359.558       -3020.548
 -20649188.015 6  -6292925.958 6  23529314.404       -2223.954
 -14927920.933 8 -11543535.093 9  21491596.568         699.178
 93  5  6  6 12  0.0030000  0  7  3 22 23 26 28 21 17                0.003383440
 -15441063.666 7 -11906823.799 8  21852219.034        1965.506
  -5329449.292 5  -4160095.286 5  24692815.141        1808.590
 -31134313.780 7 -13381856.293 9  21585945.211        -275.657
  -7728589.389 6  -6054103.088 6  23574615.379        1825.626
  -9014245.423 6  -5040051.656 5  24574135.379       -3013.335
 -20715799.135 6  -6344830.700 6  23516638.631       -2216.700
 -14906819.488 8 -11527092.412 9  21495611.789         707.770
 93  5  6  6 12 30.0030000  0  7  3 22 23 26 28 21 17                0.003389820
 -15381820.407 7 -11860660.231 8  21863492.788        1983.950
  -5275005.823 5  -4117671.829 5  24703175.815        1821.271
 -31142383.058 7 -13388144.047 9  21584409.693        -262.213
  -7673569.056 6  -6011230.131 6  23585085.537        1842.477
  -9104537.340 6  -5110408.982 5  24556952.774       -3006.020
 -20782193.238 6  -6396566.363 6  23504003.497       -2209.488
 -14885436.240 8 -11510430.145 9  21499680.722         718.088
 93  5  6  6 13  0.0030000  0  7  3 22 23 26 28 21 17                0.003396160
 -15322026.542 7 -11814067.609 8  21874871.611        2002.179
  -5220163.910 5  -4074937.902 5  24713611.852        1835.023
 -31150044.821 7 -13394114.221 9  21582952.212        -248.572
  -7618056.338 6  -5967973.466 6  23595649.120        1858.509
  -9194616.137 6  -5180600.186 5  24539811.234       -2999.053
 -20848367.802 6  -6448130.908 6  23491410.960       -2202.013
 -14863742.635 8 -11493526.026 9  21503809.094         728.099
 93  5  6  6 13 30.0030000  0  7  3 22 23 26 28 21 17                0.003402480
 -15261685.262 7 -11767048.452 8  21886354.302        2020.467
  -5164893.035 5  -4031869.712 5  24724129.115        1849.669
 -31157307.000 7 -13399773.064 9  21581570.180        -235.543
  -7562055.288 6  -5924336.284 6  23606306.040        1874.921
  -9284485.074 6  -5250627.887 5  24522709.792       -2992.029
 -20914312.127 6  -6499516.098 6  23478862.953       -2193.957
 -14841750.438 8 -11476389.251 9  21507993.886         738.078
 93  5  6  6 14  0.0030000  0  7  3 22 23 26 28 21 17                0.003408810
 -15200784.994 7 -11719593.730 8  21897943.188        2039.288
  -5109188.960 5  -3988463.992 5  24734729.674        1863.828
 -31164175.360 7 -13405125.009 9  21580263.294        -222.332
  -7505555.132 6  -5880310.202 6  23617057.823        1891.723
  -9374129.291 6  -5320480.491 5  24505651.309       -2984.121
 -20979989.444 6  -6550693.201 6  23466364.307       -2184.530
 -14819448.836 8 -11459011.385 9  21512237.938         748.546
 93  5  6  6 14 30.0030000  0  7  3 22 23 26 28 21 17                0.003415140
 -15139334.235 7 -11671710.048 8  21909636.983        2057.409
  -5053081.404 5  -3944743.848 5  24745406.392        1876.919
 -31170664.979 7 -13410181.839 9  21579028.048        -210.100
  -7448555.260 6  -5835894.733 6  23627904.191        1908.629
  -9463541.746 6  -5390152.479 5  24488636.378       -2976.302
 -21045390.447 6  -6601654.998 6  23453918.959       -2175.333
 -14796858.899 8 -11441408.841 9  21516536.783         757.563
 93  5  6  6 15  0.0030000  0  7  3 22 23 26 28 21 17                0.003421520
 -15077333.502 7 -11623397.810 8  21921435.336        2075.519
  -4996583.178 5  -3900719.266 5  24756157.590        1889.338
 -31176780.170 7 -13414946.922 9  21577864.556        -197.840
  -7391034.686 6  -5791073.491 6  23638849.913        1926.007
  -9552710.281 6  -5459634.409 5  24471668.568       -2968.366
 -21110507.591 6  -6652395.593 6  23441527.447       -2166.017
 -14774006.414 8 -11423601.700 9  21520885.320         765.653
 93  5  6  6 15 30.0030000  0  7  3 22 23 26 28 21 17                0.003427930
 -15014789.702 7 -11574662.401 8  21933336.917        2093.862
  -4939721.916 5  -3856411.839 5  24766977.843        1901.239
 -31182531.359 7 -13419428.360 9  21576769.875        -185.485
  -7332977.974 6  -5745834.509 6  23649898.447        1944.398
  -9641631.184 6  -5528923.401 5  24454746.829       -2959.806
 -21175345.324 6  -6702918.479 6  23429189.961       -2156.577
 -14750909.229 8 -11405603.905 9  21525280.328         774.207
 93  5  6  6 16  0.0030000  0  7  3 22 23 26 28 21 17                0.003434370
 -14951696.724 7 -11525499.066 8  21945343.103        2112.149
  -4882518.001 5  -3811837.369 5  24777863.759        1912.448
 -31187902.416 7 -13423613.582 9  21575747.561        -172.391
  -7274375.190 6  -5700170.030 6  23661050.828        1962.365
  -9730304.023 6  -5598019.052 5  24437872.830       -2951.690
 -21239912.593 6  -6753230.617 6  23416903.173       -2147.975
 -14727553.201 8 -11387404.402 9  21529724.914         782.890
 93  5  6  6 16 30.0030000  0  7  3 22 23 26 28 21 17                0.003440820
 -14888057.250 7 -11475909.885 8  21957453.261        2130.457
  -4824965.123 5  -3766990.993 5  24788816.379        1924.669
 -31192879.005 7 -13427491.439 9  21574800.408        -159.180
  -7215239.868 6  -5654090.562 6  23672303.939        1979.981
  -9818736.827 6  -5666927.704 5  24421044.845       -2943.719
 -21304232.058 6  -6803349.650 6  23404663.446       -2139.772
 -14703936.771 8 -11369002.002 9  21534218.961         791.889
 93  5  6  6 17  0.0030000  0  7  3 22 23 26 28 21 17                0.003447260
 -14823873.677 7 -11425896.735 8  21969666.964        2148.592
  -4767052.422 5  -3721864.245 5  24799836.700        1936.614
 -31197468.320 8 -13431067.530 9  21573927.171        -146.429
  -7155597.397 6  -5607615.904 6  23683652.511        1996.516
  -9906940.244 6  -5735657.589 5  24404261.139       -2936.282
 -21368304.939 6  -6853276.537 6  23392470.678       -2131.375
 -14680045.543 8 -11350385.459 9  21538765.363         801.183
 93  5  6  6 17 30.0030000  0  7  3 22 23 26 28 21 17                0.003453690
 -14759144.435 7 -11375458.378 8  21981984.148        2166.523
  -4708781.581 5  -3676458.421 5  24810925.071        1948.111
 -31201676.448 7 -13434346.562 9  21573126.615        -134.043
  -7095465.178 6  -5560759.621 6  23695095.815        2012.164
  -9994917.766 6  -5804211.486 5  24387519.215       -2928.835
 -21432129.472 6  -6903009.915 6  23380325.270       -2123.494
 -14655868.823 8 -11331546.466 9  21543365.987         810.674
 93  5  6  6 18  0.0030000  0  7  3 22 23 26 28 21 17                0.003460090
 -14693874.408 7 -11324598.650 8  21994404.698        2184.555
  -4650164.291 5  -3630782.637 5  24822080.124        1959.656
 -31205506.925 7 -13437331.336 9  21572397.709        -121.354
  -7034873.584 6  -5513545.407 6  23706626.391        2027.245
 -10082667.447 6  -5872587.805 5  24370820.360       -2921.008
 -21495710.348 6  -6952553.413 6  23368226.305       -2115.137
 -14631408.649 8 -11312486.591 9  21548020.439         819.968
 93  5  6  6 18 30.0030000  0  7  3 22 23 26 28 21 17                0.003466460
 -14628060.058 7 -11273314.760 8  22006928.771        2202.782
  -4591196.242 5  -3584833.527 5  24833301.264        1971.400
 -31208960.826 8 -13440022.695 9  21571740.256        -109.041
  -6973826.725 6  -5465976.410 6  23718243.073        2042.448
 -10170169.075 6  -5940770.854 5  24354170.287       -2912.465
 -21559021.262 6  -7001886.561 6  23356178.377       -2105.724
 -14606671.513 8 -11293210.902 9  21552727.718         829.021
 93  5  6  6 19  0.0030000  0  7  3 22 23 26 28 21 17                0.003472830
 -14561700.511 7 -11221606.054 8  22019556.590        2220.878
  -4531886.028 5  -3538617.754 5  24844586.561        1982.504
 -31212046.147 8 -13442426.830 9  21571153.042         -96.700
  -6912320.938 6  -5418049.822 6  23729947.082        2058.055
 -10257412.990 6  -6008753.092 5  24337568.091       -2903.714
 -21622052.488 6  -7051001.776 6  23344183.914       -2096.593
 -14581669.938 8 -11273729.160 9  21557485.313         837.587
 93  5  6  6 19 30.0030000  0  7  3 22 23 26 28 21 17                0.003479190
 -14494802.573 7 -11169477.817 8  22032286.955        2238.711
  -4472254.268 5  -3492151.473 5  24855934.822        1992.869
 -31214764.843 7 -13444545.282 9  21570636.018         -84.603
  -6850346.934 6  -5369758.408 6  23741740.302        2073.486
 -10344392.367 6  -6076529.176 5  24321016.360       -2894.800
 -21684825.003 6  -7099915.379 6  23332238.551       -2088.249
 -14556419.318 8 -11254053.354 9  21562290.407         845.726
 93  5  6  6 20  0.0030000  0  7  3 22 23 26 28 21 17                0.003485540
 -14427362.795 7 -11116927.366 8  22045120.329        2256.866
  -4412298.298 5  -3445432.577 5  24867343.872        2003.972
 -31217110.668 7 -13446373.181 9  21570189.658         -71.981
  -6787895.327 6  -5321094.808 6  23753624.516        2089.929
 -10431096.305 6  -6144090.682 5  24304517.791       -2885.663
 -21747335.364 6  -7148624.725 6  23320342.691       -2079.436
 -14530923.588 8 -11234186.543 9  21567142.287         853.729
 93  5  6  6 20 30.0030000  0  7  3 22 23 26 28 21 17                0.003491910
 -14359381.242 7 -11063954.750 7  22058056.896        2274.972
  -4352010.394 5  -3398454.971 5  24878815.906        2015.265
 -31219083.062 7 -13447910.104 9  21569814.128         -59.482
  -6724943.537 6  -5272041.494 6  23765604.032        2106.849
 -10517529.132 6  -6211440.931 5  24288069.590       -2876.660
 -21809588.122 6  -7197133.341 6  23308497.320       -2070.968
 -14505186.929 8 -11214132.001 9  21572039.795         862.016
 93  5  6  6 21  0.0030000  0  7  3 22 23 26 28 21 17                0.003498290
 -14290859.305 7 -11010561.052 7  22071096.240        2293.069
  -4291384.939 5  -3351214.376 5  24890352.595        2026.428
 -31220680.471 7 -13449154.818 9  21569510.048         -46.982
  -6661479.220 6  -5222588.780 6  23777681.124        2124.234
 -10603699.174 6  -6278586.384 5  24271670.762       -2867.755
 -21871595.516 6  -7245450.742 6  23296697.616       -2062.735
 -14479198.754 8 -11193881.489 9  21576985.373         870.777
 93  5  6  6 21 30.0030000  0  7  3 22 23 26 28 21 17                0.003504690
 -14221796.965 7 -10956746.280 7  22084238.501        2310.916
  -4230427.012 5  -3303714.710 5  24901952.675        2037.525
 -31221905.683 7 -13450109.518 9  21569276.820         -34.684
  -6597497.054 6  -5172732.544 6  23789856.156        2141.171
 -10689597.938 6  -6345520.452 5  24255325.132       -2858.879
 -21933345.955 6  -7293567.932 6  23284946.767       -2053.835
 -14452937.876 8 -11173418.455 9  21581982.542         880.026
 93  5  6  6 22  0.0030000  0  7  3 22 23 26 28 21 17                0.003511100
 -14152194.384 7 -10902510.534 7  22097483.560        2328.901
  -4169129.924 5  -3255950.790 5  24913616.994        2048.913
 -31222755.565 7 -13450771.757 9  21569115.163         -22.037
  -6533004.113 6  -5122478.303 6  23802128.513        2158.142
 -10775227.170 6  -6412244.501 5  24239030.376       -2849.912
 -21994817.459 6  -7341467.776 6  23273249.024       -2044.322
 -14426393.011 8 -11152734.151 9  21587034.116         889.581
 93  5  6  6 22 30.0030000  0  7  3 22 23 26 28 21 17                0.003517520
 -14082052.921 7 -10847854.886 7  22110830.622        2346.871
  -4107488.212 5  -3207918.302 5  24925346.761        2060.393
 -31223226.598 8 -13451138.782 9  21569025.702          -9.539
  -6468012.935 6  -5071835.837 6  23814495.549        2174.270
 -10860581.013 6  -6478753.980 5  24222788.434       -2840.490
 -22056002.712 6  -7389144.571 6  23261605.858       -2034.864
 -14399554.655 8 -11131821.143 9  21592141.054         899.540
 93  5  6  6 23  0.0030000  0  7  3 22 23 26 28 21 17                0.003523930
 -14011372.443 7 -10792779.213 7  22124280.848        2364.771
  -4045509.532 5  -3159623.223 5  24937141.001        2071.253
 -31223323.302 8 -13451214.116 9  21569007.257           2.763
  -6402552.209 6  -5020827.492 6  23826952.792        2189.476
 -10945650.056 6  -6545041.521 6  24206600.754       -2830.798
 -22116903.767 6  -7436599.906 7  23250016.571       -2025.406
 -14372420.894 8 -11110677.953 9  21597304.637         909.221
 93  5  6  6 23 30.0030000  0  7  3 22 23 26 28 21 17                0.003530330
 -13940152.600 7 -10737283.240 7  22137833.377        2382.895
  -3983205.800 5  -3111074.917 5  24948996.970        2082.348
 -31223050.374 7 -13451001.441 9  21569059.113          15.492
  -6336645.321 6  -4969471.471 6  23839494.503        2204.251
 -11030434.775 6  -6611107.514 6  24190466.729       -2821.545
 -22177524.568 6  -7483836.852 7  23238481.240       -2016.147
 -14344998.886 8 -11089310.154 9  21602522.765         918.817
 93  5  6  6 24  0.0030000  0  7  3 22 23 26 28 21 17                0.003536710
 -13868395.963 7 -10681369.020 7  22151488.515        2400.665
  -3920569.026 5  -3062267.067 5  24960916.629        2093.609
 -31222399.429 7 -13450494.205 9  21569182.594          27.921
  -6270299.532 6  -4917773.463 6  23852120.083        2218.845
 -11114949.250 6  -6676962.931 6  24174384.463       -2812.753
 -22237887.832 6  -7530873.133 7  23226994.258       -2008.086
 -14317304.539 8 -11067730.136 9  21607792.796         927.508
 93  5  6  6 24 30.0030000  0  7  3 22 23 26 28 21 17                0.003543080
 -13796104.745 7 -10625038.218 7  22165245.159        2418.377
  -3857591.558 5  -3013193.740 5  24972901.611        2104.763
 -31221373.484 7 -13449694.749 9  21569377.760          40.298
  -6203508.018 6  -4865728.130 6  23864829.093        2233.783
 -11199199.129 6  -6742612.163 6  24158351.886       -2804.116
 -22298009.595 7  -7577721.239 7  23215553.664       -2000.190
 -14289345.793 8 -11045944.106 9  21613112.912         936.222
 93  5  6  6 25  0.0030000  0  7  3 22 23 26 28 21 17                0.003549450
 -13723278.870 7 -10568290.809 7  22179103.645        2436.272
  -3794279.348 5  -2963859.594 5  24984950.057        2115.872
 -31219973.141 7 -13448603.566 9  21569644.214          52.856
  -6136256.822 6  -4813324.611 6  23877626.665        2249.524
 -11283189.953 6  -6808059.514 6  24142369.363       -2795.465
 -22357883.194 6  -7624375.974 7  23204159.460       -1991.427
 -14261121.374 8 -11023951.046 9  21618483.718         945.240
 93  5  6  6 25 30.0030000  0  7  3 22 23 26 28 21 17                0.003555820
 -13649919.388 7 -10511127.604 7  22193063.150        2454.066
  -3730629.933 5  -2914262.674 5  24997061.494        2127.424
 -31218196.899 7 -13447219.457 9  21569982.472          65.525
  -6068524.803 6  -4760546.426 6  23890515.389        2265.873
 -11366920.596 6  -6873304.149 6  24126436.474       -2786.529
 -22417491.619 6  -7670824.061 7  23192816.838       -1982.584
 -14232628.286 8 -11001748.653 9  21623905.515         954.244
 93  5  6  6 26  0.0030000  0  7  3 22 23 26 28 21 17                0.003562230
 -13576026.567 7 -10453548.824 7  22207124.475        2471.784
  -3666634.113 5  -2864395.817 5  25009239.935        2138.712
 -31216044.022 8 -13445541.896 9  21570392.189          77.881
  -6000301.355 6  -4707385.293 6  23903498.671        2282.205
 -11450368.242 6  -6938328.249 6  24110556.876       -2776.601
 -22476836.471 6  -7717066.795 7  23181524.285       -1973.623
 -14203859.968 8 -10979331.771 9  21629380.001         963.532
 93  5  6  6 26 30.0030000  0  7  3 22 23 26 28 21 17                0.003568640
 -13501601.506 7 -10395555.294 7  22221287.141        2489.661
  -3602320.149 5  -2814281.081 5  25021478.207        2148.690
 -31213521.707 8 -13443576.447 9  21570872.155          90.191
  -5931593.749 6  -4653846.912 6  23916572.439        2298.192
 -11533509.321 6  -7003113.478 6  24094735.314       -2765.982
 -22535901.363 6  -7763091.360 7  23170284.148       -1964.112
 -14174812.846 8 -10956697.665 9  21634907.254         972.902
 93  5  6  6 27  0.0030000  0  7  3 22 23 26 28 21 17                0.003575050
 -13426642.668 7 -10337145.824 7  22235551.268        2507.441
  -3537718.880 5  -2763942.471 5  25033771.420        2158.144
 -31210637.994 8 -13441329.389 9  21571420.788         102.092
  -5862415.862 6  -4599942.055 6  23929737.197        2313.673
 -11616326.987 6  -7067646.674 6  24078975.915       -2755.070
 -22594688.565 6  -7808899.532 7  23159097.280       -1955.114
 -14145485.764 8 -10933845.393 9  21640487.962         982.219
 93  5  6  6 27 30.0030000  0  7  3 22 23 26 28 21 17                0.003581450
 -13351150.892 7 -10278321.070 7  22249917.193        2525.238
  -3472831.635 5  -2713381.036 5  25046118.879        2167.673
 -31207395.902 8 -13438803.073 9  21572037.730         114.214
  -5792780.325 6  -4545680.624 6  23942988.265        2328.633
 -11698812.734 6  -7131921.242 6  24063279.030       -2743.805
 -22653217.163 6  -7854506.232 7  23147959.694       -1946.662
 -14115885.245 8 -10910780.047 9  21646121.001         991.324
 93  5  6  6 28  0.0030000  0  7  3 22 23 26 28 21 17                0.003587840
 -13275127.178 7 -10219081.833 7  22264383.888        2542.871
  -3407670.200 5  -2662605.925 5  25058518.779        2176.387
 -31203790.556 7 -13435993.697 9  21572723.764         126.309
  -5722702.750 6  -4491074.711 6  23956323.751        2343.253
 -11780966.840 6  -7195937.386 6  24047645.104       -2733.104
 -22711489.337 7  -7899913.080 7  23136870.636       -1937.839
 -14086007.987 8 -10887499.062 9  21651806.355        1000.509
 93  5  6  6 28 30.0030000  0  7  3 22 23 26 28 21 17                0.003594210
 -13198569.846 7 -10159426.786 7  22278952.061        2560.463
  -3342239.987 5  -2611621.370 5  25070970.189        2185.455
 -31199820.905 8 -13432900.446 9  21573479.061         138.019
  -5652185.669 6  -4436126.356 6  23969743.034        2357.629
 -11862801.336 6  -7259704.490 6  24032072.601       -2722.815
 -22769482.560 6  -7945102.596 7  23125834.959       -1928.766
 -14055859.599 8 -10864006.821 9  21657543.686        1009.118
 93  5  6  6 29  0.0030000  0  7  3 22 23 26 28 21 17                0.003600570
 -13121483.638 7 -10099359.615 7  22293621.188        2578.230
  -3276521.198 5  -2560411.979 5  25083476.308        2195.880
 -31195503.733 8 -13429536.399 9  21574300.531         149.779
  -5581230.531 6  -4380836.644 6  23983244.556        2372.623
 -11944330.030 6  -7323233.307 6  24016557.962       -2712.616
 -22827204.624 6  -7990080.803 7  23114850.242       -1919.401
 -14025446.795 8 -10840308.533 9  21663330.907        1018.282
 93  5  6  6 29 30.0030000  0  7  3 22 23 26 28 21 17                0.003606940
 -13043865.066 7 -10038877.630 7  22308391.653        2595.963
  -3210482.041 5  -2508952.935 5  25096043.442        2206.549
 -31190821.041 8 -13425887.543 9  21575191.645         162.236
  -5509824.707 6  -4325195.748 6  23996832.675        2387.786
 -12025554.717 6  -7386525.221 6  24001100.695       -2702.481
 -22884638.532 6  -8034834.462 7  23103920.971       -1909.520
 -13994753.036 8 -10816391.326 9  21669172.084        1027.978
 93  5  6  6 30  0.0030000  0  7  3 22 23 26 28 21 17                0.003613310
 -12965721.181 7  -9977986.306 7  22323261.845        2613.518
  -3144132.925 5  -2457252.375 5  25108669.235        2216.966
 -31185775.829 8 -13421956.189 9  21576151.693         174.081
  -5437965.251 6  -4269201.387 6  24010507.479        2402.977
 -12106480.816 6  -7449584.463 6  23985701.884       -2692.409
 -22941783.510 6  -8079363.018 7  23093046.375       -1900.004
 -13963768.293 8 -10792247.380 9  21675068.583        1037.800
 93  5  6  6 30 30.0030000  0  7  3 22 23 26 28 21 17                0.003619700
 -12887054.808 7  -9916687.868 7  22338231.573        2630.662
  -3077467.933 5  -2405305.658 5  25121355.293        2227.245
 -31180387.430 8 -13417757.431 9  21577177.251         185.082
  -5365657.005 6  -4212857.323 6  24024266.509        2417.527
 -12187101.622 6  -7512405.846 6  23970360.029       -2682.392
 -22998652.440 6  -8123676.441 7  23082224.995       -1891.391
 -13932493.462 8 -10767877.384 9  21681020.101        1047.392
 93  5  6  6 31  0.0030000  0  7  3 22 23 26 28 21 17                0.003626100
 -12807864.318 7  -9854981.016 7  22353300.800        2648.326
  -3010489.071 5  -2353114.396 5  25134100.400        2237.652
 -31174653.624 7 -13413289.521 9  21578268.486         197.117
  -5292900.494 6  -4156163.938 6  24038111.610        2432.684
 -12267410.664 6  -7574984.284 6  23955077.306       -2671.800
 -23055257.969 6  -8167784.620 7  23071453.395       -1882.401
 -13900907.755 8 -10743265.157 9  21687030.639        1058.160
 93  5  6  6 31 30.0030000  0  7  3 22 23 26 28 21 17                0.003632500
 -12728150.433 7  -9792866.354 7  22368470.020        2665.675
  -2943219.165 5  -2300696.323 5  25146901.549        2246.915
 -31168559.808 8 -13408541.094 9  21579428.111         208.929
  -5219702.095 6  -4099126.225 6  24052040.997        2447.207
 -12347409.465 6  -7637320.968 6  23939854.341       -2661.321
 -23111597.345 6  -8211685.424 7  23060732.640       -1873.607
 -13869008.499 8 -10718408.594 9  21693100.849        1068.313
 93  5  6  6 32  0.0030000  0  7  3 22 23 26 28 21 17                0.003638890
 -12647912.732 7  -9730343.496 7  22383738.749        2683.161
  -2875678.539 5  -2248067.304 5  25159753.356        2255.803
 -31162124.260 8 -13403526.365 9  21580652.672         220.046
  -5146070.549 6  -4041750.972 6  24066053.657        2461.436
 -12427080.729 6  -7699402.446 6  23924693.351       -2650.191
 -23167669.262 6  -8255377.804 7  23050062.253       -1864.549
 -13836814.166 8 -10693322.107 9  21699227.248        1077.732
 93  5  6  6 32 30.0030000  0  7  3 22 23 26 28 21 17                0.003645280
 -12567155.075 7  -9667415.472 7  22399106.490        2700.282
  -2807871.742 5  -2195230.849 5  25172656.162        2264.276
 -31155350.872 8 -13398248.401 9  21581941.810         231.578
  -5072014.061 6  -3984044.629 6  24080146.360        2475.573
 -12506423.532 6  -7761227.975 6  23909595.352       -2639.489
 -23223466.935 6  -8298856.487 7  23039444.464       -1855.480
 -13804351.580 8 -10668026.584 9  21705404.610        1086.190
 93  5  6  6 33  0.0030000  0  7  3 22 23 26 28 21 17                0.003651660
 -12485879.674 7  -9604084.019 7  22414572.813        2717.541
  -2739809.275 5  -2142195.226 5  25185608.796        2272.968
 -31148215.354 8 -13392688.251 9  21583299.713         243.898
  -4997519.620 6  -3925997.025 6  24094320.894        2490.517
 -12585437.257 6  -7822797.082 6  23894559.642       -2628.323
 -23278986.403 6  -8342118.393 7  23028879.169       -1846.093
 -13771636.323 8 -10642534.182 9  21711629.911        1094.435
 93  5  6  6 33 30.0030000  0  7  3 22 23 26 28 21 17                0.003658050
 -12404086.024 7  -9540348.724 7  22430137.848        2735.042
  -2671481.573 5  -2088952.884 5  25198611.377        2282.180
 -31140713.146 7 -13386842.354 9  21584727.214         256.231
  -4922572.821 6  -3867596.931 6  24108583.274        2505.856
 -12664114.019 6  -7884103.623 6  23879587.242       -2616.615
 -23334225.202 6  -8385161.596 7  23018367.457       -1836.565
 -13738678.708 8 -10616852.931 9  21717901.529        1102.774
 93  5  6  6 34  0.0030000  0  7  3 22 23 26 28 21 17                0.003664440
 -12321773.214 7  -9476208.908 7  22445801.353        2752.191
  -2602885.222 5  -2035501.196 5  25211665.211        2290.983
 -31132841.343 7 -13380708.471 9  21586225.128         268.626
  -4847167.074 6  -3808839.209 6  24122932.458        2521.110
 -12742442.409 6  -7945138.686 6  23864681.287       -2605.389
 -23389184.687 6  -8427987.149 7  23007909.153       -1827.462
 -13705471.067 8 -10590976.848 9  21724220.716        1111.151
 93  5  6  6 34 30.0030000  0  7  3 22 23 26 28 21 17                0.003670830
 -12238941.929 7  -9411665.100 7  22461563.812        2769.679
  -2534019.780 5  -1981839.854 5  25224769.239        2300.071
 -31124584.361 7 -13374274.458 9  21587795.970         281.814
  -4771301.127 6  -3749722.891 6  24137369.230        2536.653
 -12820434.691 6  -8005911.876 6  23849839.551       -2594.008
 -23443868.619 6  -8470597.978 7  22997503.039       -1818.207
 -13671996.450 8 -10564892.752 9  21730590.435        1120.638
 93  5  6  6 35  0.0030000  0  7  3 22 23 26 28 21 17                0.003677210
 -12155592.180 7  -9346717.264 7  22477424.805        2786.570
  -2464890.686 5  -1927973.095 5  25237924.304        2308.437
 -31115948.953 7 -13367545.553 9  21589439.573         293.569
  -4694979.854 6  -3690251.772 6  24151892.057        2551.240
 -12898090.558 6  -8066422.921 6  23835062.059       -2583.124
 -23498286.874 6  -8513001.785 7  22987148.202       -1809.870
 -13638229.177 8 -10538580.588 9  21737016.178        1130.362
 93  5  6  6 35 30.0030000  0  7  3 22 23 26 28 21 17                0.003683600
 -12071731.481 7  -9281371.302 7  22493382.746        2803.898
  -2395510.499 5  -1873910.621 5  25251126.636        2316.894
 -31106962.778 7 -13360543.311 9  21591149.647         305.498
  -4618226.502 6  -3630443.978 6  24166497.683        2565.569
 -12975412.055 6  -8126673.403 6  23820348.733       -2571.486
 -23552451.361 7  -8555207.873 7  22976840.313       -1801.028
 -13604162.235 8 -10512034.934 9  21743498.820        1140.920
 93  5  6  6 36  0.0030000  0  7  3 22 23 26 28 21 17                0.003689970
 -11987353.828 7  -9215622.508 7  22509439.469        2821.041
  -2325879.507 5  -1819652.740 5  25264377.297        2325.307
 -31097625.526 7 -13353267.531 9  21592926.499         316.943
  -4541053.491 6  -3570309.178 6  24181183.407        2579.327
 -13052384.606 6  -8186652.016 6  23805701.947       -2559.976
 -23606348.693 6  -8597205.753 7  22966584.303       -1792.080
 -13569778.523 8 -10485242.440 9  21750041.767        1151.345
 93  5  6  6 36 30.0030000  0  7  3 22 23 26 28 21 17                0.003696340
 -11902462.048 7  -9149473.126 7  22525593.757        2838.186
  -2255985.461 5  -1765189.873 5  25277677.388        2334.294
 -31087952.459 8 -13345730.067 9  21594767.054         327.928
  -4463468.326 6  -3509853.194 6  24195948.042        2593.043
 -13129004.325 6  -8246355.669 6  23791121.632       -2547.814
 -23659976.028 7  -8638993.272 7  22956379.209       -1783.060
 -13535079.572 8 -10458204.303 9  21756644.909        1161.941
 93  5  6  6 37  0.0030000  0  7  3 22 23 26 28 21 17                0.003702720
 -11817060.782 7  -9082926.711 7  22541845.016        2854.862
  -2185831.062 5  -1710524.135 5  25291027.833        2342.560
 -31077963.545 8 -13337946.492 9  21596667.798         337.923
  -4385480.743 6  -3449083.676 6  24210788.242        2606.009
 -13205258.125 6  -8305774.190 6  23776611.021       -2535.768
 -23713340.532 6  -8680575.965 7  22946224.480       -1774.641
 -13500072.547 8 -10430926.109 9  21763306.505        1171.627
 93  5  6  6 37 30.0030000  0  7  3 22 23 26 28 21 17                0.003709100
 -11731152.942 7  -9015985.566 7  22558192.719        2871.946
  -2115417.133 5  -1655656.177 5  25304426.876        2351.547
 -31067662.512 8 -13329919.695 9  21598628.451         348.657
  -4307101.798 6  -3388009.173 6  24225703.378        2619.094
 -13281136.637 6  -8364900.292 6  23762171.702       -2522.978
 -23766434.249 6  -8721947.668 7  22936120.673       -1765.045
 -13464774.970 8 -10403421.516 9  21770023.367        1181.393
 93  5  6  6 38  0.0030000  0  7  3 22 23 26 28 21 17                0.003715490
 -11644740.155 7  -8948650.957 7  22574636.333        2888.817
  -2044749.649 5  -1600590.644 5  25317874.873        2359.778
 -31057047.738 8 -13321648.446 9  21600648.141         359.095
  -4228337.075 6  -3326634.095 6  24240691.213        2632.068
 -13356646.219 6  -8423738.902 6  23747802.804       -2510.842
 -23819245.819 6  -8763099.514 7  22926070.691       -1755.711
 -13429197.659 8 -10375698.947 9  21776793.639        1190.445
 93  5  6  6 38 30.0030000  0  7  3 22 23 26 28 21 17                0.003721870
 -11557821.865 7  -8880922.482 7  22591176.464        2905.568
  -1973842.409 5  -1545338.256 5  25331367.305        2367.428
 -31046114.555 8 -13313129.071 9  21602728.571         369.898
  -4149177.913 6  -3264951.632 6  24255754.291        2645.234
 -13431784.409 6  -8482288.128 6  23733504.314       -2498.331
 -23871784.411 6  -8804038.654 7  22916073.145       -1746.814
 -13393348.586 8 -10347764.604 9  21783615.555        1199.546
 93  5  6  6 39  0.0030000  0  7  3 22 23 26 28 21 17                0.003728250
 -11470401.748 7  -8812802.961 7  22607812.083        2922.266
  -1902707.005 5  -1489908.101 5  25344904.012        2374.982
 -31034850.358 8 -13304351.765 9  21604872.340         381.217
  -4069624.112 6  -3202961.653 6  24270893.841        2658.531
 -13506550.946 6  -8540547.743 6  23719276.562       -2486.020
 -23924052.960 6  -8844767.372 7  22906127.128       -1737.528
 -13357232.789 8 -10319622.439 9  21790488.299        1208.236
 93  5  6  6 39 30.0030000  0  7  3 22 23 26 28 21 17                0.003734620
 -11382479.475 7  -8744292.163 7  22624543.036        2938.811
  -1831341.302 5  -1434298.507 5  25358485.078        2382.581
 -31023232.266 8 -13295298.718 9  21607083.309         393.149
  -3989663.554 6  -3140654.767 6  24286109.096        2672.140
 -13580945.514 6  -8598517.523 6  23705121.014       -2473.824
 -23976028.968 6  -8885268.120 7  22896236.097       -1727.755
 -13320849.280 8 -10291271.663 9  21797411.997        1217.181
 93  5  6  6 40  0.0030000  0  7  3 22 23 26 28 21 17                0.003740980
 -11294055.787 7  -8675390.623 7  22641369.654        2955.733
  -1759737.198 5  -1378503.147 5  25372110.358        2390.895
 -31011248.698 8 -13285960.863 9  21609364.039         405.715
  -3909284.732 6  -3078021.909 6  24301405.345        2686.442
 -13654967.563 6  -8656197.030 6  23691035.167       -2461.001
 -24027715.598 6  -8925543.420 7  22886400.985       -1718.145
 -13284187.390 8 -10262703.961 9  21804388.517        1226.931
 93  5  6  6 40 30.0030000  0  7  3 22 23 26 28 21 17                0.003747350
 -11205131.080 7  -8606098.660 7  22658291.532        2972.362
  -1687877.920 5  -1322508.924 5  25385786.121        2399.773
 -30998888.198 8 -13276329.308 9  21611716.190         418.325
  -3828483.595 6  -3015059.987 6  24316782.093        2700.284
 -13728602.179 6  -8713574.643 6  23677022.050       -2447.962
 -24079119.229 6  -8965598.147 7  22876619.416       -1708.637
 -13247233.846 8 -10233909.003 9  21811420.729        1236.643
 93  5  6  6 41  0.0030000  0  7  3 22 23 26 28 21 17                0.003753720
 -11115705.471 7  -8536416.409 7  22675308.807        2989.090
  -1615746.368 5  -1266302.552 5  25399511.140        2408.863
 -30986153.639 8 -13266406.253 9  21614139.414         430.559
  -3747264.493 6  -2951772.383 6  24332237.268        2714.211
 -13801848.202 6  -8770649.434 6  23663083.290       -2435.081
 -24130228.753 7  -9005423.721 7  22866893.759       -1698.740
 -13209993.041 8 -10204890.188 9  21818507.394        1246.163
 93  5  6  6 41 30.0030000  0  7  3 22 23 26 28 21 17                0.003760110
 -11025783.233 7  -8466347.172 7  22692420.611        3005.736
  -1543353.246 5  -1209892.380 5  25413286.902        2417.655
 -30973064.655 8 -13256207.048 9  21616629.870         442.140
  -3665636.532 6  -2888166.188 6  24347770.282        2727.833
 -13874709.168 6  -8827424.187 6  23649218.047       -2422.139
 -24181052.742 7  -9045026.792 7  22857221.812       -1689.568
 -13172464.853 8 -10175647.452 9  21825648.418        1255.982
 93  5  6  6 42  0.0030000  0  7  3 22 23 26 28 21 17                0.003766520
 -10935359.446 7  -8395887.114 7  22709627.581        3022.303
  -1470701.011 5  -1153280.306 5  25427111.644        2425.773
 -30959632.453 8 -13245740.391 9  21619185.740         453.345
  -3583605.144 6  -2824245.642 6  24363380.662        2741.056
 -13947178.822 6  -8883894.035 6  23635428.922       -2409.224
 -24231614.308 7  -9084425.393 7  22847599.775       -1681.181
 -13134638.805 8 -10146172.619 9  21832846.315        1265.774
 93  5  6  6 42 30.0030000  0  7  3 22 23 26 28 21 17                0.003772940
 -10844437.709 7  -8325039.039 7  22726929.474        3038.886
  -1397810.358 5  -1096482.441 5  25440982.345        2433.527
 -30945864.725 8 -13235012.285 9  21621805.515         464.356
  -3501170.297 6  -2760010.689 6  24379067.987        2754.641
 -14019260.250 6  -8940061.334 6  23621711.488       -2396.259
 -24281919.631 7  -9123624.325 7  22838027.221       -1672.449
 -13096521.107 8 -10116470.516 9  21840100.122        1275.371
 93  5  6  6 43  0.0030000  0  7  3 22 23 26 28 21 17                0.003779380
 -10753019.224 7  -8253803.895 7  22744325.942        3055.350
  -1324706.393 5  -1039518.304 5  25454893.352        2439.847
 -30931775.373 8 -13224033.551 9  21624486.409         474.907
  -3418318.052 6  -2695450.502 6  24394834.185        2768.561
 -14090954.091 6  -8995926.661 6  23608068.860       -2383.351
 -24331958.730 6  -9162615.793 7  22828504.979       -1663.547
 -13058109.311 8 -10086539.241 9  21847409.525        1285.473
 93  5  6  6 43 30.0030000  0  7  3 22 23 26 28 21 17                0.003785800
 -10661111.335 7  -8182187.405 7  22761815.434        3071.716
  -1251426.920 5   -982417.469 5  25468838.680        2445.610
 -30917365.078 8 -13212804.751 9  21627228.302         485.926
  -3335059.674 6  -2630573.847 6  24410677.553        2782.181
 -14162263.563 6  -9051492.464 6  23594499.258       -2370.419
 -24381734.852 7  -9201402.368 7  22819033.192       -1654.613
 -13019393.607 8 -10056371.181 9  21854776.862        1295.638
 93  5  6  6 44  0.0030000  0  7  3 22 23 26 28 21 17                0.003792220
 -10568712.138 7  -8110188.076 7  22779398.361        3088.034
  -1177972.411 5   -925180.183 5  25482816.575        2451.402
 -30902620.095 8 -13201315.151 9  21630033.890         497.065
  -3251393.923 6  -2565379.751 6  24426598.357        2795.539
 -14233183.717 6  -9106754.890 6  23581003.619       -2357.542
 -24431230.903 7  -9239970.692 7  22809614.070       -1644.924
 -12980381.800 8 -10025972.375 9  21862200.611        1305.181
 93  5  6  6 44 30.0030000  0  7  3 22 23 26 28 21 17                0.003798610
 -10475826.537 7  -8037809.730 7  22797073.883        3104.072
  -1104344.471 5   -867807.865 5  25496827.481        2457.119
 -30887547.463 8 -13189570.223 9  21632902.444         507.601
  -3167329.756 6  -2499875.218 6  24442595.384        2808.534
 -14303719.208 6  -9161717.617 6  23567580.485       -2344.707
 -24480421.420 7  -9278300.939 7  22800253.544       -1634.461
 -12941086.426 8  -9995352.610 9  21869678.697        1314.414
 93  5  6  6 45  0.0030000  0  7  3 22 23 26 28 21 17                0.003805000
 -10382455.273 7  -7965052.959 7  22814842.103        3120.279
  -1030538.230 5   -810296.518 5  25510872.886        2463.231
 -30872161.122 8 -13177580.866 9  21635830.654         518.118
  -3082885.462 6  -2434074.470 6  24458664.042        2820.728
 -14373862.955 6  -9216375.065 6  23554232.587       -2331.594
 -24529293.676 6  -9316383.200 7  22790952.965       -1623.975
 -12901518.077 8  -9964520.138 9  21877208.065        1323.297
 93  5  6  6 45 30.0030000  0  7  3 22 23 26 28 21 17                0.003811370
 -10288600.342 7  -7891919.269 7  22832702.042        3136.320
   -956535.046 5   -752631.774 5  25524955.542        2470.314
 -30856456.993 8 -13165343.875 9  21638819.267         528.616
  -2998087.669 6  -2367998.254 6  24474801.345        2832.385
 -14443618.273 6  -9270729.846 6  23540958.695       -2318.825
 -24577862.251 7  -9354228.821 7  22781710.811       -1614.197
 -12861692.974 8  -9933487.590 9  21884786.558        1331.600
 93  5  6  6 46  0.0030000  0  7  3 22 23 26 28 21 17                0.003817740
 -10194262.432 7  -7818409.239 7  22850654.163        3152.359
   -882309.646 5   -694793.847 5  25539079.853        2477.611
 -30840439.666 8 -13152862.839 9  21641866.866         538.891
  -2912934.039 6  -2301644.788 6  24491005.572        2844.206
 -14512987.875 6  -9324784.064 6  23527758.545       -2305.983
 -24626140.875 7  -9391848.507 7  22772523.700       -1604.674
 -12821610.877 8  -9902254.786 9  21892414.126        1340.437
 93  5  6  6 46 30.0030000  0  7  3 22 23 26 28 21 17                0.003824110
 -10099447.848 7  -7744527.779 6  22868696.651        3168.354
   -807878.175 5   -636795.324 5  25553244.076        2484.452
 -30824116.427 8 -13140143.422 9  21644972.847         549.415
  -2827424.344 6  -2235013.873 6  24507276.435        2856.440
 -14581963.640 6  -9378531.398 6  23514632.870       -2292.409
 -24674144.768 7  -9429254.117 7  22763389.056       -1595.686
 -12781254.395 8  -9870808.191 9  21900093.661        1349.961
 93  5  6  6 47  0.0030000  0  7  3 22 23 26 28 21 17                0.003830480
 -10004152.249 7  -7670271.503 6  22886830.758        3184.303
   -733237.762 5   -578634.023 5  25567447.019        2491.646
 -30807461.326 8 -13127165.407 9  21648142.493         560.958
  -2741543.961 6  -2168094.079 6  24523619.853        2868.898
 -14650531.498 7  -9431960.889 6  23501584.718       -2278.911
 -24721890.311 7  -9466458.401 7  22754303.503       -1587.452
 -12740604.701 8  -9839133.101 9  21907828.806        1360.083
 93  5  6  6 47 30.0030000  0  7  3 22 23 26 28 21 17                0.003836860
  -9908379.470 7  -7595643.395 6  22905055.912        3200.286
   -658383.958 5   -520306.440 5  25581691.666        2498.601
 -30790452.848 8 -13113912.053 9  21651379.331         572.870
  -2655290.015 6  -2100883.223 6  24540033.200        2881.544
 -14718697.034 6  -9485076.899 6  23488613.292       -2265.357
 -24769389.378 7  -9503470.660 7  22745264.899       -1579.014
 -12699638.695 8  -9807211.545 9  21915623.962        1371.075
 93  5  6  6 48  0.0030000  0  7  3 22 23 26 28 21 17                0.003843240
  -9812125.577 7  -7520640.377 6  22923372.079        3216.329
   -583323.348 5   -461817.665 5  25595975.305        2505.457
 -30773084.312 8 -13100378.104 9  21654684.605         584.982
  -2568643.632 6  -2033366.540 5  24556521.166        2894.713
 -14786443.182 6  -9537866.078 6  23475721.647       -2251.009
 -24816617.867 7  -9540272.045 7  22736277.302       -1569.359
 -12658338.365 8  -9775029.473 9  21923483.116        1382.191
 93  5  6  6 48 30.0030000  0  7  3 22 23 26 28 21 17                0.003849620
  -9715395.686 7  -7445266.477 6  22941779.468        3232.172
   -508051.693 5   -403164.445 5  25610299.559        2512.859
 -30755356.521 8 -13086564.237 9  21658058.268         596.864
  -2481614.368 6  -1965551.537 5  24573081.908        2907.283
 -14853754.663 7  -9590316.580 6  23462911.998       -2236.534
 -24863552.194 7  -9576844.223 7  22727345.650       -1559.450
 -12616717.150 8  -9742597.345 9  21931403.775        1392.489
 93  5  6  6 49  0.0030000  0  7  3 22 23 26 28 21 17                0.003856010
  -9618190.428 7  -7369522.151 6  22960277.053        3247.962
   -432555.484 5   -344336.271 5  25624665.625        2520.093
 -30737276.201 8 -13072475.678 9  21661498.657         608.391
  -2394212.943 6  -1897446.520 5  24589713.896        2919.456
 -14920636.162 7  -9642432.037 6  23450185.273       -2222.225
 -24910179.585 7  -9613177.233 7  22718472.578       -1548.980
 -12574789.468 8  -9709926.435 9  21939382.122        1402.571
 93  5  6  6 49 30.0030000  0  7  3 22 23 26 28 21 17                0.003862410
  -9520509.056 7  -7293406.828 6  22978865.322        3263.790
   -356845.959 5   -285341.905 5  25639072.892        2526.825
 -30718865.198 8 -13058129.434 9  21665001.769         618.845
  -2306449.905 6  -1829059.758 5  24606415.156        2931.456
 -14987079.766 7  -9694206.274 6  23437541.248       -2207.339
 -24956482.951 7  -9649257.762 7  22709661.785       -1538.074
 -12532564.741 8  -9677024.064 9  21947417.189        1412.114
 93  5  6  6 50  0.0030000  0  7  3 22 23 26 28 21 17                0.003868810
  -9422356.238 7  -7216924.110 6  22997543.087        3279.527
   -280949.463 5   -226201.774 5  25653516.087        2533.058
 -30700150.340 8 -13043546.411 9  21668563.187         628.840
  -2218324.726 6  -1760390.772 5  24623185.291        2943.445
 -15053078.221 7  -9745633.617 6  23424982.609       -2192.452
 -25002465.034 7  -9685087.925 7  22700911.535       -1527.425
 -12490067.613 8  -9643909.419 9  21955503.840        1421.052
 93  5  6  6 50 30.0030000  0  7  3 22 23 26 28 21 17                0.003875210
  -9323739.364 7  -7140079.823 6  23016309.291        3294.969
   -204886.399 5   -166931.943 5  25667989.677        2537.968
 -30681149.564 8 -13028740.599 9  21672178.931         638.149
  -2129854.390 6  -1691452.849 5  24640020.509        2954.863
 -15118636.215 7  -9796717.761 6  23412507.696       -2177.805
 -25048147.598 7  -9720684.705 7  22692218.746       -1517.976
 -12447308.912 7  -9610590.940 9  21963640.439        1429.806
 93  5  6  6 51  0.0030000  0  7  3 22 23 26 28 21 17                0.003881610
  -9224656.395 7  -7062872.359 6  23035164.103        3310.507
   -128686.661 5   -107555.546 5  25682490.288        2542.189
 -30661865.421 8 -13013713.989 9  21675848.863         647.738
  -2041035.300 6  -1622243.164 5  24656922.494        2966.579
 -15183753.506 6  -9847458.511 6  23400116.240       -2163.088
 -25093554.372 7  -9756066.590 8  22683577.813       -1509.079
 -12404277.123 7  -9577059.685 9  21971829.239        1439.104
 93  5  6  6 51 30.0030000  0  7  3 22 23 26 28 21 17                0.003887990
  -9125106.920 7  -6985301.377 6  23054107.682        3325.897
    -52354.520 5    -48076.024 5  25697016.245        2546.681
 -30642287.240 8 -12998458.263 9  21679574.294         657.580
  -1951861.370 6  -1552757.009 5  24673891.668        2978.435
 -15248429.297 6  -9897855.207 6  23387808.540       -2148.618
 -25138699.714 7  -9791244.753 8  22674987.204       -1500.731
 -12360965.869 7  -9543310.672 9  21980071.223        1448.408
 93  5  6  6 52  0.0030000  0  8  1  3 22 23 26 28 21 17             0.003894410
  -8452042.04915   -211443.07912  25588293.689       -3433.355
  -9025091.685 7  -6907367.458 6  23073140.227        3341.506
     24123.633 5     11517.306 5  25711569.604        2551.969
 -30622395.316 8 -12982958.040 9  21683359.701         668.478
  -1862324.599 6  -1482988.074 5  24690930.314        2990.318
 -15312667.176 6  -9947910.681 6  23375584.342       -2133.981
 -25183587.363 7  -9826222.135 8  22666445.038       -1491.761
 -12317363.089 7  -9509334.468 9  21988368.341        1458.386
 93  5  6  6 52 30.0030000  0  8  1  3 22 23 26 28 21 17             0.003900790
  -8555031.430 5   -291694.468 3  25568695.191       -3432.243
  -8924617.214 6  -6829075.697 6  23092259.953        3356.727
    100760.557 5     71234.358 5  25726152.231        2557.322
 -30602178.854 8 -12967204.963 9  21687206.819         679.419
  -1772447.913 6  -1412954.306 5  24708033.264        3001.729
 -15376470.289 7  -9997627.382 6  23363442.615       -2119.486
 -25228212.760 7  -9860995.148 8  22657953.534       -1483.118
 -12273465.392 7  -9475128.474 9  21996722.116        1468.289
 93  5  6  6 53  0.0030000  0  8  1  3 22 23 26 28 21 17             0.003907170
  -8657980.491 5   -371914.451 5  25549103.864       -3430.858
  -8823688.099 6  -6750429.664 6  23111466.318        3371.702
    177561.207 5    131079.009 5  25740766.511        2563.012
 -30581634.307 8 -12951196.204 9  21691116.064         690.275
  -1682226.863 6  -1342652.184 5  24725201.475        3013.093
 -15439848.001 6 -10047012.598 6  23351382.593       -2105.666
 -25272577.119 7  -9895564.752 8  22649511.169       -1474.369
 -12229267.868 7  -9440688.847 9  22005132.724        1478.333
 93  5  6  6 53 30.0030000  0  8  1  3 22 23 26 28 21 17             0.003913550
  -8760876.968 5   -452093.385 5  25529523.177       -3429.097
  -8722307.125 6  -6671431.526 6  23130758.303        3386.779
    254543.668 5    191065.285 5  25755415.867        2569.055
 -30560762.492 8 -12934932.449 9  21695088.073         701.009
  -1591660.019 6  -1272080.613 5  24742435.570        3024.564
 -15502806.570 7 -10096071.228 7  23339401.668       -2091.592
 -25316669.141 7  -9929922.150 8  22641120.560       -1465.000
 -12184762.836 7  -9406009.620 9  22013601.841        1488.584
 93  5  6  6 54  0.0030000  0  8  1  3 22 23 26 28 21 17             0.003919930
  -8863721.288 5   -532231.774 5  25509953.637       -3427.241
  -8620475.250 6  -6592082.066 6  23150136.519        3401.762
    331701.917 5    251188.552 5  25770099.000        2574.680
 -30539577.038 8 -12918424.292 9  21699119.374         711.142
  -1500754.608 6  -1201245.223 5  24759733.626        3035.540
 -15565335.462 7 -10144795.040 7  23327502.598       -2077.134
 -25360472.698 7  -9964054.772 8  22632784.788       -1455.290
 -12139952.271 7  -9371092.300 9  22022128.776        1498.696
 93  5  6  6 54 30.0030000  0  8  1  3 22 23 26 28 21 17             0.003926310
  -8966507.609 5   -612324.923 5  25490394.757       -3425.210
  -8518189.961 6  -6512379.255 6  23169600.780        3416.964
    409022.616 5    311438.410 5  25784811.897        2579.930
 -30518093.264 8 -12901683.691 9  21703207.642         721.053
  -1409518.049 6  -1130151.820 5  24777094.625        3047.097
 -15627427.924 6 -10193178.737 7  23315686.866       -2062.448
 -25403989.420 7  -9997963.883 8  22624504.061       -1445.993
 -12094831.300 7  -9335933.096 9  22030715.174        1509.441
 93  5  6  6 55  0.0030000  0  8  1  3 22 23 26 28 21 17             0.003932710
  -9069236.560 5   -692373.427 5  25470846.307       -3423.380
  -8415452.751 6  -6432324.319 6  23189150.628        3432.015
    486499.294 5    371809.828 5  25799555.350        2585.419
 -30496318.339 8 -12884716.201 9  21707351.292         730.732
  -1317936.222 6  -1058789.329 5  24794523.548        3058.448
 -15689082.252 7 -10241221.061 7  23303954.699       -2047.694
 -25447235.505 7 -10031662.102 8  22616274.820       -1436.951
 -12049385.173 7  -9300520.518 9  22039363.006        1520.341
 93  5  6  6 55 30.0030000  0  8  1  3 22 23 26 28 21 17             0.003939110
  -9171903.694 5   -772373.654 5  25451308.946       -3421.359
  -8312259.222 6  -6351913.802 6  23208787.524        3447.154
    564144.441 5    432312.504 5  25814330.312        2590.730
 -30474243.455 8 -12867514.996 9  21711552.116         740.747
  -1226013.792 6   -987161.478 5  24812016.537        3069.486
 -15750277.003 7 -10288905.272 7  23292310.161       -2031.997
 -25490200.771 7 -10065141.518 8  22608098.817       -1427.548
 -12003615.387 8  -9264855.764 9  22048073.005        1530.774
 93  5  6  6 56  0.0030000  0  8  1  3 22 23 26 28 21 17             0.003945520
  -9274515.636 5   -852330.992 5  25431783.128       -3419.386
  -8208615.882 6  -6271152.814 6  23228510.235        3462.136
    641937.904 5    492930.728 5  25829133.590        2595.541
 -30451873.067 8 -12850083.512 9  21715809.028         750.688
  -1133771.917 6   -915284.703 5  24829569.638        3080.024
 -15810996.639 7 -10336219.268 7  23280756.066       -2015.981
 -25532893.675 7 -10098408.702 8  22599974.141       -1418.762
 -11957533.978 7  -9228948.163 9  22056842.056        1541.392
 93  5  6  6 56 30.0030000  0  8  1  3 22 23 26 28 21 17             0.003951930
  -9377073.591 5   -932246.166 5  25412266.574       -3417.913
  -8104526.857 7  -6190044.512 6  23248317.925        3476.934
    719883.086 5    553667.211 5  25843966.763        2600.971
 -30429198.087 8 -12832414.696 9  21720123.979         761.103
  -1041206.324 6   -843155.696 5  24847184.468        3091.183
 -15871239.127 7 -10383161.432 7  23269291.926       -1999.955
 -25575332.192 7 -10131477.639 8  22591898.925       -1410.362
 -11911137.531 7  -9192795.093 9  22065671.301        1551.618
 93  5  6  6 57  0.0030000  0  8  1  3 22 23 26 28 21 17             0.003958350
  -9479576.698 5  -1012118.666 5  25392759.867       -3415.606
  -7999990.026 7  -6108587.252 6  23268210.412        3491.903
    797993.764 5    614532.633 5  25858831.355        2606.311
 -30406203.264 8 -12814496.642 9  21724499.530         771.769
   -948298.672 6   -770760.108 5  24864864.192        3102.392
 -15930988.672 7 -10429719.535 7  23257921.392       -1983.363
 -25617502.409 7 -10164337.535 8  22583874.369       -1400.805
 -11864443.566 7  -9156410.186 9  22074557.112        1561.101
 93  5  6  6 57 30.0030000  0  8  1  3 22 23 26 28 21 17             0.003964770
  -9582024.663 5  -1091948.155 5  25373264.624       -3413.953
  -7895009.922 6  -6026784.605 6  23288187.935        3506.758
    876253.408 5    675514.140 5  25873724.099        2611.073
 -30382891.153 8 -12796331.354 9  21728935.580         782.460
   -855063.857 6   -698109.610 5  24882605.420        3113.342
 -15990241.631 7 -10475890.649 7  23246646.314       -1966.707
 -25659375.175 7 -10196965.640 8  22575906.638       -1390.675
 -11817480.154 8  -9119815.334 9  22083494.106        1569.953
 93  5  6  6 58  0.0030000  0  8  1  3 22 23 26 28 21 17             0.003971190
  -9684419.441 5  -1171736.239 5  25353779.469       -3412.033
  -7789589.458 6  -5944638.837 6  23308248.587        3521.296
    954642.124 5    736596.195 5  25888641.116        2615.335
 -30359269.642 8 -12777924.979 9  21733430.500         792.647
   -761509.293 6   -625209.945 5  24900407.798        3124.096
 -16049007.151 7 -10521681.940 7  23235463.752       -1950.776
 -25700949.819 7 -10229361.442 8  22567995.190       -1380.559
 -11770249.379 7  -9083012.135 9  22092481.714        1578.969
 93  5  6  6 58 30.0030000  0  8  1  3 22 23 26 28 21 17             0.003977610
  -9786756.910 5  -1251479.654 5  25334306.642       -3410.408
  -7683732.668 6  -5862153.029 6  23328392.833        3535.715
   1033168.467 5    797785.553 5  25903584.267        2619.793
 -30335337.619 8 -12759276.648 9  21737984.666         802.855
   -667626.870 6   -552054.809 5  24918272.117        3134.772
 -16107295.837 7 -10567101.702 7  23224372.150       -1934.905
 -25742206.777 7 -10261509.710 8  22560144.067       -1369.755
 -11722756.239 7  -9046004.496 9  22101519.216        1587.330
 93  5  6  6 59  0.0030000  0  8  1  3 22 23 26 28 21 17             0.003984030
  -9889029.464 5  -1331172.497 5  25314844.507       -3407.724
  -7577439.380 6  -5779327.107 6  23348619.377        3550.237
   1111825.262 5    859076.480 5  25918551.716        2623.815
 -30311103.940 8 -12740393.265 9  21742596.434         812.673
   -573427.903 6   -478653.034 5  24936199.076        3144.934
 -16165100.020 7 -10612143.901 7  23213372.619       -1918.831
 -25783127.569 7 -10293396.011 8  22552357.246       -1358.421
 -11674998.381 7  -9008790.573 9  22110607.305        1596.658
 93  5  6  6 59 30.0030000  0  8  1  3 22 23 26 28 21 17             0.003990430
  -9991222.397 5  -1410803.280 5  25295398.249       -3404.959
  -7470714.028 6  -5696164.475 6  23368928.744        3564.527
   1190602.894 5    920461.669 5  25933542.691        2627.953
 -30286572.927 8 -12721278.183 9  21747264.264         822.764
   -478933.009 6   -405020.608 5  24954181.231        3154.856
 -16222429.193 7 -10656815.976 7  23202462.530       -1903.104
 -25823724.522 7 -10325029.986 8  22544631.187       -1348.351
 -11626954.175 7  -8971353.548 9  22119749.606        1606.453
 93  5  6  7  0  0.0030000  0  8  1  3 22 23 26 28 21 17             0.003996820
 -10093322.978 5  -1490362.106 5  25275969.762       -3401.594
  -7363560.549 6  -5612668.251 6  23389319.648        3578.841
   1269501.566 5    981941.112 5  25948556.477        2632.140
 -30261741.921 8 -12701929.346 9  21751989.440         832.790
   -384133.584 6   -331150.971 5  24972219.838        3165.336
 -16279287.952 7 -10701121.497 7  23191643.072       -1887.328
 -25864030.502 7 -10356437.208 8  22536961.166       -1338.534
 -11578602.548 7  -8933676.959 9  22128950.366        1617.138
 93  5  6  7  0 30.0040000  0  8  1  3 22 23 26 28 21 17             0.004003220
 -10195331.314 5  -1569849.092 5  25256557.630       -3398.769
  -7255973.978 6  -5528834.584 6  23409792.520        3593.174
   1348532.744 5   1043523.829 5  25963596.236        2636.384
 -30236603.014 8 -12682340.569 9  21756773.429         843.002
   -289014.633 6   -257032.306 5  24990320.060        3175.734
 -16335672.405 7 -10745057.425 7  23180913.446       -1871.514
 -25904049.102 7 -10387620.502 8  22529345.838       -1329.434
 -11529926.471 8  -8895747.556 9  22138213.053        1627.860
 93  5  6  7  1  0.0040000  0  8  1  3 22 23 26 28 21 17             0.004009630
 -10297242.789 5  -1649260.567 5  25237163.724       -3395.627
  -7147964.393 6  -5444671.314 6  23430345.734        3607.214
   1427673.177 5   1105191.681 5  25978655.586        2639.660
 -30211165.889 8 -12662519.436 9  21761613.529         852.832
   -193583.433 6   -182670.347 5  25008480.009        3186.268
 -16391586.475 7 -10788626.808 7  23170273.104       -1856.263
 -25943803.519 7 -10418597.937 8  22521780.774       -1320.970
 -11480921.911 7  -8857562.196 9  22147538.488        1639.006
 93  5  6  7  1 30.0040000  0  8  1  3 22 23 26 28 21 17             0.004016040
 -10399067.672 5  -1728604.560 5  25217787.276       -3392.817
  -7039531.802 6  -5360178.443 6  23450979.970        3621.480
   1506917.211 5   1166940.253 5  25993734.920        2643.178
 -30185426.534 8 -12642462.798 9  21766511.539         863.173
    -97836.390 5   -108062.277 5  25026700.844        3197.000
 -16447040.333 7 -10831837.625 7  23159720.977       -1840.559
 -25983305.015 7 -10449378.306 8  22514263.808       -1312.448
 -11431583.113 8  -8819116.397 9  22156927.468        1650.319
 93  5  6  7  2  0.0040000  0  8  1  3 22 23 26 28 21 17             0.004022450
 -10500809.578 5  -1807883.978 5  25198426.073       -3390.267
  -6930671.630 6  -5275352.387 6  23471695.412        3635.487
   1586266.725 5   1228770.992 5  26008835.215        2646.643
 -30159385.341 8 -12622170.955 9  21771467.066         872.643
     -1767.612 5    -33203.497 5  25044981.332        3207.259
 -16502026.995 7 -10874684.368 7  23149257.021       -1825.272
 -26022538.251 7 -10479949.647 8  22506798.216       -1303.135
 -11381905.145 8  -8780406.297 9  22166381.183        1661.195
 93  5  6  7  2 30.0040000  0  8  1  3 22 23 26 28 21 17             0.004028860
 -10602482.440 5  -1887109.508 5  25179078.376       -3387.981
  -6821398.613 6  -5190204.619 6  23492489.099        3649.141
   1665719.665 5   1290682.329 5  26023954.002        2650.088
 -30133064.615 8 -12601661.290 9  21776475.955         881.892
     94598.993 5     41887.372 5  25063319.627        3217.124
 -16556552.860 7 -10917172.036 7  23138880.583       -1809.733
 -26061496.466 7 -10510306.675 8  22499384.711       -1293.997
 -11331921.318 8  -8741457.850 9  22175892.689        1670.884
 93  5  6  7  3  0.0040000  0  8  1  3 22 23 26 28 21 17             0.004035260
 -10704073.050 5  -1966270.949 5  25159745.570       -3384.867
  -6711712.552 6  -5104734.995 6  23513362.436        3662.906
   1745271.567 5   1352670.813 5  26039091.612        2653.295
 -30106473.591 8 -12580941.014 9  21781536.265         890.899
    191260.611 5    117208.092 5  25081713.210        3226.841
 -16610595.120 7 -10959282.882 7  23128596.687       -1793.047
 -26100167.645 7 -10540440.063 8  22492025.644       -1284.041
 -11281646.723 8  -8702282.862 9  22185459.874        1680.561
 93  5  6  7  3 30.0040000  0  8  1  3 22 23 26 28 21 17             0.004041670
 -10805565.960 5  -2045356.292 5  25140432.302       -3381.209
  -6601614.572 6  -5018944.391 6  23534313.155        3676.792
   1824926.087 5   1414739.222 5  26054249.132        2657.077
 -30079606.738 8 -12560005.781 9  21786649.057         900.241
    288210.443 5    192753.403 5  25100161.891        3236.525
 -16664132.716 7 -11001000.471 7  23118409.037       -1775.904
 -26138535.148 7 -10570336.769 8  22484724.412       -1273.663
 -11231092.453 7  -8662889.919 9  22195080.288        1689.740
 93  5  6  7  4  0.0040000  0  7  1  3 23 26 28 21 17                0.004047980
 -10906952.584 5  -2124358.799 5  25121138.567       -3377.924
  -6491108.679 6  -4932835.903 6  23555341.995        3690.109
 -30052473.041 8 -12538862.634 9  21791812.513         908.752
    385449.903 5    268524.395 5  25118666.237        3246.016
 -16717159.669 7 -11042320.162 7  23108318.031       -1758.993
 -26176594.552 7 -10599993.431 8  22477482.033       -1263.645
 -11180277.827 7  -8623294.116 9  22204749.580        1697.946
 93  5  6  7  4 30.0040000  0  7  1  3 23 26 28 21 17                0.004054410
 -11008236.872 5  -2203281.576 5  25101864.740       -3374.582
  -6380197.815 6  -4846411.875 6  23576447.755        3703.639
 -30025071.082 8 -12517510.450 9  21797027.031         917.942
    482974.269 5    344517.405 5  25137224.561        3255.439
 -16769662.812 7 -11083231.701 7  23098327.217       -1741.348
 -26214354.573 7 -10629416.801 8  22470296.747       -1253.838
 -11129209.465 7  -8583500.600 9  22214467.573        1706.657
 93  5  6  7  5  0.0040000  0  7  1  3 23 26 28 21 17                0.004060850
 -11109419.542 5  -2282125.175 5  25082611.048       -3371.015
  -6268882.048 6  -4759672.407 6  23597630.214        3717.098
 -29997391.440 8 -12495941.898 9  21802294.175         927.420
    580782.213 5    420731.380 5  25155836.855        3264.854
 -16821643.058 7 -11123735.787 7  23088436.068       -1724.259
 -26251824.428 7 -10658614.069 8  22463166.321       -1244.371
 -11077865.699 7  -8543492.491 9  22224237.673        1716.284
 93  5  6  7  5 30.0040000  0  7  1  3 23 26 28 21 17                0.004067290
 -11210504.208 5  -2360892.438 5  25063375.579       -3367.938
  -6157164.564 6  -4672619.889 6  23618889.663        3730.405
 -29969425.394 8 -12474150.175 9  21807615.582         936.967
    678869.686 5    497163.194 5  25174502.346        3274.189
 -16873123.437 7 -11163850.359 7  23078639.379       -1707.772
 -26289024.672 7 -10687601.243 8  22456087.214       -1235.719
 -11026224.441 7  -8503252.560 9  22234064.456        1726.507
 93  5  6  7  6  0.0040000  0  7  1  3 23 26 28 21 17                0.004073710
 -11311496.207 5  -2439587.445 5  25044157.188       -3364.814
  -6045047.012 6  -4585255.613 6  23640224.430        3743.790
 -29941171.139 8 -12452133.863 9  21812992.439         946.674
    777234.449 6    573811.047 5  25193220.216        3283.448
 -16924109.833 7 -11203579.996 7  23068936.725       -1691.279
 -26325970.262 7 -10716389.986 9  22449056.690       -1227.243
 -10974271.962 7  -8462770.107 9  22243950.591        1737.048
 93  5  6  7  6 30.0040000  0  7  1  3 23 26 28 21 17                0.004080110
 -11412395.302 5  -2518210.018 5  25024957.040       -3361.702
  -5932536.920 6  -4497585.455 6  23661633.863        3756.704
 -29912626.492 8 -12429891.274 9  21818424.580         956.258
    875868.503 6    650668.742 5  25211989.919        3292.332
 -16974604.416 7 -11242926.411 7  23059327.558       -1675.103
 -26362664.984 7 -10744983.257 9  22442073.726       -1218.913
 -10922003.854 7  -8422041.727 9  22253897.077        1747.474
 93  5  6  7  7  0.0040000  0  7  1  3 23 26 28 21 17                0.004086500
 -11513194.725 5  -2596754.981 5  25005775.054       -3357.990
  -5819637.510 6  -4409611.927 6  23683118.206        3769.813
 -29883799.396 8 -12407428.600 9  21823910.402         965.668
    974779.164 6    727741.951 5  25230811.752        3301.820
 -17024615.365 7 -11281895.986 7  23049811.089       -1658.763
 -26399108.403 7 -10773380.705 9  22435138.770       -1210.420
 -10869421.090 7  -8381068.160 9  22263903.411        1758.232
 93  5  6  7  7 30.0040000  0  7  1  3 23 26 28 21 17                0.004092890
 -11613882.562 5  -2675212.982 5  24986613.867       -3354.382
  -5706347.289 6  -4321333.907 5  23704676.493        3782.711
 -29854692.620 8 -12384747.988 9  21829448.966         974.814
   1073968.783 6    805032.566 5  25249686.755        3310.872
 -17074126.441 7 -11320476.029 7  23040389.272       -1641.698
 -26435291.269 7 -10801575.141 9  22428253.181       -1201.528
 -10816518.295 7  -8339845.210 9  22273970.413        1768.640
 93  5  6  7  8  0.0040000  0  7  1  3 23 26 28 21 17                0.004099280
 -11714454.919 5  -2753581.006 5  24967476.228       -3350.448
  -5592666.175 6  -4232751.250 5  23726309.293        3795.938
 -29825312.505 8 -12361854.385 9  21835039.577         983.927
   1173436.660 5    882539.990 5  25268614.546        3320.384
 -17123110.759 7 -11358645.623 7  23031067.571       -1623.682
 -26471188.354 7 -10829546.875 9  22421421.645       -1191.537
 -10763308.398 7  -8298382.963 9  22284096.102        1778.902
 93  5  6  7  8 30.0040000  0  7  1  3 23 26 28 21 17                0.004105690
 -11814916.829 5  -2831862.963 5  24948358.661       -3347.020
  -5478590.161 6  -4143860.868 5  23748017.557        3808.963
 -29795661.924 8 -12338750.035 9  21840682.021         992.755
   1273186.093 6    960266.803 5  25287596.312        3329.591
 -17171547.718 7 -11396388.710 7  23021850.967       -1605.528
 -26506792.477 7 -10857290.325 9  22414647.151       -1182.088
 -10709787.820 7  -8256678.645 9  22294280.602        1789.154
 93  5  6  7  9  0.0040000  0  7  1  3 23 26 28 21 17                0.004112100
 -11915266.034 5  -2910057.106 5  24929263.480       -3343.024
  -5364118.638 6  -4054662.342 5  23769800.757        3822.106
 -29765742.674 8 -12315436.321 9  21846375.519        1001.888
   1373213.265 5   1038210.076 5  25306631.743        3338.703
 -17219435.494 7 -11433703.838 7  23012738.245       -1587.117
 -26542106.780 7 -10884807.933 9  22407927.216       -1172.274
 -10655944.711 7  -8214722.979 9  22304526.686        1800.202
 93  5  6  7  9 30.0040000  0  7  1  3 23 26 28 21 17                0.004118510
 -12015497.837 5  -2988159.810 5  24910190.185       -3339.172
  -5249257.088 6  -3965159.877 5  23791658.497        3835.114
 -29735546.852 8 -12291907.123 9  21852121.450        1011.080
   1473505.202 5   1116359.626 5  25325715.938        3347.388
 -17266770.835 7 -11470588.514 7  23003730.548       -1568.636
 -26577128.234 7 -10912097.371 9  22401262.527       -1162.560
 -10601786.968 7  -8172522.164 9  22314832.433        1810.137
 93  5  6  7 10  0.0040000  0  7  1  3 23 26 28 21 17                0.004124920
 -12115618.200 5  -3066175.613 5  24891137.176       -3335.483
  -5134011.599 6  -3875358.216 5  23813588.839        3847.620
 -29705077.856 8 -12268165.034 9  21857919.587        1020.173
   1574055.371 5   1194710.407 5  25344850.666        3355.835
 -17313570.346 7 -11507055.644 7  22994824.761       -1551.523
 -26611865.771 7 -10939165.559 9  22394652.336       -1153.498
 -10547341.447 7  -8130097.074 9  22325193.092        1819.509
 93  5  6  7 10 30.0040000  0  7  1  3 23 26 28 21 17                0.004131320
 -12215607.507 5  -3144089.331 5  24872108.939       -3330.328
  -5018387.011 6  -3785261.169 5  23835591.812        3860.516
 -29674324.936 8 -12244201.736 9  21863771.307        1030.158
   1674854.283 6   1273254.984 5  25364031.748        3364.172
 -17359861.806 7 -11543126.924 7  22986015.682       -1534.681
 -26646330.514 7 -10966021.192 9  22388093.717       -1143.945
 -10492605.784 7  -8087445.940 9  22335608.741        1829.592
 93  5  6  7 11  0.0040000  0  7  1  3 23 26 28 21 17                0.004137720
 -12315431.459 5  -3221874.202 5  24853114.198       -3324.652
  -4902380.737 6  -3694866.750 5  23857666.631        3873.067
 -29643274.266 8 -12220006.426 9  21869679.836        1039.959
   1775898.211 5   1351990.535 5  25383259.966        3372.137
 -17405660.988 7 -11578814.585 7  22977300.731       -1518.452
 -26680498.222 7 -10992645.354 9  22381591.847       -1133.908
 -10437576.657 7  -8044566.092 9  22346080.321        1839.004
 93  5  6  7 11 30.0040000  0  7  1  3 23 26 28 21 17                0.004144110
 -12415091.886 5  -3299531.661 5  24834150.262       -3319.464
  -4786001.873 6  -3604181.987 5  23879812.341        3885.248
 -29611935.705 8 -12195586.739 9  21875643.377        1049.035
   1877174.101 5   1430906.802 5  25402533.048        3379.513
 -17450971.326 7 -11614121.338 7  22968678.463       -1502.302
 -26714374.027 7 -11019042.073 9  22375145.290       -1124.595
 -10382273.668 7  -8001472.884 9  22356604.005        1847.972
 93  5  6  7 12  0.0040000  0  7  1  3 23 26 28 21 17                0.004150480
 -12514590.944 5  -3377063.356 5  24815215.817       -3313.985
  -4669254.106 6  -3513209.750 5  23902029.010        3897.542
 -29580323.931 8 -12170954.179 9  21881658.654        1058.276
   1978676.573 5   1509999.553 5  25421848.168        3387.049
 -17495794.085 7 -11649048.170 7  22960148.258       -1485.841
 -26747958.798 7 -11045211.992 9  22368754.662       -1114.511
 -10326684.875 7  -7958156.968 9  22367182.343        1858.000
 93  5  6  7 12 30.0040000  0  7  1  3 23 26 28 21 17                0.004156840
 -12613926.903 6  -3454467.970 5  24796313.233       -3308.886
  -4552136.042 6  -3421948.972 5  23924315.512        3909.957
 -29548441.624 8 -12146110.831 9  21887725.973        1067.028
   2080409.341 5   1589271.871 5  25441206.084        3394.911
 -17540103.878 7 -11683575.273 7  22951716.592       -1468.166
 -26781237.460 7 -11071143.415 9  22362421.646       -1104.199
 -10270786.856 7  -7914600.084 9  22377819.806        1868.332
 93  5  6  7 13  0.0040000  0  7  1  3 23 26 28 21 17                0.004163200
 -12713129.768 5  -3531768.865 5  24777434.171       -3304.732
  -4434650.292 6  -3330401.638 5  23946673.054        3922.194
 -29516309.065 8 -12121072.470 9  21893840.850        1075.141
   2182375.876 5   1668726.330 5  25460609.426        3402.921
 -17583878.735 7 -11717685.543 7  22943386.850       -1449.806
 -26814212.303 7 -11096838.057 9  22356147.002       -1094.296
 -10214586.897 7  -7870807.927 9  22388514.322        1878.326
 93  5  6  7 13 30.0040000  0  7  1  3 23 26 28 21 17                0.004169560
 -12812210.599 6  -3608974.668 5  24758579.284       -3300.757
  -4316797.202 6  -3238568.089 5  23969099.985        3934.379
 -29483930.793 8 -12095842.633 9  21900002.295        1083.419
   2284589.940 5   1748373.595 5  25480060.343        3411.292
 -17627084.528 7 -11751352.393 8  22935165.187       -1430.600
 -26846897.488 7 -11122307.026 9  22349927.180       -1084.755
 -10158081.778 7  -7826777.977 9  22399266.652        1888.705
 93  5  6  7 14  0.0040000  0  8  1  3 23 26 28 21 17 31             0.004175990
 -12911177.594 5  -3686091.783 5  24739744.920       -3296.986
  -4198583.810 6  -3146453.814 5  23991594.801        3946.343
 -29451299.625 8 -12070415.740 9  21906211.657        1092.158
   2387054.212 5   1828215.880 5  25499559.603        3419.706
 -17669713.547 7 -11784569.808 8  22927052.942       -1411.153
 -26879298.742 7 -11147554.737 9  22343761.693       -1075.297
 -10101271.774 7  -7782510.463 9  22410077.527        1898.704
  -9576720.48715  -2677445.12115  25864725.390       -2835.062
 93  5  6  7 14 30.0040000  0  8  1  3 23 26 28 21 17 31             0.004182360
 -13010021.109 5  -3763112.706 5  24720936.154       -3292.615
  -4080010.618 6  -3054059.190 5  24014159.325        3958.354
 -29418404.601 8 -12044783.265 9  21912471.582        1100.993
   2489780.217 5   1908262.098 5  25519107.211        3428.576
 -17711755.383 7 -11817329.680 8  22919052.981       -1391.638
 -26911427.328 7 -11172589.986 9  22337647.809       -1066.542
 -10044162.837 7  -7738009.992 9  22420944.902        1908.581
  -9661647.159 5  -2743621.707 5  25848564.579       -2826.633
 93  5  6  7 15  0.0040000  0  8  1  3 23 26 28 21 17 31             0.004188740
 -13108731.358 5  -3840029.760 5  24702152.289       -3287.711
  -3961080.507 6  -2961386.443 5  24036790.916        3970.245
 -29385241.429 8 -12018941.820 9  21918782.802        1109.978
   2592761.374 5   1988507.167 5  25538704.512        3436.937
 -17753214.909 7 -11849635.803 8  22911163.629       -1372.182
 -26943294.890 7 -11197421.830 9  22331582.938       -1057.857
  -9986758.945 7  -7693279.698 9  22431868.324        1918.479
  -9746321.770 5  -2809601.959 5  25832452.136       -2818.223
 93  5  6  7 15 30.0040000  0  8  1  3 23 26 28 21 17 31             0.004195120
 -13207284.404 6  -3916824.291 5  24683398.839       -3282.413
  -3841794.287 6  -2868436.208 5  24059490.984        3981.992
 -29351804.655 8 -11992887.192 9  21925145.239        1119.102
   2695995.456 5   2068949.304 5  25558349.360        3445.149
 -17794095.418 7 -11881490.749 8  22903384.745       -1353.316
 -26974905.130 7 -11222053.157 9  22325568.009       -1049.410
  -9929054.645 7  -7648315.321 9  22442849.097        1928.554
  -9830740.849 5  -2875383.044 5  25816387.038       -2809.779
 93  5  6  7 16  0.0040000  0  8  1  3 23 26 28 21 17 31             0.004201510
 -13305675.636 6  -3993492.752 5  24664675.606       -3276.937
  -3722156.992 6  -2775212.421 5  24082257.289        3993.719
 -29318101.078 8 -11966624.660 9  21931558.599        1127.796
   2799467.197 6   2149576.575 5  25578039.811        3452.898
 -17834422.027 7 -11912914.070 8  22895710.441       -1335.064
 -27006260.616 7 -11246485.988 9  22319601.302       -1040.868
  -9871048.382 7  -7603115.645 9  22453887.105        1938.712
  -9914903.992 5  -2940964.656 5  25800370.305       -2801.078
 93  5  6  7 16 30.0040000  0  8  1  3 23 26 28 21 17 31             0.004207890
 -13403906.003 6  -4070035.887 5  24645983.130       -3271.560
  -3602173.822 6  -2681719.056 5  24105089.364        4005.116
 -29284150.363 8 -11940169.565 9  21938019.485        1135.722
   2903158.741 5   2230375.173 5  25597771.119        3459.689
 -17874217.201 7 -11943923.292 8  22888137.552       -1317.691
 -27037361.350 7 -11270720.314 9  22313683.058       -1032.160
  -9812735.611 7  -7557677.132 9  22464983.855        1948.919
  -9998810.903 5  -3006346.651 5  25784403.541       -2792.481
 93  5  6  7 17  0.0040000  0  8  1  3 23 26 28 21 17 31             0.004214270
 -13501975.848 5  -4146453.938 5  24627321.421       -3266.276
  -3481845.192 6  -2587956.544 5  24127986.760        4016.561
 -29249960.085 8 -11913527.782 9  21944525.253        1143.634
   3007042.730 5   2311323.754 5  25617538.958        3465.992
 -17913481.567 7 -11974518.914 8  22880665.238       -1300.100
 -27068188.735 7 -11294741.635 9  22307816.581       -1023.059
  -9754121.966 7  -7512004.188 9  22476137.846        1958.790
 -10082456.994 5  -3071525.363 5  25768487.502       -2783.905
 93  5  6  7 17 30.0040000  0  8  1  3 23 26 28 21 17 31             0.004220650
 -13599871.385 5  -4222736.107 5  24608692.679       -3260.187
  -3361170.680 6  -2493924.550 5  24150949.932        4028.184
 -29215523.684 8 -11886694.224 9  21951078.185        1152.226
   3111127.260 5   2392428.583 5  25637346.266        3472.885
 -17952219.935 7 -12004704.651 8  22873293.767       -1282.345
 -27098736.030 7 -11318544.706 9  22302003.325       -1013.274
  -9695201.503 7  -7466092.172 9  22487349.799        1969.362
 -10165836.802 6  -3136496.605 5  25752620.523       -2774.684
 93  5  6  7 18  0.0040000  0  8  1  3 23 26 28 21 17 31             0.004227020
 -13697593.084 6  -4298882.891 5  24590096.982       -3254.532
  -3240151.403 6  -2399623.861 5  24173978.626        4039.561
 -29180832.980 8 -11859662.504 9  21957679.844        1160.608
   3215410.223 6   2473688.011 5  25657190.564        3479.386
 -17990428.063 7 -12034477.204 8  22866023.358       -1264.796
 -27128989.883 7 -11342119.112 9  22296246.029       -1003.569
  -9635967.286 7  -7419935.641 9  22498622.062        1979.639
 -10248945.443 5  -3201256.556 5  25736805.104       -2765.776
 93  5  6  7 18 30.0040000  0  8  1  3 23 26 28 21 17 31             0.004233390
 -13795130.704 5  -4374886.199 5  24571535.588       -3247.762
  -3118790.143 6  -2305056.710 5  24197073.224        4051.129
 -29145880.167 8 -11832426.535 9  21964331.369        1169.776
   3319900.056 5   2555108.653 5  25677074.086        3486.848
 -18028101.159 7 -12063832.876 8  22858854.392       -1246.482
 -27158942.809 7 -11365459.039 9  22290546.807        -993.264
  -9576426.453 7  -7373540.189 9  22509952.089        1989.840
 -10331781.113 5  -3265803.798 5  25721041.381       -2756.421
 93  5  6  7 19  0.0040000  0  8  1  3 23 26 28 21 17 31             0.004239760
 -13892469.523 5  -4450734.601 5  24553013.476       -3241.222
  -2997082.495 6  -2210219.649 5  24220233.391        4062.515
 -29110644.451 8 -11804970.140 9  21971036.307        1179.381
   3424620.008 5   2636708.615 5  25697002.012        3494.776
 -18065221.258 7 -12092757.626 8  22851790.483       -1228.246
 -27188594.218 7 -11388564.019 9  22284904.852        -983.529
  -9516579.611 7  -7326906.299 9  22521340.111        2000.214
 -10414334.524 5  -3330131.091 5  25705331.719       -2747.106
 93  5  6  7 19 30.0040000  0  8  1  3 23 26 28 21 17 31             0.004246150
 -13989606.571 6  -4526425.797 5  24534527.437       -3235.015
  -2875032.266 6  -2115115.573 5  24243459.223        4073.741
 -29075119.790 8 -11777288.579 9  21977796.687        1188.632
   3529593.400 5   2718506.105 5  25716977.020        3503.068
 -18101797.856 7 -12121258.870 8  22844829.764       -1210.122
 -27217953.137 7 -11411441.075 9  22279318.218        -973.904
  -9456412.656 7  -7280022.970 9  22532789.705        2010.698
 -10496603.416 5  -3394236.672 5  25689675.458       -2737.691
 93  5  6  7 20  0.0040000  0  8  1  3 23 26 28 21 17 31             0.004252540
 -14086571.478 6  -4601982.849 5  24516077.631       -3229.317
  -2752650.408 6  -2019753.152 5  24266747.943        4084.719
 -29039326.460 8 -11749397.683 9  21984608.212        1197.429
   3634808.959 5   2800492.175 5  25736999.487        3511.138
 -18137823.795 7 -12149331.056 8  22837975.097       -1191.590
 -27247029.958 7 -11434098.331 9  22273785.251        -964.611
  -9395941.241 7  -7232902.407 9  22544297.288        2020.594
 -10578594.146 5  -3458125.507 5  25674073.109       -2728.325
 93  5  6  7 20 30.0040000  0  8  1  3 23 26 28 21 17 31             0.004258930
 -14183369.951 5  -4677410.196 5  24497656.410       -3223.826
  -2629940.538 6  -1924135.139 5  24290098.272        4095.773
 -29003278.084 8 -11721308.017 9  21991467.682        1205.815
   3740257.277 5   2882659.733 5  25757065.159        3518.783
 -18173286.633 7 -12176964.412 8  22831226.132       -1172.318
 -27275828.699 7 -11456538.890 9  22268304.633        -955.225
  -9335178.084 7  -7185554.512 9  22555860.182        2030.461
 -10660304.747 6  -3521796.106 5  25658524.676       -2718.914
 93  5  6  7 21  0.0040000  0  8  1  3 23 26 28 21 17 31             0.004265330
 -14280004.158 6  -4752709.525 5  24479267.294       -3218.299
  -2506898.548 6  -1828258.358 5  24313513.012        4106.828
 -28966983.978 8 -11693026.906 9  21998374.183        1213.656
   3845929.144 5   2965001.412 5  25777174.652        3525.961
 -18208164.146 7 -12204141.718 8  22824589.593       -1152.756
 -27304343.435 7 -11478758.152 9  22262878.491        -945.714
  -9274103.720 7  -7137964.128 9  22567482.290        2041.266
 -10741725.951 5  -3585241.168 5  25643030.408       -2709.151
 93  5  6  7 21 30.0040000  0  8  1  3 23 26 28 21 17 31             0.004271730
 -14376474.393 6  -4827881.127 5  24460909.704       -3213.249
  -2383529.061 6  -1732126.346 5  24336989.641        4117.516
 -28930470.769 8 -11664575.057 9  22005322.354        1220.280
   3951808.425 5   3047504.749 5  25797323.124        3532.365
 -18242452.482 7 -12230859.905 8  22818064.662       -1133.028
 -27332572.503 7 -11500754.802 9  22257506.289        -936.412
  -9212716.861 7  -7090130.231 9  22579164.121        2051.079
 -10822857.408 5  -3648460.487 5  25627592.199       -2699.646
 93  5  6  7 22  0.0040000  0  8  1  3 23 26 28 21 17 31             0.004278120
 -14472780.931 6  -4902925.131 5  24442583.029       -3206.938
  -2259838.426 6  -1635744.145 5  24360527.658        4128.380
 -28893759.819 8 -11635969.128 9  22012308.116        1227.155
   4057874.721 5   3130153.784 5  25817507.040        3538.828
 -18276139.856 7 -12257109.823 8  22811653.894       -1112.835
 -27360516.804 7 -11522529.576 9  22252188.788        -926.440
  -9151032.404 7  -7042064.441 8  22590902.331        2061.347
 -10903699.722 5  -3711454.443 5  25612208.075       -2689.718
 93  5  6  7 22 30.0040000  0  8  1  3 23 26 28 21 17 31             0.004284520
 -14568893.351 6  -4977817.899 5  24424293.656       -3200.520
  -2135825.479 6  -1539110.726 5  24384126.392        4138.974
 -28856847.396 8 -11607206.196 9  22019332.382        1233.773
   4164129.127 5   3212949.395 5  25837725.137        3544.985
 -18309234.777 7 -12282898.068 8  22805356.693       -1093.465
 -27388166.114 7 -11544074.477 9  22246927.282        -916.960
  -9089035.884 7  -6993755.469 8  22602699.757        2071.762
 -10984246.965 5  -3774218.500 5  25596881.410       -2680.057
 93  5  6  7 23  0.0040000  0  8  1  3 23 26 28 21 17 31             0.004290930
 -14664809.078 6  -5052557.391 5  24406042.050       -3193.882
  -2011498.789 6  -1442232.817 5  24407785.630        4149.308
 -28819735.180 8 -11578287.580 9  22026394.434        1240.486
   4270573.169 5   3295892.860 5  25857980.600        3551.404
 -18341758.796 7 -12308241.464 8  22799167.005       -1074.695
 -27415540.532 7 -11565405.170 9  22241717.758        -908.047
  -9026735.221 7  -6945209.507 8  22614554.968        2081.405
 -11064501.556 5  -3836754.518 5  25581608.519       -2670.281
 93  5  6  7 23 30.0040000  0  8  1  3 23 26 28 21 17 31             0.004297350
 -14760523.504 6  -5127140.012 5  24387827.537       -3187.151
  -1886860.460 6  -1345112.065 5  24431502.473        4159.668
 -28782411.062 8 -11549203.849 9  22033497.078        1247.832
   4377212.707 5   3378988.557 5  25878273.737        3557.776
 -18373710.245 7 -12333138.716 8  22793087.315       -1055.478
 -27442646.595 7 -11586526.759 9  22236559.369        -899.038
  -8964159.204 7  -6896448.991 8  22626462.708        2090.345
 -11144460.827 5  -3899060.426 5  25566393.959       -2660.438
 93  5  6  7 24  0.0040000  0  8  1  3 23 26 28 21 17 31             0.004303760
 -14856035.668 6  -5201565.075 5  24369652.414       -3180.210
  -1761915.919 6  -1247752.775 5  24455278.044        4169.871
 -28744853.953 8 -11519938.571 9  22040643.859        1256.192
   4484035.845 5   3462227.346 5  25898601.983        3563.856
 -18405087.277 7 -12357588.349 8  22787116.368       -1036.328
 -27469477.606 7 -11607434.029 9  22231453.677        -889.697
  -8901311.116 7  -6847476.466 8  22638422.087        2099.615
 -11224125.455 5  -3961136.723 5  25551232.684       -2650.500
 93  5  6  7 24 30.0040000  0  8  1  3 23 26 28 21 17 31             0.004310170
 -14951345.469 6  -5275832.388 5  24351515.929       -3173.899
  -1636668.896 6  -1150157.736 5  24479112.315        4179.867
 -28707038.457 8 -11490471.943 9  22047840.117        1265.144
   4591030.912 5   3545600.150 5  25918962.641        3569.240
 -18435893.611 7 -12381593.301 8  22781253.529       -1017.286
 -27496036.602 7 -11628129.325 9  22226399.783        -880.766
  -8838189.166 7  -6798290.552 8  22650434.099        2108.699
 -11303492.957 5  -4022981.530 5  25536129.746       -2640.514
 93  5  6  7 25  0.0040000  0  8  1  3 23 26 28 21 17 31             0.004316560
 -15046469.784 6  -5349955.191 5  24333415.505       -3167.647
  -1511120.397 6  -1052327.810 5  24503003.670        4189.835
 -28668947.423 8 -11460790.609 9  22055088.570        1274.316
   4698183.868 5   3629095.931 5  25939353.197        3574.287
 -18466124.263 7 -12405149.640 8  22775501.037        -997.957
 -27522320.378 7 -11648610.159 9  22221397.965        -871.350
  -8774791.384 7  -6748889.705 8  22662498.061        2118.057
 -11382559.717 5  -4084591.939 5  25521083.516       -2630.465
 93  5  6  7 25 30.0040000  0  8  1  3 23 26 28 21 17 31             0.004322930
 -15141401.633 5  -5423928.036 6  24315351.175       -3161.103
  -1385270.863 6   -954263.314 5  24526951.833        4199.938
 -28630579.044 8 -11430893.177 9  22062389.486        1283.651
   4805482.129 5   3712704.959 5  25959771.139        3579.107
 -18495772.506 7 -12428252.179 8  22769858.824        -978.597
 -27548311.979 7 -11668863.345 9  22216452.280        -861.329
  -8711087.067 7  -6699249.995 8  22674621.104        2129.139
 -11461320.040 5  -4145963.570 5  25506095.996       -2620.114
 93  5  6  7 26  0.0040000  0  8  1  3 23 26 28 21 17 31             0.004329270
 -15236145.900 6  -5497754.677 6  24297321.893       -3154.896
  -1259124.833 6   -855967.755 5  24550957.253        4209.742
 -28591935.852 8 -11400781.606 9  22069742.977        1292.649
   4912922.910 5   3796425.071 5  25980216.770        3584.015
 -18524850.879 7 -12450910.664 8  22764325.897        -959.728
 -27574013.010 7 -11688890.096 9  22211561.479        -852.040
  -8647048.682 7  -6649349.958 8  22686807.233        2140.336
 -11539773.175 5  -4207095.873 5  25491167.609       -2609.820
 93  5  6  7 26 30.0040000  0  8  1  3 23 26 28 21 17 31             0.004335600
 -15330702.981 6  -5571435.504 6  24279326.937       -3148.736
  -1132684.494 6   -757442.831 5  24575017.767        4219.458
 -28553034.705 8 -11370469.016 9  22077145.820        1300.789
   5020525.560 5   3880271.286 5  26000693.321        3589.697
 -18553355.499 7 -12473122.060 8  22758900.822        -940.438
 -27599442.814 7 -11708705.513 9  22206722.544        -843.144
  -8582667.062 7  -6599182.477 8  22699058.689        2151.816
 -11617916.868 6  -4267987.065 5  25476298.950       -2599.580
 93  5  6  7 27  0.0040000  0  8  1  3 23 26 28 21 17 31             0.004341920
 -15425060.591 6  -5644960.886 6  24261371.577       -3141.647
  -1005954.066 6   -658691.926 5  24599133.806        4228.941
 -28513900.569 8 -11339974.881 9  22084593.243        1307.981
   5128311.859 5   3964260.562 5  26021203.960        3596.029
 -18581272.008 7 -12494875.188 9  22753589.071        -920.524
 -27624605.323 7 -11728312.642 9  22201934.601        -834.501
  -8517942.177 7  -6548747.505 8  22711375.581        2163.027
 -11695749.414 5  -4328635.770 5  25461487.250       -2589.267
 93  5  6  7 27 30.0040000  0  8  1  3 23 26 28 21 17 31             0.004348240
 -15519198.453 5  -5718315.065 6  24243456.567       -3134.311
   -878936.522 6   -559717.269 5  24623304.747        4238.485
 -28474553.103 8 -11309314.521 9  22092080.970        1315.096
   5236290.401 5   4048399.691 5  26041750.780        3602.471
 -18608575.567 7 -12516150.694 9  22748393.615        -899.855
 -27649509.975 7 -11747718.856 9  22197194.844        -825.882
  -8452885.962 7  -6498054.378 8  22723755.063        2173.712
 -11773268.591 5  -4389040.334 5  25446735.274       -2578.825
 93  5  6  7 28  0.0040000  0  8  1  3 23 26 28 21 17 31             0.004354580
 -15613107.094 6  -5791490.539 6  24225586.250       -3126.121
   -751634.760 6   -460521.119 5  24647529.560        4247.997
 -28434993.593 8 -11278488.916 9  22099608.980        1322.079
   5344468.770 5   4132694.541 5  26062336.675        3609.223
 -18635255.438 7 -12536940.207 9  22743316.808        -878.814
 -27674153.872 7 -11766921.876 9  22192504.838        -817.029
  -8387523.940 7  -6447122.936 8  22736193.230        2183.748
 -11850472.179 6  -4449198.974 5  25432043.929       -2568.151
 93  5  6  7 28 30.0040000  0  8  1  3 23 26 28 21 17 31             0.004360930
 -15706767.510 6  -5864472.646 6  24207762.915       -3118.049
   -624049.515 6   -361104.088 5  24671807.273        4257.412
 -28395227.147 8 -11247502.072 9  22107176.001        1329.108
   5452840.428 5   4217139.985 5  26082959.787        3615.389
 -18661304.859 7 -12557238.448 9  22738359.229        -857.987
 -27698522.150 7 -11785910.127 9  22187868.227        -807.503
  -8321859.076 7  -6395955.528 8  22748688.513        2193.622
 -11927355.227 6  -4509107.810 5  25417413.791       -2557.359
 93  5  6  7 29  0.0040000  0  8  1  3 23 26 28 21 17 31             0.004367300
 -15800181.976 6  -5937263.092 6  24189986.521       -3109.669
   -496185.059 6   -261469.546 5  24696139.634        4266.743
 -28355242.567 8 -11216345.256 9  22114784.802        1336.546
   5561384.601 5   4301719.827 5  26103616.242        3620.793
 -18686734.425 7 -12577053.694 9  22733520.562        -837.390
 -27722607.817 7 -11804678.173 9  22183285.003        -798.151
  -8255912.694 7  -6344568.754 8  22761237.762        2202.887
 -12003916.779 5  -4568766.176 5  25402845.248       -2546.622
 93  5  6  7 29 30.0040000  0  8  1  3 23 26 28 21 17 31             0.004373660
 -15893353.154 6  -6009863.969 6  24172256.833       -3101.916
   -368041.089 5   -161617.198 5  24720526.277        4275.903
 -28315031.554 8 -11185012.005 9  22122436.786        1344.198
   5670090.112 5   4386425.428 5  26124301.221        3626.134
 -18711556.551 7 -12596395.616 9  22728797.308        -817.677
 -27746409.495 7 -11823224.912 9  22178755.467        -788.714
  -8189681.144 7  -6292959.770 8  22773841.488        2212.533
 -12080150.865 6  -4628169.329 5  25388338.033       -2535.605
 93  5  6  7 30  0.0040000  0  8  1  3 23 26 28 21 17 31             0.004380030
 -15986297.716 6  -6082288.286 6  24154570.207       -3094.736
   -239623.084 6    -61551.289 5  24744962.138        4284.966
 -28274590.788 8 -11153499.701 9  22130132.299        1351.855
   5778953.447 5   4471254.013 5  26145017.359        3631.279
 -18735800.962 7 -12615287.355 9  22724183.365        -798.643
 -27769935.769 7 -11841557.069 9  22174279.014        -780.027
  -8123163.090 7  -6241127.524 8  22786499.327        2222.041
 -12156058.053 5  -4687317.775 5  25373893.514       -2524.796
 93  5  6  7 30 30.0040000  0  8  1  3 23 26 28 21 17 31             0.004386380
 -16079034.945 6  -6154551.060 6  24136923.683       -3087.992
   -110933.556 6     38726.219 5  24769450.918        4293.907
 -28233916.306 8 -11121805.317 9  22137872.280        1359.718
   5887969.723 5   4556201.787 5  26165763.170        3636.452
 -18759468.661 7 -12633729.755 9  22719680.231        -779.299
 -27793214.490 7 -11859696.299 9  22169848.526        -772.108
  -8056357.724 7  -6189071.423 8  22799212.403        2231.238
 -12231635.586 6  -4746209.378 5  25359511.836       -2513.785
 93  5  6  7 31  0.0040000  0  8  1  3 23 26 28 21 17 31             0.004392730
 -16171575.063 6  -6226660.188 6  24119313.238       -3081.276
     18019.743 6    139209.220 5  24793989.888        4302.757
 -28193011.321 8 -11089931.295 9  22145656.381        1367.151
   5997134.983 5   4641265.603 5  26186536.432        3641.275
 -18782559.159 7 -12651722.307 9  22715286.777        -760.006
 -27816261.288 7 -11877654.853 9  22165462.780        -764.321
  -7989284.410 7  -6136806.519 8  22811975.787        2240.562
 -12306885.975 5  -4804846.030 5  25345191.536       -2502.753
 93  5  6  7 31 30.0040000  0  8  1  3 23 26 28 21 17 31             0.004399080
 -16263906.718 6  -6298606.897 6  24101743.266       -3074.252
    147237.736 6    239898.524 5  24818578.878        4311.506
 -28151887.659 8 -11057886.894 9  22153481.813        1374.483
   6106447.010 5   4726443.818 5  26207336.887        3646.074
 -18805075.016 7 -12669267.157 9  22711002.210        -741.112
 -27839064.960 7 -11895423.919 9  22161123.244        -755.896
  -7921924.741 7  -6084318.481 8  22824794.023        2249.936
 -12381802.431 6  -4863222.468 5  25330936.276       -2491.630
 93  5  6  7 32  0.0040000  0  8  1  3 23 26 28 21 17 31             0.004405420
 -16356028.216 6  -6370389.849 6  24084213.434       -3066.999
    276712.508 6    340787.850 5  24843216.861        4319.851
 -28110543.778 8 -11025670.877 9  22161349.246        1381.684
   6215899.295 5   4811731.294 5  26228164.826        3650.710
 -18827025.118 7 -12686371.145 9  22706824.738        -722.083
 -27861616.327 7 -11912996.407 9  22156832.422        -747.443
  -7854292.689 7  -6031618.181 8  22837663.657        2258.854
 -12456387.845 5  -4921340.955 5  25316743.235       -2480.759
 93  5  6  7 32 30.0040000  0  8  1  3 23 26 28 21 17 31             0.004411740
 -16447921.877 6  -6441995.270 6  24066726.741       -3058.828
    406436.329 5    441871.314 5  24867902.632        4328.288
 -28068992.559 8 -10993293.315 9  22169255.963        1388.558
   6325479.021 5   4897118.104 5  26249016.070        3654.812
 -18848402.398 7 -12703028.765 9  22702756.579        -702.946
 -27883900.766 7 -11930360.886 9  22152591.879        -737.839
  -7786397.205 7  -5978712.655 8  22850583.799        2267.723
 -12530644.221 6  -4979203.041 5  25302611.986       -2469.561
 93  5  6  7 33  0.0040000  0  7  1  3 23 28 21 17 31                0.004418120
 -16539559.030 6  -6513400.787 6  24049288.571       -3050.315
    536412.833 5    543151.642 5  24892635.962        4336.455
 -28027233.663 8 -10960753.908 9  22177202.413        1395.263
 -18869210.663 7 -12719243.000 9  22698796.372        -684.212
 -27905883.051 7 -11947489.911 9  22148408.982        -727.869
  -7718220.794 7  -5925588.185 8  22863557.268        2277.510
 -12604562.918 6  -5036801.960 5  25288545.903       -2458.380
 93  5  6  7 33 30.0040000  0  7  1  3 23 28 21 17 31                0.004424430
 -16630932.035 6  -6584600.483 6  24031900.380       -3041.343
    666640.189 5    644627.387 5  24917417.842        4344.925
 -27985264.988 8 -10928051.047 9  22185188.793        1402.631
 -18889446.914 7 -12735011.518 9  22694946.144        -664.774
 -27927565.810 7 -11964385.548 9  22144282.572        -717.842
  -7649750.253 7  -5872234.545 8  22876586.780        2287.058
 -12678140.018 6  -5094134.783 5  25274544.445       -2446.804
 93  5  6  7 34  0.0040000  0  7  1  3 23 28 21 17 31                0.004430730
 -16722034.745 6  -6655589.560 6  24014564.135       -3032.064
    797116.932 5    746297.503 5  24942245.828        4353.356
 -27943073.011 8 -10895174.189 9  22193218.196        1410.057
 -18909086.662 7 -12750315.228 9  22691208.772        -644.351
 -27948955.864 7 -11981053.133 9  22140211.932        -708.242
  -7580986.019 7  -5818652.078 7  22889672.296        2297.333
 -12751372.147 6  -5151198.747 5  25260609.358       -2435.219
 93  5  6  7 34 30.0040000  0  7  1  3 23 28 21 17 31                0.004437020
 -16812870.212 6  -6726370.400 6  23997278.929       -3023.637
    927844.308 6    848162.908 5  24967123.534        4361.465
 -27900666.595 8 -10862130.221 9  22201287.780        1417.064
 -18928110.605 7 -12765139.069 9  22687589.040        -623.926
 -27970062.346 7 -11997499.698 9  22136195.113        -699.073
  -7511905.484 7  -5764823.105 7  22902818.112        2308.129
 -12824252.307 5  -5207988.454 5  25246740.338       -2423.547
 93  5  6  7 35  0.0040000  0  7  1  3 23 28 21 17 31                0.004443320
 -16903456.444 6  -6796957.037 6  23980041.272       -3015.382
   1058816.705 6    950219.223 5  24992047.205        4369.683
 -27858050.738 8 -10828923.070 9  22209397.184        1423.914
 -18946519.348 7 -12779483.568 9  22684085.514        -603.248
 -27990903.734 7 -12013739.753 9  22132229.036        -690.450
  -7442498.755 7  -5710739.963 7  22916025.657        2318.950
 -12896781.091 6  -5264504.383 5  25232938.966       -2411.742
 93  5  6  7 35 30.0040000  0  7  1  3 23 28 21 17 31                0.004449620
 -16993793.097 6  -6867349.162 6  23962850.884       -3007.192
   1190034.456 5   1052466.792 5  25017017.296        4377.907
 -27815226.716 8 -10795553.691 9  22217546.292        1430.904
 -18964302.812 7 -12793340.810 9  22680701.011        -582.435
 -28011479.525 7 -12029772.822 9  22128313.875        -681.271
  -7372776.862 7  -5656411.216 7  22929293.471        2329.291
 -12968952.444 6  -5320741.747 5  25219204.555       -2399.739
 93  5  6  7 36  0.0040000  0  7  1  3 23 28 21 17 31                0.004455920
 -17083893.916 6  -6937557.542 6  23945705.076       -2999.623
   1321493.272 5   1154902.159 5  25042033.488        4385.847
 -27772204.089 8 -10762029.569 9  22225732.737        1437.297
 -18981465.212 7 -12806714.123 9  22677434.970        -561.759
 -28031781.725 7 -12045592.705 9  22124450.701        -672.191
  -7302735.406 7  -5601833.479 7  22942622.034        2340.106
 -13040765.582 6  -5376700.010 5  25205539.239       -2387.870
 93  5  6  7 36 30.0040000  0  7  1  3 23 28 21 17 31                0.004462210
 -17173773.522 6  -7007593.568 6  23928601.831       -2992.092
   1453189.735 5   1257522.719 5  25067094.805        4393.833
 -27728991.365 8 -10728357.314 9  22233955.412        1443.787
 -18998013.956 7 -12819609.272 9  22674285.298        -541.321
 -28051810.058 7 -12061199.199 9  22120639.750        -662.940
  -7232375.161 7  -5547007.361 7  22956010.804        2350.644
 -13112218.638 6  -5432377.700 5  25191942.707       -2375.628
 93  5  6  7 37  0.0040000  0  7  1  3 23 28 21 17 31                0.004468510
 -17263417.382 6  -7077445.880 6  23911543.284       -2984.316
   1585122.779 5   1360327.572 5  25092201.207        4401.330
 -27685577.560 8 -10694528.375 9  22242217.104        1450.222
 -19013947.809 7 -12832025.255 9  22671253.441        -521.099
 -28071560.944 7 -12076589.482 9  22116881.494        -653.907
  -7161712.125 7  -5491945.275 7  22969458.047        2360.019
 -13183307.270 5  -5487771.434 5  25178414.517       -2363.758
 93  5  6  7 37 30.0040000  0  7  1  3 23 28 21 17 31                0.004474790
 -17352823.975 6  -7147113.291 6  23894529.544       -2976.053
   1717284.185 5   1463310.431 5  25117349.802        4409.116
 -27641964.632 8 -10660544.269 9  22250516.248        1457.236
 -19029270.396 7 -12843964.928 9  22668337.638        -500.410
 -28091039.526 7 -12091767.572 9  22113174.569        -644.719
  -7090765.683 7  -5436662.359 7  22982958.357        2369.799
 -13254034.151 6  -5542883.235 5  25164955.823       -2351.427
 93  5  6  7 38  0.0040000  0  7  1  3 23 28 21 17 31                0.004481070
 -17441977.127 6  -7216583.245 6  23877563.786       -2967.337
   1849675.883 5   1566472.704 5  25142542.958        4416.650
 -27598146.171 8 -10626400.014 9  22258854.985        1464.018
 -19043973.030 7 -12855421.546 9  22665539.694        -479.716
 -28110250.609 7 -12106737.237 9  22109519.159        -635.994
  -7019530.889 7  -5381154.736 7  22996513.943        2378.973
 -13324392.162 5  -5597707.626 5  25151566.383       -2339.111
 93  5  6  7 38 30.0040000  0  7  1  3 23 28 21 17 31                0.004487350
 -17530854.262 6  -7285838.111 6  23860650.935       -2957.748
   1982295.845 5   1669812.846 5  25167780.280        4424.271
 -27554122.185 8 -10592095.602 9  22267232.577        1470.841
 -19058057.648 7 -12866396.571 9  22662859.827        -459.366
 -28129193.782 7 -12121498.143 9  22105913.745        -626.952
  -6948027.715 7  -5325438.005 7  23010120.466        2387.785
 -13394377.863 5  -5652241.931 5  25138248.148       -2326.631
 93  5  6  7 39  0.0040000  0  7  1  3 23 28 21 17 31                0.004493620
 -17619438.907 6  -7354865.072 6  23843793.877       -2947.881
   2115137.967 5   1773326.151 5  25193059.419        4431.777
 -27509901.001 8 -10557637.546 9  22275647.399        1477.351
 -19071538.185 7 -12876900.904 9  22660294.556        -439.185
 -28147869.688 7 -12136050.794 9  22102359.797        -617.963
  -6876269.189 7  -5269522.282 7  23023775.526        2396.345
 -13463992.491 6  -5706487.087 5  25125001.064       -2314.114
 93  5  6  7 39 30.0040000  0  7  1  3 23 28 21 17 31                0.004499890
 -17707725.030 6  -7423659.402 6  23826994.308       -2937.988
   2248202.691 5   1877012.813 5  25218381.691        4438.925
 -27465478.600 8 -10523022.683 9  22284101.060        1484.125
 -19084410.765 7 -12886931.485 9  22657844.218        -419.046
 -28166266.424 7 -12150385.889 9  22098859.209        -608.503
  -6804240.908 7  -5213396.378 7  23037482.634        2405.519
 -13533229.493 6  -5760437.930 5  25111825.896       -2301.775
 93  5  6  7 40  0.0040000  0  7  1  3 23 28 21 17 31                0.004506150
 -17795714.876 6  -7492222.872 6  23810249.273       -2928.009
   2381483.795 5   1980868.221 5  25243743.433        4446.313
 -27420851.839 8 -10488248.584 9  22292592.958        1491.176
 -19096679.589 7 -12896491.619 9  22655509.845        -398.750
 -28184378.443 7 -12164499.137 9  22095412.604        -598.932
  -6731930.191 7  -5157050.384 7  23051242.379        2415.424
 -13602090.107 6  -5814095.543 5  25098722.374       -2288.914
 93  5  6  7 40 30.0040000  0  7  1  3 23 28 21 17 31                0.004512400
 -17883417.663 6  -7560562.658 6  23793560.389       -2918.815
   2514980.962 6   2084891.928 5  25269146.741        4453.183
 -27376007.273 8 -10453304.765 9  22301126.689        1498.412
 -19108341.955 7 -12905579.191 9  22653290.312        -378.809
 -28202209.866 7 -12178393.755 9  22092019.693        -589.984
  -6659310.117 7  -5100463.349 7  23065061.590        2426.013
 -13670569.725 6  -5867456.271 5  25085690.984       -2276.338
 93  5  6  7 41  0.0040000  0  7  1  3 23 28 21 17 31                0.004518650
 -17970837.560 6  -7628682.028 6  23776924.947       -2909.422
   2648692.416 6   2189082.598 5  25294590.728        4460.468
 -27330935.341 8 -10418183.786 9  22309703.674        1506.243
 -19119390.797 7 -12914188.696 9  22651187.847        -357.870
 -28219775.022 7 -12192080.868 9  22088676.899        -581.159
  -6586361.405 7  -5043620.230 7  23078943.527        2437.208
 -13738664.533 6  -5920517.130 5  25072732.552       -2263.415
 93  5  6  7 41 30.0040000  0  7  1  3 23 28 21 17 31                0.004524910
 -18057988.472 6  -7696591.781 6  23760340.195       -2900.777
   2782612.909 6   2293436.204 5  25320075.325        4467.375
 -27285635.918 8 -10382885.526 9  22318324.087        1513.745
 -19129821.859 7 -12922316.794 9  22649203.562        -337.491
 -28237083.019 7 -12205567.605 9  22085383.487        -572.748
  -6513077.871 7  -4986516.204 7  23092889.215        2448.239
 -13806374.258 6  -5973277.935 5  25059847.728       -2250.666
 93  5  6  7 42  0.0040000  0  7  1  3 23 28 21 17 31                0.004531180
 -18144883.702 6  -7764302.321 6  23743804.435       -2892.225
   2916733.959 6   2397946.084 5  25345598.161        4473.892
 -27240124.969 8 -10347422.453 9  22326984.271        1520.350
 -19139650.513 7 -12929975.516 9  22647333.787        -317.592
 -28254154.828 7 -12218870.313 9  22082134.796        -565.413
  -6439476.721 7  -4929164.681 7  23106895.217        2458.463
 -13873701.968 6  -6025741.102 5  25047035.351       -2237.898
 93  5  6  7 42 30.0040000  0  7  1  3 23 28 21 17 31                0.004537450
 -18231520.770 6  -7831811.671 6  23727317.776       -2883.516
   3051055.050 5   2502611.804 5  25371158.180        4480.495
 -27194413.152 8 -10311802.850 9  22335682.719        1526.851
 -19148875.932 7 -12937164.162 9  22645578.162        -297.474
 -28271001.186 7 -12231997.330 9  22078928.906        -557.766
  -6365577.751 7  -4871581.093 7  23120957.025        2467.906
 -13940643.466 6  -6077903.267 5  25034297.245       -2225.004
 93  5  6  7 43  0.0040000  0  7  1  3 23 28 21 17 31                0.004543720
 -18317890.713 6  -7899112.889 6  23710882.426       -2874.386
   3185576.966 5   2607433.998 5  25396757.108        4487.378
 -27148511.071 8 -10276034.999 9  22344417.653        1533.311
 -19157486.584 7 -12943873.772 9  22643938.923        -276.413
 -28287607.903 8 -12244937.613 9  22075768.602        -549.146
  -6291399.145 7  -4813779.599 7  23135073.206        2477.351
 -14007192.573 6  -6129759.697 5  25021632.798       -2211.613
 93  5  6  7 43 30.0040000  0  7  1  3 23 28 21 17 31                0.004550000
 -18403989.593 6  -7966202.884 6  23694497.460       -2865.282
   3320298.584 5   2712411.791 5  25422393.420        4493.887
 -27102418.398 8 -10240118.648 9  22353188.599        1539.722
 -19165466.380 7 -12950091.807 9  22642420.467        -255.390
 -28303952.106 8 -12257673.362 9  22072658.537        -540.376
  -6216942.095 7  -4755761.134 7  23149241.935        2486.505
 -14073344.678 6  -6181306.745 5  25009044.150       -2198.487
 93  5  6  7 44  0.0040000  0  7  1  3 23 28 21 17 31                0.004556270
 -18489803.771 6  -8033071.027 6  23678168.155       -2855.737
   3455213.579 5   2817540.265 5  25448066.824        4500.098
 -27056137.827 8 -10204055.853 9  22361995.183        1545.613
 -19172809.584 7 -12955813.789 9  22641023.204        -234.124
 -28320032.226 8 -12270203.297 9  22069598.754        -531.649
  -6142211.611 7  -4697529.621 7  23163462.522        2495.627
 -14139101.130 6  -6232545.525 5  24996531.901       -2185.366
 93  5  6  7 44 30.0040000  0  7  1  3 23 28 21 17 31                0.004562520
 -18575328.770 6  -8099713.848 6  23661893.337       -2846.019
   3590317.331 5   2922815.800 5  25473776.346        4506.398
 -27009671.449 8 -10167848.273 9  22370837.701        1551.948
 -19179502.620 7 -12961029.147 9  22639749.959        -212.346
 -28335833.009 7 -12282515.591 9  22066592.228        -521.783
  -6067195.406 7  -4639075.470 7  23177737.585        2505.354
 -14204460.889 6  -6283475.202 5  24984093.883       -2172.111
 93  5  6  7 45  0.0040000  0  7  1  3 23 28 21 17 31                0.004568770
 -18660550.767 6  -8166120.542 6  23645675.856       -2835.572
   3725609.262 5   3028238.069 5  25499521.875        4512.823
 -26963015.264 8 -10131492.813 9  22379716.477        1558.471
 -19185545.874 7 -12965738.187 9  22638599.662        -190.650
 -28351330.400 7 -12294591.459 9  22063643.178        -511.366
  -5991881.247 7  -4580389.141 7  23192069.754        2515.552
 -14269419.579 6  -6334092.329 5  24971732.729       -2158.475
 93  5  6  7 45 30.0040000  0  7  1  3 23 28 21 17 31                0.004575010
 -18745457.359 6  -8232281.492 7  23629519.118       -2825.033
   3861092.842 5   3133809.600 5  25525303.472        4519.162
 -26916164.859 8 -10094986.005 9  22388631.822        1564.703
 -19190950.101 7 -12969949.276 9  22637571.145        -169.881
 -28366521.041 7 -12306428.322 9  22060751.982        -501.542
  -5916262.080 7  -4521465.146 7  23206459.117        2525.564
 -14333968.432 6  -6384390.135 5  24959450.280       -2144.876
 93  5  6  7 46  0.0040000  0  7  1  3 23 28 21 17 31                0.004581240
 -18830053.225 6  -8298200.304 7  23613420.980       -2814.694
   3996760.775 5   3239524.792 5  25551120.489        4525.364
 -26869138.066 8 -10058341.757 9  22397580.898        1570.534
 -19195742.788 7 -12973683.859 9  22636659.418        -149.538
 -28381421.585 7 -12318039.124 9  22057916.083        -491.812
  -5840345.634 6  -4462309.513 7  23220905.217        2535.637
 -14398109.586 6  -6434370.223 5  24947244.449       -2131.059
 93  5  6  7 46 30.0040000  0  7  1  3 23 28 21 17 31                0.004587470
 -18914347.152 6  -8363883.859 7  23597380.552       -2804.827
   4132609.144 5   3345380.623 5  25576972.079        4531.015
 -26821935.237 8 -10021560.329 9  22406563.610        1576.439
 -19199927.595 7 -12976944.774 9  22635863.308        -129.377
 -28396038.092 7 -12329428.616 9  22055134.888        -482.690
  -5764133.802 7  -4402923.713 7  23235407.825        2545.244
 -14461841.474 6  -6484031.447 5  24935116.841       -2117.623
 93  5  6  7 47  0.0040000  0  7  1  3 23 28 21 17 31                0.004593690
 -18998347.692 7  -8429338.780 7  23581395.528       -2795.247
   4268630.970 5   3451371.513 5  25602856.502        4536.785
 -26774552.961 8  -9984639.083 9  22415580.006        1582.532
 -19203505.850 7 -12979733.022 9  22635182.369        -108.960
 -28410391.372 7 -12340612.981 9  22052403.658        -474.360
  -5687629.645 7  -4343310.092 7  23249965.958        2555.211
 -14525165.818 6  -6533375.063 5  24923065.713       -2104.011
 93  5  6  7 47 30.0040000  0  7  1  3 23 28 21 17 31                0.004599920
 -19082059.049 6  -8494568.364 7  23565465.964       -2785.481
   4404828.457 5   3557499.282 5  25628774.361        4542.740
 -26726978.585 8  -9947568.139 9  22424633.249        1588.970
 -19206457.800 7 -12982033.253 9  22634620.887         -87.787
 -28424499.129 8 -12351606.015 9  22049719.208        -466.126
  -5610817.197 7  -4283456.274 7  23264583.054        2565.633
 -14588075.429 6  -6582395.521 5  24911094.275       -2090.053
 93  5  6  7 48  0.0040000  0  7  1  3 23 28 21 17 31                0.004606160
 -19165479.169 6  -8559571.034 7  23549591.375       -2775.802
   4541196.990 5   3663760.416 5  25654724.153        4548.270
 -26679211.657 8  -9910347.159 9  22433722.810        1595.576
 -19208770.120 7 -12983835.068 9  22634181.304         -66.152
 -28438359.992 7 -12362406.686 9  22047081.684        -457.897
  -5533691.656 7  -4223358.513 7  23279260.015        2576.016
 -14650569.566 6  -6631092.262 5  24899202.527       -2076.186
 93  5  6  7 48 30.0040000  0  7  1  3 23 28 21 17 31                0.004612400
 -19248596.767 7  -8624337.960 7  23533774.913       -2765.553
   4677737.081 5   3770155.217 5  25680706.467        4554.019
 -26631237.084 8  -9872964.379 9  22442852.248        1602.477
 -19210421.289 7 -12985121.709 9  22633866.980         -44.143
 -28451967.698 7 -12373010.081 9  22044492.426        -449.319
  -5456256.032 7  -4163019.096 7  23293995.604        2586.196
 -14712642.133 6  -6679460.484 5  24887390.559       -2062.200
 93  5  6  7 49  0.0040000  0  7  1  3 23 28 21 17 31                0.004618630
 -19331400.706 6  -8688860.492 7  23518017.510       -2754.714
   4814439.643 5   3876676.638 5  25706720.457        4559.180
 -26583066.255 8  -9835428.672 9  22452019.099        1608.772
 -19211426.349 7 -12985904.897 9  22633675.380         -23.025
 -28465322.531 8 -12383416.442 9  22041950.925        -441.018
  -5378520.778 7  -4102446.204 7  23308788.501        2595.877
 -14774297.731 6  -6727503.777 5  24875657.701       -2048.298
 93  5  6  7 49 30.0040000  0  7  1  3 23 28 21 17 31                0.004624860
 -19413864.273 7  -8753117.760 7  23502324.557       -2743.044
   4951302.206 5   3983322.706 5  25732764.422        4564.526
 -26534713.183 8  -9797750.941 9  22461220.393        1614.546
 -19211802.214 7 -12986197.774 9  22633603.899          -2.259
 -28478415.891 8 -12393619.041 9  22039459.192        -431.997
  -5300504.562 7  -4041654.394 7  23323634.593        2604.871
 -14835533.150 6  -6775219.672 5  24864005.337       -2034.224
 93  5  6  7 50  0.0040000  0  7  1  3 23 28 21 17 31                0.004631080
 -19495970.832 6  -8817096.884 7  23486700.310       -2730.846
   5088324.838 5   4090093.534 5  25758838.525        4570.042
 -26486180.261 8  -9759933.084 9  22470455.346        1621.007
 -19211558.743 7 -12986008.061 9  22633650.349          18.518
 -28491242.264 7 -12403613.593 9  22037018.210        -423.197
  -5222223.552 7  -3980656.224 7  23338530.683        2613.829
 -14896343.057 6  -6822604.029 5  24852433.876       -2019.733
 93  5  6  7 50 30.0040000  0  7  1  3 23 28 21 17 31                0.004637300
 -19577715.306 7  -8880793.825 7  23471144.871       -2718.802
   5225509.294 5   4196990.481 5  25784944.571        4575.412
 -26437459.403 8  -9721968.787 9  22479726.689        1627.019
 -19210698.740 7 -12985337.950 9  22633814.140          38.831
 -28503809.620 8 -12413406.342 9  22034626.235        -414.623
  -5143676.989 7  -3919451.143 7  23353477.010        2622.744
 -14956721.052 6  -6869651.791 5  24840944.206       -2005.339
 93  5  6  7 51  0.0040000  0  7  1  3 23 28 21 17 31                0.004643510
 -19659108.744 6  -8944217.268 7  23455656.615       -2707.662
   5362850.915 5   4304009.898 5  25811080.274        4580.413
 -26388564.046 8  -9683868.520 9  22489030.958        1632.672
 -19209229.170 7 -12984192.850 9  22634094.274          59.077
 -28516125.788 8 -12423003.358 9  22032282.577        -406.623
  -5064857.863 7  -3858033.659 7  23368475.891        2631.554
 -15016666.486 6  -6916362.506 5  24829535.989       -1991.098
 93  5  6  7 51 30.0040000  0  7  1  3 23 28 21 17 31                0.004649730
 -19740179.878 6  -9007389.534 7  23440229.389       -2697.214
   5500339.550 5   4411143.870 5  25837242.817        4585.308
 -26339494.690 8  -9645632.631 9  22498368.054        1638.778
 -19207146.843 7 -12982570.273 9  22634490.036          79.793
 -28528203.017 8 -12432414.174 9  22029984.618        -398.468
  -4985774.965 6  -3796410.639 7  23383525.556        2640.730
 -15076183.702 6  -6962739.539 5  24818210.584       -1976.609
 93  5  6  7 52  0.0040000  0  7  1  3 23 28 21 17 31                0.004655940
 -19820945.203 7  -9070323.520 7  23424860.416       -2687.071
   5637976.396 5   4518393.241 5  25863434.887        4590.308
 -26290238.881 8  -9607251.491 9  22507741.516        1644.962
 -19204436.802 7 -12980458.561 9  22635005.966         100.984
 -28540031.914 8 -12441631.479 9  22027733.329        -389.869
  -4906407.425 6  -3734565.860 6  23398628.614        2650.671
 -15135266.649 6  -7008778.195 5  24806967.094       -1962.055
 93  5  6  7 52 30.0040000  0  7  1  3 23 28 21 17 31                0.004662160
 -19901409.499 6  -9133022.936 7  23409548.548       -2677.202
   5775758.634 5   4625755.968 5  25889652.882        4594.919
 -26240809.345 8  -9568734.973 9  22517147.902        1650.429
 -19201094.293 7 -12977854.010 9  22635641.734         121.921
 -28551590.351 8 -12450638.046 9  22025533.930        -380.681
  -4826743.134 7  -3672489.808 6  23413788.050        2660.279
 -15193913.678 6  -7054477.189 5  24795807.108       -1947.645
 93  5  6  7 53  0.0040000  0  7  1  3 23 28 21 17 31                0.004668370
 -19981568.332 7  -9195484.318 7  23394294.784       -2666.798
   5913682.039 5   4733228.736 5  25915898.879        4599.594
 -26191204.156 8  -9530081.580 9  22526587.059        1656.674
 -19197117.348 7 -12974755.093 9  22636398.441         143.093
 -28562869.365 8 -12459426.879 9  22023387.605        -371.307
  -4746786.962 6  -3610186.339 6  23429003.292        2670.020
 -15252122.957 6  -7099835.082 5  24784730.403       -1933.044
 93  5  6  7 53 30.0040000  0  7  1  3 23 28 21 17 31                0.004674590
 -20061400.076 6  -9257690.849 7  23379103.054       -2655.213
   6051747.280 5   4840812.008 5  25942172.492        4604.450
 -26141400.622 8  -9491273.617 9  22536063.950        1663.363
 -19192506.346 7 -12971162.126 9  22637276.228         164.220
 -28573863.418 8 -12467993.660 9  22021295.863        -361.650
  -4666536.116 6  -3547653.231 6  23444274.076        2680.051
 -15309888.863 6  -7144847.435 5  24773737.576       -1918.072
 93  5  6  7 54  0.0040000  0  7  1  3 23 28 21 17 31                0.004680790
 -20140881.286 6  -9319624.217 7  23363978.625       -2643.593
   6189949.154 5   4948501.692 5  25968471.382        4608.687
 -26091409.657 8  -9452319.627 9  22545577.171        1669.298
 -19187269.864 7 -12967081.746 9  22638272.440         184.829
 -28584575.168 8 -12476340.469 9  22019257.617        -352.605
  -4585991.640 6  -3484891.329 6  23459601.258        2689.448
 -15367211.900 6  -7189514.736 5  24762829.581       -1903.460
 93  5  6  7 54 30.0040000  0  7  1  3 23 28 21 17 31                0.004686990
 -20220008.872 7  -9381282.037 7  23348921.155       -2631.696
   6328281.764 5   5056293.262 5  25994795.219        4613.209
 -26041228.368 8  -9413217.331 9  22555126.910        1676.160
 -19181413.295 7 -12962518.218 9  22639386.758         205.807
 -28595022.114 8 -12484480.945 9  22017269.641        -344.079
  -4505171.701 6  -3421914.792 6  23474981.367        2698.489
 -15424092.894 6  -7233837.585 5  24752005.633       -1888.513
